[[{"header":{"parameterUnit":"m.s-1","parameterCategory":1,"la1":31.0,"la2":29.5877,"lo1":-88.7671,"lo2":-86.6584,"dy":0.0162,"dx":0.0185,"nx":115,"ny":88,"refTime":"2023-09-01T12:00:00:Z","depth":0,"parameterNumber":2,"parameterNumberName":"U-component_of_WINDS"},"data":[0.0,0.0,0.0,0.0,0.0,0.0,0.0,0.0,0.0,0.0,0.0,0.0,0.0,0.0,0.0,0.0,0.0,0.0,0.0,0.0,0.0,0.0,0.0,0.0,0.0,0.0,0.0,0.0,0.0,0.0,0.0,0.0,0.0,0.0,0.0,0.0,0.0,0.0,0.0,0.0,0.0,0.0,0.0,0.0,0.0,0.0,0.0,0.0,0.0,0.0,0.0,0.0,0.0,0.0,0.0,0.0,0.0,0.0,0.0,0.0,0.0,0.0,0.0,0.0,0.0,0.0,0.0,0.0,0.0,0.0,0.0,0.0,0.0,0.0,0.0,0.0,0.0,0.0,0.0,0.0,0.0,0.0,0.0,0.0,0.0,0.0,0.0,0.0,0.0,0.0,0.0,0.0,0.0,0.0,0.0,0.0,0.0,0.0,0.0,0.0,0.0,0.0,0.0,0.0,0.0,0.0,0.0,0.0,0.0,0.0,0.0,0.0,0.0,0.0,0.0,0.0,0.0,0.0,0.0,0.0,0.0,0.0,0.0,0.0,0.0,0.0,0.0,0.0,0.0,0.0,0.0,0.0,0.0,0.0,0.0,0.0,0.0,0.0,0.0,0.0,0.0,0.0,0.0,0.0,0.0,0.0,0.0,0.0,0.0,0.0,0.0,0.0,0.0,0.0,0.0,0.0,0.0,0.0,0.0,0.0,0.0,0.0,0.0,0.0,0.0,0.0,0.0,0.0,0.0,0.0,0.0,0.0,0.0,0.0,0.0,0.0,0.0,0.0,0.0,0.0,0.0,0.0,0.0,0.0,0.0,0.0,0.0,0.0,0.0,0.0,0.0,0.0,0.0,0.0,0.0,0.0,0.0,0.0,0.0,0.0,0.0,0.0,0.0,0.0,0.0,0.0,0.0,0.0,0.0,0.0,0.0,0.0,0.0,0.0,0.0,0.0,0.0,0.0,0.0,0.0,0.0,0.0,0.0,0.0,0.0,0.0,0.0,0.0,0.0,0.0,0.0,0.0,0.0,0.0,0.0,0.0,0.0,0.0,0.0,0.0,0.0,0.0,0.0,0.0,0.0,0.0,0.0,0.0,0.0,0.0,0.0,0.0,0.0,0.0,0.0,0.0,0.0,0.0,0.0,0.0,0.0,0.0,0.0,0.0,0.0,0.0,0.0,0.0,0.0,0.0,0.0,0.0,0.0,0.0,0.0,0.0,0.0,0.0,0.0,0.0,0.0,0.0,0.0,0.0,0.0,0.0,0.0,0.0,0.0,0.0,0.0,0.0,0.0,0.0,0.0,0.0,0.0,0.0,0.0,0.0,0.0,0.0,0.0,0.0,0.0,0.0,0.0,0.0,0.0,0.0,0.0,0.0,0.0,0.0,0.0,0.0,0.0,0.0,0.0,0.0,0.0,0.0,0.0,0.0,0.0,0.0,0.0,0.0,0.0,0.0,0.0,0.0,0.0,0.0,0.0,0.0,0.0,0.0,0.0,0.0,0.0,0.0,0.0,0.0,0.0,0.0,0.0,0.0,0.0,0.0,0.0,0.0,0.0,0.0,0.0,0.0,0.0,0.0,0.0,0.0,0.0,0.0,0.0,0.0,0.0,0.0,0.0,0.0,0.0,0.0,0.0,0.0,0.0,0.0,0.0,0.0,0.0,0.0,0.0,0.0,0.0,0.0,0.0,0.0,0.0,0.0,0.0,0.0,0.0,0.0,0.0,0.0,0.0,0.0,0.0,0.0,0.0,0.0,0.0,0.0,0.0,0.0,0.0,0.0,0.0,0.0,0.0,0.0,0.0,0.0,0.0,0.0,0.0,0.0,0.0,0.0,0.0,0.0,0.0,0.0,0.0,0.0,0.0,0.0,0.0,0.0,0.0,0.0,0.0,0.0,0.0,0.0,0.0,0.0,0.0,0.0,0.0,0.0,0.0,0.0,0.0,0.0,0.0,0.0,0.0,0.0,0.0,0.0,0.0,0.0,0.0,0.0,0.0,0.0,0.0,0.0,0.0,0.0,0.0,0.0,0.0,0.0,0.0,0.0,0.0,0.0,0.0,0.0,0.0,0.0,0.0,0.0,0.0,0.0,0.0,0.0,0.0,0.0,0.0,0.0,0.0,0.0,0.0,0.0,0.0,0.0,0.0,0.0,0.0,0.0,0.0,0.0,0.0,0.0,0.0,0.0,0.0,0.0,0.0,0.0,0.0,0.0,0.0,0.0,0.0,0.0,0.0,0.0,0.0,0.0,0.0,0.0,0.0,0.0,0.0,0.0,0.0,0.0,0.0,0.0,0.0,0.0,0.0,0.0,0.0,0.0,0.0,0.0,0.0,0.0,0.0,0.0,0.0,0.0,0.0,0.0,0.0,0.0,0.0,0.0,0.0,0.0,0.0,0.0,0.0,0.0,0.0,0.0,0.0,0.0,0.0,0.0,0.0,0.0,0.0,0.0,0.0,0.0,0.0,0.0,0.0,0.0,0.0,0.0,0.0,0.0,0.0,0.0,0.0,0.0,0.0,0.0,0.0,0.0,0.0,0.0,0.0,0.0,0.0,0.0,0.0,0.0,0.0,0.0,0.0,0.0,0.0,0.0,0.0,0.0,0.0,0.0,0.0,0.0,0.0,0.0,0.0,0.0,0.0,0.0,0.0,0.0,0.0,0.0,0.0,0.0,0.0,0.0,0.0,0.0,0.0,0.0,0.0,0.0,0.0,0.0,0.0,0.0,0.0,0.0,0.0,0.0,0.0,0.0,0.0,0.0,0.0,0.0,0.0,0.0,0.0,0.0,0.0,0.0,0.0,0.0,0.0,0.0,0.0,0.0,0.0,0.0,0.0,0.0,0.0,0.0,0.0,0.0,0.0,0.0,0.0,0.0,0.0,0.0,0.0,0.0,0.0,0.0,0.0,0.0,0.0,0.0,0.0,0.0,0.0,0.0,0.0,0.0,0.0,0.0,0.0,0.0,0.0,0.0,0.0,0.0,0.0,0.0,0.0,0.0,0.0,0.0,0.0,0.0,0.0,0.0,0.0,0.0,0.0,0.0,0.0,0.0,0.0,0.0,0.0,0.0,0.0,0.0,0.0,0.0,0.0,0.0,0.0,0.0,0.0,0.0,0.0,0.0,0.0,0.0,0.0,0.0,0.0,0.0,0.0,0.0,0.0,0.0,0.0,0.0,0.0,0.0,0.0,0.0,0.0,0.0,0.0,0.0,0.0,0.0,0.0,0.0,0.0,0.0,0.0,0.0,0.0,0.0,0.0,0.0,0.0,0.0,0.0,0.0,0.0,0.0,0.0,0.0,0.0,0.0,0.0,0.0,0.0,0.0,0.0,0.0,0.0,0.0,0.0,0.0,0.0,0.0,0.0,0.0,0.0,0.0,0.0,0.0,0.0,0.0,0.0,0.0,0.0,0.0,0.0,0.0,0.0,0.0,0.0,0.0,0.0,0.0,0.0,0.0,0.0,0.0,0.0,0.0,0.0,0.0,0.0,0.0,0.0,0.0,0.0,0.0,0.0,0.0,0.0,0.0,0.0,0.0,0.0,0.0,0.0,0.0,0.0,0.0,0.0,0.0,0.0,0.0,0.0,0.0,0.0,0.0,0.0,0.0,0.0,0.0,0.0,0.0,0.0,0.0,0.0,0.0,0.0,0.0,0.0,0.0,0.0,0.0,0.0,0.0,0.0,0.0,0.0,0.0,0.0,0.0,0.0,0.0,0.0,0.0,0.0,0.0,0.0,0.0,0.0,0.0,0.0,0.0,0.0,0.0,0.0,0.0,0.0,0.0,0.0,0.0,0.0,0.0,0.0,0.0,0.0,0.0,0.0,0.0,0.0,0.0,0.0,0.0,0.0,0.0,0.0,0.0,0.0,0.0,0.0,0.0,0.0,0.0,0.0,0.0,0.0,0.0,0.0,0.0,0.0,0.0,0.0,0.0,0.0,0.0,0.0,0.0,0.0,0.0,0.0,0.0,0.0,0.0,0.0,0.0,0.0,0.0,0.0,0.0,0.0,0.0,0.0,0.0,0.0,0.0,0.0,0.0,0.0,0.0,0.0,0.0,0.0,0.0,0.0,0.0,0.0,0.0,0.0,0.0,0.0,0.0,0.0,0.0,0.0,0.0,0.0,0.0,0.0,0.0,0.0,0.0,0.0,0.0,0.0,0.0,0.0,0.0,0.0,0.0,0.0,0.0,0.0,0.0,0.0,0.0,0.0,0.0,0.0,0.0,0.0,0.0,0.0,0.0,0.0,0.0,0.0,0.0,-0.3193,0.0,0.0,0.0,0.0,0.0,0.0,0.0,0.0,0.0,0.0,0.0,0.0,0.0,0.0,0.0,0.0,0.0,0.0,0.0,0.0,0.0,0.0,0.0,0.0,0.0,0.0,0.0,0.0,0.0,0.0,0.0,0.0,0.0,0.0,0.0,0.0,0.0,0.0,0.0,0.0,0.0,0.0,0.0,0.0,0.0,0.0,0.0,0.0,0.0,0.0,0.0,0.0,0.0,0.0,0.0,0.0,0.0,0.0,0.0,0.0,0.0,0.0,0.0,0.0,0.0,0.0,0.0,0.0,0.0,0.0,0.0,0.0,0.0,0.0,0.0,0.0,0.0,0.0,0.0,0.0,0.0,0.0,0.0,0.0,0.0,0.0,0.0,0.0,0.0,0.0,0.0,0.0,0.0,0.0,0.0,0.0,0.0,0.0,0.0,0.0,0.0,0.0,0.0,0.0,0.0,0.0,0.0,0.0,0.0,0.0,-0.3297,-0.3289,-0.3297,-0.3262,-0.3213,0.0,0.0,0.0,0.0,0.0,0.0,0.0,0.0,0.0,0.0,0.0,0.0,0.0,0.0,0.0,0.0,0.0,0.0,0.0,0.0,0.0,0.0,0.0,0.0,0.0,0.0,0.0,0.0,0.0,0.0,0.0,0.0,0.0,0.0,0.0,0.0,0.0,0.0,0.0,0.0,0.0,0.0,0.0,0.0,0.0,0.0,0.0,0.0,0.0,0.0,0.0,0.0,0.0,0.0,0.0,0.0,0.0,0.0,0.0,0.0,0.0,0.0,0.0,0.0,0.0,0.0,0.0,0.0,0.0,0.0,0.0,0.0,0.0,0.0,0.0,0.0,0.0,0.0,0.0,0.0,0.0,0.0,0.0,0.0,0.0,0.0,0.0,0.0,0.0,0.0,0.0,0.0,0.0,0.0,0.0,0.0,0.0,0.0,0.0,0.0,0.0,0.0,0.0,0.0,0.0,0.0,0.0,0.0,0.0,0.0,0.0,0.0,-0.2804,-0.2877,-0.2886,0.0,0.0,0.0,0.0,0.0,0.0,0.0,0.0,0.0,0.0,0.0,0.0,0.0,0.0,0.0,0.0,0.0,0.0,0.0,0.0,0.0,0.0,0.0,0.0,0.0,0.0,0.0,0.0,0.0,0.0,0.0,0.0,0.0,0.0,0.0,0.0,0.0,0.0,0.0,0.0,0.0,0.0,0.0,0.0,0.0,0.0,0.0,0.0,0.0,0.0,0.0,0.0,0.0,0.0,0.0,0.0,0.0,0.0,0.0,0.0,0.0,0.0,0.0,0.0,0.0,0.0,0.0,0.0,0.0,0.0,0.0,0.0,0.0,0.0,0.0,0.0,0.0,0.0,0.0,0.0,0.0,0.0,0.0,0.0,0.0,0.0,0.0,0.0,0.0,0.0,0.0,0.0,0.0,0.0,0.0,0.0,0.0,0.0,0.0,0.0,0.0,0.0,0.0,0.0,0.0,0.0,0.0,0.0,0.0,0.0,-0.1308,-0.1305,-0.1262,0.0,-0.1982,0.0,0.0,0.0,0.0,0.0,0.0,0.0,0.0,0.0,0.0,0.0,0.0,0.0,0.0,0.0,0.0,0.0,0.0,0.0,0.0,0.0,0.0,0.0,0.0,0.0,0.0,0.0,0.0,0.0,0.0,0.0,0.0,0.0,0.0,0.0,0.0,0.0,0.0,0.0,0.0,0.0,0.0,0.0,0.0,0.0,0.0,0.0,0.0,0.0,0.0,0.0,0.0,0.0,0.0,0.0,0.0,0.0,0.0,0.0,0.0,0.0,0.0,0.0,0.0,0.0,0.0,0.0,0.0,0.0,0.0,0.0,0.0,0.0,0.0,0.0,0.0,0.0,0.0,0.0,0.0,0.0,0.0,0.0,0.0,0.0,0.0,0.0,0.0,0.0,0.0,0.0,0.0,0.0,0.0,0.0,0.0,0.0,0.0,0.0,0.0,0.0,0.0,0.0,0.0,0.0,0.0,0.0,0.0,0.0,0.0,-0.1084,-0.1046,-0.1407,-0.1699,0.0,0.0,0.0,0.0,0.0,0.0,0.0,0.0,0.0,0.0,0.0,0.0,0.0,0.0,0.0,0.0,0.0,0.0,0.0,0.0,0.0,0.0,0.0,0.0,0.0,0.0,0.0,0.0,0.0,0.0,0.0,0.0,0.0,0.0,0.0,0.0,0.0,0.0,0.0,0.0,0.0,0.0,0.0,0.0,0.0,0.0,0.0,0.0,0.0,0.0,0.0,0.0,0.0,0.0,0.0,0.0,0.0,0.0,0.0,0.0,0.0,0.0,0.0,0.0,0.0,0.0,0.0,0.0,0.0,0.0,0.0,0.0,0.0,0.0,0.0,0.0,0.0,0.0,0.0,0.0,0.0,0.0,0.0,0.0,0.0,0.0,0.0,0.0,0.0,0.0,0.0,0.0,0.0,0.0,0.0,0.0,0.0,0.0,0.0,0.0,0.0,0.0,0.0,0.0,0.0,0.0,0.0,0.0,0.0,0.0,-0.0201,-0.0472,-0.0423,-0.091,-0.1226,-0.1342,0.0,0.0,0.0,0.0,0.0,0.0,0.0,0.0,0.0,0.0,0.0,0.0,0.0,0.0,0.0,0.0,0.0,0.0,0.0,0.0,0.0,0.0,0.0,0.0,0.0,0.0,0.0,0.0,0.0,0.0,0.0,0.0,0.0,0.0,0.0,0.0,0.0,0.0,0.0,0.0,0.0,0.0,0.0,0.0,0.0,0.0,0.0,0.0,0.0,0.0,0.0,0.0,0.0,0.0,0.0,0.0,0.0,0.0,0.0,0.0,0.0,0.0,0.0,0.0,0.0,0.0,0.0,0.0,0.0,0.0,0.0,0.0,0.0,0.0,0.0,0.0,0.0,0.0,0.0,0.0,0.0,0.0,0.0,0.0,0.0,0.0,0.0,0.0,0.0,0.0,0.0,0.0,0.0,0.0,0.0,0.0,0.0,0.0,0.0,0.0,0.0,0.0,0.0,0.0,0.0,0.0,0.0,0.0,0.1122,0.1021,0.1025,0.1068,0.0921,0.058,0.0,0.0,0.0,0.0,0.0,0.0,0.0,0.0,0.0,0.0,0.0,0.0,0.0,0.0,0.0,0.0,0.0,0.0,0.0,0.0,0.0,0.0,0.0,0.0,0.0,0.0,0.0,0.0,0.0,0.0,0.0,0.0,0.0,0.0,0.0,0.0,0.0,0.0,0.0,0.0,0.0,0.0,0.0,0.0,0.0,0.0,0.0,0.0,0.0,0.0,0.0,0.0,0.0,0.0,0.0,0.0,0.0,0.0,0.0,0.0,0.0,0.0,0.0,0.0,0.0,0.0,0.0,0.0,0.0,0.0,0.0,0.0,0.0,0.0,0.0,0.0,0.0,0.0,0.0,0.0,0.0,0.0,0.0,0.0,0.0,0.0,0.0,0.0,0.0,0.0,0.0,0.0,0.0,0.0,0.0,0.0,0.0,0.0,0.0,0.0,0.0,0.0,0.0,0.0,0.0,0.0,0.0,0.0,0.0,0.1078,0.1095,0.109,0.1064,0.0648,0.0332,0.0,0.0,0.0,0.0,0.0,0.0,0.0,0.0,0.0,0.0,0.0,0.0,0.0,0.0,0.0,0.0,0.0,0.0,0.0,0.0,0.0,0.0,0.0,0.0,0.0,0.0,0.0,0.0,0.0,0.0,0.0,0.0,0.0,0.0,0.0,0.0,0.0,0.0,0.0,0.0,0.0,0.0,0.0,0.0,0.0,0.0,0.0,0.0,0.0,0.0,0.0,0.0,0.0,0.0,0.0,0.0,0.0,0.0,0.0,0.0,0.0,0.0,0.0,0.0,0.0,0.0,0.0,0.0,0.0,0.0,0.0,0.0,0.0,0.0,0.0,0.0,0.0,0.0,0.0,0.0,0.0,0.0,0.0,0.0,0.0,0.0,0.0,0.0,0.0,0.0,0.0,0.0,0.0,0.0,0.0,0.0,0.0,0.0,0.0,0.0,0.0,0.0,0.0,0.0,0.0,0.0,0.0,0.0,0.0,0.1031,0.0,0.1066,0.0987,0.0607,0.0389,0.0,0.0,0.0,0.0,0.0,0.0,0.0,0.0,0.0,0.0,0.0,0.0,0.0,0.0,0.0,0.0,0.0,0.0,0.0,0.0,0.0,0.0,0.0,0.0,0.0,0.0,0.0,0.0,0.0,0.0,0.0,0.0,0.0,0.0,0.0,0.0,0.0,0.0,0.0,0.0,0.0,0.0,0.0,0.0,0.0,0.0,0.0,0.0,0.0,0.0,0.0,0.0,0.0,0.0,0.0,0.0,0.0,0.0,0.0,0.0,0.0,0.0,0.0,0.0,0.0,0.0,0.0,0.0,0.0,0.0,0.0,0.0,0.0,0.0,0.0,0.0,0.0,0.0,0.0,0.0,0.0,0.0,0.0,0.0,0.0,0.0,0.0,0.0,0.0,0.0,0.0,0.0,0.0,0.0,0.0,0.0,0.0,0.0,0.0,0.0,0.0,0.0,0.0,0.0,0.0,0.0,0.0,0.0,0.1044,0.1088,0.1092,0.1064,0.1002,0.099,0.0947,0.0,0.0,0.0,0.0,0.0,0.0,0.0,0.0,0.0,0.0,0.0,0.0,0.0,0.0,0.0,0.0,0.0,0.0,0.0,0.0,0.0,0.0,0.0,0.0,0.0,0.0,0.0,0.0,0.0,0.0,0.0,0.0,0.0,0.0,0.0,0.0,0.0,0.0,0.0,0.0,0.0,0.0,0.0,0.0,0.0,0.0,0.0,0.0,0.0,0.0,0.0,0.0,0.0,0.0,0.0,0.0,0.0,0.0,0.0,0.0,0.0,0.0,0.0,0.0,0.0,0.0,0.0,0.0,0.0,0.0,0.0,0.0,0.0,0.0,0.0,0.0,0.0,0.0,0.0,0.0,0.0,0.0,0.0,0.0,0.0,0.0,0.0,0.0,0.0,0.0,0.0,0.0,0.0,0.0,0.0,0.0,0.0,0.0,0.0,0.0,0.0,0.0,0.0,0.0,0.0,0.0,0.0,0.0,0.0,0.097,0.1061,0.1105,0.1078,0.1014,0.1014,0.0,0.0,0.0,0.0,0.0,0.0,0.0,0.0,0.0,0.0,0.0,0.0,0.0,0.0,0.0,0.0,0.0,0.0,0.0,0.0,0.0,0.0,0.0,0.0,0.0,0.0,0.0,0.0,0.0,0.0,0.0,0.0,0.0,0.0,0.0,0.0,0.0,0.0,0.0,0.0,0.0,0.0,0.0,0.0,0.0,0.0,0.0,0.0,0.0,0.0,0.0,0.0,0.0,0.0,0.0,0.0,0.0,0.0,0.0,0.0,0.0,0.0,0.0,0.0,0.0,0.0,0.0,0.0,0.0,0.0,0.0,0.0,0.0,0.0,0.0,0.0,0.0,0.0,0.0,0.0,0.0,0.0,0.0,0.0,0.0,0.0,0.0,0.0,0.0,0.0,0.0,0.0,0.0,0.0,0.0,0.0,0.0,0.0,0.0,0.0,0.0,0.0,0.0,0.0,0.0,0.0,0.0,0.0,0.0,0.0949,0.1058,0.1092,0.1092,0.1073,0.1044,0.1073,0.0,0.0,0.0,0.0,0.0,0.0,0.0,0.0,0.0,0.0,0.0,0.0,0.0,0.0,0.0,0.0,0.0,0.0,0.0,0.0,0.0,0.0,0.0,0.0,0.0,0.0,0.0,0.0,0.0,0.0,0.0,0.0,0.0,0.0,0.0,0.0,0.0,0.0,0.0,0.0,0.0,0.0,0.0,0.0,0.0,0.0,0.0,0.0,0.0,0.0,0.0,0.0,0.0,0.0,0.0,0.0,0.0,0.0,0.0,0.0,0.0,0.0,0.0,0.0,0.0,0.0,0.0,0.0,0.0,0.0,0.0,0.0,0.0,0.0,0.0,0.0,0.0,0.0,0.0,0.0,0.0,0.0,0.0,0.0,0.0,0.0,0.0,0.0,0.0,0.0,0.0,0.0,0.0,0.0,0.0,0.0,0.0,0.0,0.0,0.0,0.0,0.0,0.0,0.0,0.0,0.0,0.0,0.0,0.1009,0.1089,0.1121,0.1099,0.1094,0.1067,0.0,0.0,0.0,0.0,0.0,0.0,0.0,0.0,0.0,0.0,0.0,0.0,0.0,0.0,0.0,0.0,0.0,0.0,0.0,0.0,0.0,0.0,0.0,0.0,0.0,0.0,0.0,0.0,0.0,0.0,0.0,0.0,0.0,0.0,0.0,0.0,0.0,0.0,0.0,0.0,0.0,0.0,0.0,0.0,0.0,0.0,0.0,0.0,0.0,0.0,0.0,0.0,0.0,0.0,0.0,0.0,0.0,0.0,0.0,0.0,0.0,0.0,0.0,0.0,0.0,0.0,0.0,0.0,0.0,0.0,0.0,0.0,0.0,0.0,0.0,0.0,0.0,0.0,0.0,0.0,0.0,0.0,0.0,0.0,0.0,0.0,0.0,0.0,0.0,0.0,0.0,0.0,0.0,0.0,0.0,0.0,0.0,0.0,0.0,0.0,0.0,0.0,0.0,0.0,0.0,0.0,0.0,0.0,0.0,0.1134,0.1223,0.1211,0.1181,0.1134,0.1106,0.0,0.0,0.0,0.0,0.0,0.0,0.0,0.0,0.0,0.0,0.0,0.0,0.0,0.0,0.0,0.0,0.0,0.0,0.0,0.0,0.0,0.0,0.0,0.0,0.0,0.0,0.0,0.0,0.0,0.0,0.0,0.0,0.0,0.0,0.0,0.0,0.0,0.0,0.0,0.0,0.0,0.0,0.0,0.0,0.0,0.0,0.0,0.0,0.0,0.0,0.0,0.0,0.0,0.0,0.0,0.0,0.0,0.0,0.0,0.0,0.0,0.0,0.0,0.0,0.0,0.0,0.0,0.0,0.0,0.0,0.0,0.0,0.0,0.0,0.0,0.0,0.0,0.0,0.0,0.0,0.0,0.0,0.0,0.0,0.0,0.0,0.0,0.0,0.0,0.0,0.0,0.0,0.0,0.0,0.0,0.0,0.0,0.0,0.0,0.0,0.0,0.0,0.0,0.0,0.0,0.0,0.0,0.0,0.1174,0.1242,0.1281,0.1276,0.1244,0.1215,0.1206,0.0,0.0,0.0,0.0,0.0,0.0,0.0,0.0,0.0,0.0,0.0,0.0,0.0,0.0,0.0,0.0,0.0,0.0,0.0,0.0,0.0,0.0,0.0,0.0,0.0,0.0,0.0,0.0,0.0,0.0,0.0,0.0,0.0,0.0,0.0,0.0,0.0,0.0,0.0,0.0,0.0,0.0,0.0,0.0,0.0,0.0,0.0,0.0,0.0,0.0,0.0,0.0,0.0,0.0,0.0,0.0,0.0,0.0,0.0,0.0,0.0,0.0,0.0,0.0,0.0,0.0,0.0,0.0,0.0,0.0,0.0,0.0,0.0,0.0,0.0,0.0,0.0,0.0,0.0,0.0,0.0,0.0,0.0,0.0,0.0,0.0,0.0,0.0,0.0,0.0,0.0,0.0,0.0,0.0,0.0,0.0,0.0,0.0,0.0,0.0,0.0,0.0,0.0,0.0,0.0,0.0,0.0,0.0,0.1255,0.1306,0.1308,0.1318,0.1314,0.1319,0.1317,0.0,0.0,0.0,0.0,0.0,0.0,0.0,0.0,0.0,0.0,0.0,0.0,0.0,0.0,0.0,0.0,0.0,0.0,0.0,0.0,0.0,0.0,0.0,0.0,0.0,0.0,0.0,0.0,0.0,0.0,0.0,0.0,0.0,0.0,0.0,0.0,0.0,0.0,0.0,0.0,0.0,0.0,0.0,0.0,0.0,0.0,0.0,0.0,0.0,0.0,0.0,0.0,0.0,0.0,0.0,0.0,0.0,0.0,0.0,0.0,0.0,0.0,0.0,0.0,0.0,0.0,0.0,0.0,0.0,0.0,0.0,0.0,0.0,0.0,0.0,0.0,0.0,0.0,0.0,0.0,0.0,0.0,0.0,0.0,0.0,0.0,0.0,0.0,0.0,0.0,0.0,0.0,0.0,0.0,0.0,0.0,0.0,0.0,0.0,0.0,0.0,0.0,0.0,0.0,0.0,0.0,0.0,0.0,0.1278,0.1308,0.141,0.1418,0.1372,0.132,0.1286,0.0,0.0,0.0,0.0,0.0,0.0,0.0,0.0,0.0,0.0,0.0,0.0,0.0,0.0,0.0,0.0,0.0,0.0,0.0,0.0,0.0,0.0,0.0,0.0,0.0,0.0,0.0,0.0,0.0,0.0,0.0,0.0,0.0,0.0,0.0,0.0,0.0,0.0,0.0,0.0,0.0,0.0,0.0,0.0,0.0,0.0,0.0,0.0,-0.1343,0.0,0.0,0.0,0.0,0.0,0.0,0.0,0.0,0.0,0.0,0.0,0.0,0.0,0.0,0.0,0.0,0.0,0.0,0.0,0.0,0.0,0.0,0.0,0.0,0.0,0.0,0.0,0.0,0.0,0.0,0.0,0.0,0.0,0.0,0.0,0.0,0.0,0.0,0.0,0.0,0.0,0.0,0.0,0.0,0.0,0.0,0.0,0.0,0.0,0.0,0.0,0.0,0.0,0.0,0.0,0.0,0.0,0.0,0.0,0.1303,0.1346,0.1427,0.1429,0.141,0.1348,0.1319,0.0,0.0,0.0,0.0,0.0,0.0,0.0,0.0,0.0,0.0,0.0,0.0,0.0,0.0,0.0,0.0,0.0,0.0,0.0,0.0,0.0,0.0,0.0,0.0,0.0,0.0,0.0,0.0,0.0,0.0,0.0,0.0,0.0,0.0,0.0,0.0,0.0,0.0,0.0,0.0,0.0,0.0,0.0,0.0,0.0,0.0,0.0,0.0,0.0,0.0,0.0,0.0,0.0,0.0,0.0,0.0,0.0,0.0,0.0,0.0,0.0,0.0,0.0,0.0,0.0,0.0,0.0,0.0,0.0,0.0,0.0,0.0,0.0,0.0,0.0,0.0,0.0,0.0,0.0,0.0,0.0,0.0,0.0,0.0,0.0,0.0,0.0,0.0,0.0,0.0,0.0,0.0,0.0,0.0,0.0,0.0,0.0,0.0,0.0,0.0,0.0,0.0,0.0,0.0,0.0,0.0,0.0,0.1283,0.1333,0.1395,0.1404,0.1395,0.1412,0.1335,0.1381,0.1496,0.0,0.0,0.0,0.0,0.0,0.0,0.0,0.0,0.0,0.0,0.0,0.0,0.0,0.0,0.0,0.0,0.0,0.0,0.0,0.0,0.0,0.0,0.0,0.0,0.0,0.0,0.0,0.0,0.0,0.0,0.0,0.0,0.0,0.0,0.0,0.0,0.0,0.0,0.1891,0.1143,0.0,0.0,0.0,0.0,0.0,0.0,0.0,0.0,-0.1766,0.0,0.0,0.0,0.0,0.0,0.0,0.0,0.0,0.0,0.0,0.0,0.0,0.0,0.0,0.0,0.0,0.0,0.0,0.0,0.0,0.0,0.0,0.0,0.0,0.0,0.0,0.0,0.0,0.0,0.0,0.0,0.0,0.0,0.0,0.0,0.0,0.0,0.0,0.0,0.0,0.0,0.0,0.0,0.0,0.0,0.0,0.0,0.0,0.0,0.0,0.0,0.0,0.0,0.0,0.0,0.0,0.1277,0.1295,0.1343,0.1403,0.1457,0.1461,0.1412,0.1335,0.1361,0.1515,0.0,0.0,0.0,0.0,0.0,0.0,0.0,0.0,0.0,0.0,0.0,0.0,0.0,0.0,0.0,0.0,0.0,0.0,0.0,0.0,0.0,0.0,0.0,0.0,0.0,0.0,0.0,0.0,0.0,0.0,0.0,0.0,0.0,0.0,0.0,0.0,0.0,0.0,0.0,0.0573,0.0058,0.0,0.0,0.0,0.0,0.0,0.0,0.0,0.0,-0.1842,0.0,0.0,0.0,0.0,0.0,0.0,0.0,0.0,0.0,0.0,0.0,0.0,0.0,0.0,0.0,0.0,0.0,0.0,0.0,0.0,0.0,0.0,0.0,0.0,0.0,0.0,0.0,0.0,0.0,0.0,0.0,0.0,0.0,0.0,0.0,0.0,0.0,0.0,0.0,0.0,0.0,0.0,0.0,0.0,0.0,0.0,0.0,0.0,0.0,0.0,0.0,0.0,0.0,0.0,0.0,0.1295,0.1345,0.1376,0.1411,0.1427,0.1428,0.1412,0.1342,0.1405,0.0,0.0,0.0,0.0,0.0,0.0,0.0,0.0,0.0,0.0,0.0,0.0,0.0,0.0,0.0,0.0,0.0,0.0,0.0,0.0,0.0,0.0,0.0,0.0,0.0,0.0,0.0,0.0,0.0,0.0,0.0,0.0,0.0,0.0,0.0,0.0,0.0,0.0,0.0,0.0,0.0461,0.002,-0.1143,0.0,0.0,0.0,0.0,0.0,0.0,-0.1658,-0.1621,0.0,0.0,0.0,0.0,0.0,0.0,0.0,0.0,0.0,0.0,0.0,0.0,0.0,0.0,0.0,0.0,0.0,0.0,0.0,0.0,0.0,0.0,0.0,0.0,0.0,0.0,0.0,0.0,0.0,0.0,0.0,0.0,0.0,0.0,0.0,0.0,0.0,0.0,0.0,0.0,0.0,0.0,0.0,0.0,0.0,0.0,0.0,0.0,0.0,0.0,0.0,0.0,0.0,0.0,0.0,0.1307,0.1343,0.1378,0.1411,0.1413,0.1413,0.1412,0.135,0.147,0.0,0.0,0.0,0.0,0.0,0.0,0.0,0.0,0.0,0.0,0.0,0.0,0.0,0.0,0.0,0.0,0.0,0.0,0.0,0.0,0.0,0.0,0.0,0.0,0.0,0.0,0.0,0.0,0.0,0.0,0.0,0.0,0.0,0.0,0.0,0.0,0.0,0.0,0.0,0.0,0.0,-0.0232,-0.1152,-0.1316,0.0,0.0,0.0,0.0,-0.1859,-0.1738,0.0,0.0,0.0,0.0,0.0,0.0,0.0,0.0,0.0,0.0,0.0,0.0,0.0,0.0,0.0,0.0,0.0,0.0,0.0,0.0,0.0,0.0,0.0,0.0,0.0,0.0,0.0,0.0,0.0,0.0,0.0,0.0,0.0,0.0,0.0,0.0,0.0,0.0,0.0,0.0,0.0,0.0,0.0,0.0,0.0,0.0,0.0,0.0,0.0,0.0,0.0,0.0,0.0,0.0,0.0,0.0,0.1294,0.1313,0.1336,0.141,0.1413,0.1413,0.1412,0.1329,0.1449,0.0,0.0,0.0,0.0,0.0,0.0,0.0,0.0,0.0,0.0,0.0,0.0,0.0,0.0,0.0,0.0,0.0,0.0,0.0,0.0,0.0,0.0,0.0,0.0,0.0,0.0,0.0,0.0,0.0,0.0,0.0,0.0,0.0,0.0,0.0,0.0,0.0,0.0,0.0,0.0,0.0,-0.1207,-0.1287,-0.1343,-0.138,0.0,0.0,-0.1602,-0.2536,-0.2645,0.0,0.0,0.0,0.0,0.0,0.0,0.0,0.0,0.0,0.0,0.0,0.0,0.0,0.0,0.0,0.0,0.0,0.0,0.0,0.0,0.0,0.0,0.0,0.0,0.0,0.0,0.0,0.0,0.0,0.0,0.0,0.0,0.0,0.0,0.0,0.0,0.0,0.0,0.0,0.0,0.0,0.0,0.0,0.0,0.0,0.0,0.0,0.0,0.0,0.0,0.0,0.0,0.0,0.0,0.0,0.1229,0.1301,0.1348,0.1371,0.141,0.1396,0.141,0.141,0.1409,0.1518,0.0,0.0,0.0,0.0,0.0,0.0,0.0,0.0,0.0,0.0,0.0,0.0,0.0,0.0,0.0,0.0,0.0,0.0,0.0,0.0,0.0,0.0,0.0,0.0,0.0,0.0,0.0,0.0,0.0,0.0,0.0,0.0,0.0,0.0,0.0,0.0,0.0,0.0,0.0,0.0,0.0,0.0,-0.1313,-0.1364,0.0,0.0,0.0,-0.1506,-0.1939,0.0,0.0,0.0,0.0,0.0,0.0,0.0,0.0,0.0,0.0,0.0,0.0,0.0,0.0,0.0,0.0,0.0,0.0,0.0,0.0,0.0,0.0,0.0,0.0,0.0,0.0,0.0,0.0,0.0,0.0,0.0,0.0,0.0,0.0,0.0,0.0,0.0,0.0,0.0,0.0,0.0,0.0,0.0,0.0,0.0,0.0,0.0,0.0,0.0,0.0,0.0,0.0,0.0,0.0,0.0,0.0,0.0,0.1322,0.1381,0.1404,0.141,0.1406,0.1412,0.1409,0.1482,0.0,0.0,0.0,0.0,0.0,0.0,0.0,0.0,0.0,0.0,0.0,0.0,0.0,0.0,0.0,0.0,0.0,0.0,0.0,0.0,0.0,0.0,0.0,0.0,0.0,0.0,0.0,0.0353,0.0,0.0,0.0,0.0,0.0,0.0,0.0,0.0,0.0,0.0,0.0,0.0,0.0,0.0,-0.0874,-0.1346,-0.1432,-0.1443,0.0,0.0,-0.1688,-0.1773,-0.22,-0.248,0.0,0.0,0.0,0.0,0.0,0.0,0.0,0.0,0.0,0.0,0.0,0.0,0.0,0.0,0.0,0.0,0.0,0.0,0.0,0.0,0.0,0.0,0.0,0.0,0.0,0.0,0.0,0.0,0.0,0.0,0.0,0.0,0.0,0.0,0.0,0.0,0.0,0.0,0.0,0.0,0.0,0.0,0.0,0.0,0.0,0.0,0.0,0.0,0.0,0.0,0.0,0.0,0.0,0.0,0.0,0.1302,0.1381,0.1405,0.1411,0.1406,0.1412,0.141,0.1526,0.1628,0.0,0.0,0.0,0.0,0.0,0.0,0.0,0.0,0.0,0.0,0.0,0.0,0.0,0.0,0.0,0.0,0.0,0.0,0.0,0.0,0.0,0.0,0.0,0.0,0.0,0.0,0.0,0.0,0.0,0.0,0.0,0.0,0.0,0.0,0.0,0.0,0.0,0.0,0.0,0.0,0.0,-0.1346,-0.1413,-0.1508,-0.1576,0.0,0.0,-0.2467,-0.2831,-0.3418,-0.3758,-0.3458,0.0,0.0,0.0,0.0,0.0,0.0,0.0,0.0,0.0,0.0,0.0,0.0,0.0,0.0,0.0,0.0,0.0,0.0,0.0,0.0,0.0,0.0,0.0,0.0,0.0,0.0,0.0,0.0,0.0,0.0,0.0,0.0,0.0,0.0,0.0,0.0,0.0,0.0,0.0,0.0,0.0,0.0,0.0,0.0,0.0,0.0,0.0,0.0,0.0,0.0,0.0,0.0,0.0,0.0,0.0559,0.057,0.0844,0.1364,0.1367,0.1343,0.1343,0.1476,0.1587,0.0,0.0,0.0,0.0,0.0,0.0,0.0,0.0,0.0,0.0,0.0,0.0,0.0,0.0,0.0,0.0,0.0,0.0,0.0,0.0,0.0,0.0,0.0,0.0,0.0,0.0,0.0,0.0,-0.0857,-0.1092,-0.1092,0.0,0.0,0.0,0.0,0.0,0.0,0.0,0.0,0.0,0.0,-0.2282,-0.2056,-0.2395,0.0,0.0,-0.2784,-0.2988,-0.309,-0.355,-0.3796,-0.3604,-0.3743,0.0,0.0,0.0,0.0,0.0,0.0,0.0,0.0,0.0,0.0,0.0,0.0,0.0,0.0,0.0,0.0,0.0,0.0,0.0,0.0,0.0,0.0,0.0,0.0,0.0,0.0,0.0,0.0,0.0,0.0,0.0,0.0,0.0,0.0,0.0,0.0,0.0,0.0,0.0,0.0,0.0,0.0,0.0,0.0,0.0,0.0,0.0,0.0,0.0,0.0,0.0,0.0,-0.0556,0.0062,0.0333,0.0744,0.1375,0.1343,0.1313,0.1312,0.1204,0.1201,0.0,0.0,0.0,0.0,0.0,0.0,0.0,0.0,0.0,0.0,0.0,0.0,0.0,0.0,0.0,0.0,0.0,0.0,0.0,0.0,0.0,0.0,0.0,0.0,0.0,0.0,0.0,0.0,-0.1395,-0.1566,-0.1772,0.0,0.0,0.0,0.0,0.0,0.0,0.0,0.0,0.0,0.0,-0.3002,-0.2733,-0.3041,-0.3301,-0.3208,-0.338,-0.3475,-0.3429,-0.3849,-0.407,-0.3829,0.0,0.0,0.0,0.0,0.0,0.0,0.0,0.0,0.0,0.0,0.0,0.0,0.0,0.0,0.0,0.0,0.0,0.0,0.0,0.0,0.0,0.0,0.0,0.0,0.0,0.0,0.0,0.0,0.0,0.0,0.229,0.0,0.0,0.0,0.0,0.0,0.0,0.0,0.0,0.0,0.0,0.0,0.0,0.0,0.0,0.0,0.0,0.0,0.0,0.0,0.0,0.0,0.0,-0.0097,0.0,0.0713,0.1249,0.1344,0.1333,0.1243,0.1242,0.0674,0.029,0.0227,0.0,0.0,0.0,0.0,0.0,0.0,0.0,0.0,0.0,0.0,0.0,0.0,0.0,0.0,0.0,0.0,0.0,0.0,0.0,0.0,0.0,0.0,0.0,0.0,0.0,0.0,-0.1646,-0.2031,-0.2257,0.0,0.0,0.0,0.0,0.0,0.0,0.0,0.0,0.0,0.0,-0.3163,-0.3307,-0.3295,-0.3353,-0.3397,-0.324,-0.366,-0.3961,-0.3916,-0.4494,-0.4812,0.0,0.0,0.0,0.0,0.0,0.0,0.0,0.0,0.0,0.0,0.0,0.0,0.0,0.0,0.0,0.0,0.0,0.0,0.0,0.0,0.0,0.0,0.0,0.0,0.0,0.0,0.0,0.3252,0.2963,0.0,0.0,0.0,0.0,0.0,0.0,0.0,0.0,0.0,0.0,0.0,0.1886,0.1659,0.0,0.0,0.0,0.0,0.0,0.0,0.0,0.0,0.0,0.0,0.0,0.0,-0.2183,-0.1735,-0.1409,-0.0954,-0.0411,-0.0374,-0.0365,-0.0365,-0.0635,-0.0898,-0.118,0.0,0.0,0.0,0.0,0.0,0.0,0.0,0.0,0.0,0.0,0.0,0.0,0.0,0.0,0.0,0.0,0.0,0.0,0.0,0.0,0.0,0.0,0.0,0.0,0.0,-0.1896,0.0,0.0,0.0,0.0,0.0,0.0,0.0,0.0,0.0,0.0,0.0,-0.3609,-0.3135,-0.3763,-0.4153,-0.383,-0.4192,-0.448,0.0,0.0,0.0,0.0,0.0,0.0,0.0,0.0,0.0,0.0,0.0,0.0,0.0,0.0,-0.464,-0.4399,-0.4297,-0.4279,-0.4279,0.0,0.0,0.0,0.0,0.0,0.0,0.0,0.0,0.0,0.0,0.0,0.0,0.0,0.0,0.0,0.0,0.2493,0.0,0.0,0.0,0.0,0.0,0.0,0.0,0.0,0.1669,0.1421,0.1352,0.1127,0.1014,0.0,0.0302,-0.0141,0.0,0.0,0.0,0.0,0.0,0.0,0.0,0.0,-0.3023,-0.2615,-0.2295,-0.1875,-0.1348,-0.1284,-0.1254,-0.1243,-0.1561,-0.1803,-0.1997,-0.1645,-0.1322,0.0,0.0,0.0,0.0,0.0,0.0,0.0,0.0,0.0,0.0,0.0,0.0,0.0,0.0,0.0,0.0,0.0,0.0,0.0,0.0,0.0,0.0,0.0,-0.2465,0.0,0.0,0.0,0.0,0.0,0.0,0.0,0.0,0.0,-0.3807,-0.4089,-0.4183,-0.3803,-0.441,-0.4767,-0.444,0.0,0.0,0.0,0.0,0.0,0.0,0.0,-0.4856,-0.479,-0.4769,-0.48,-0.4801,-0.496,-0.5098,-0.5065,0.0,0.0,-0.4698,-0.4575,-0.4556,-0.4556,-0.4581,-0.4598,-0.4598,-0.4694,-0.4784,0.0,0.0,0.0,0.0,0.0,0.0,0.0,0.0,0.2844,0.285,0.0,0.2585,0.0,0.0,0.0,0.0,0.0,0.219,0.0,0.0,0.0752,0.0101,-0.0079,-0.006,-0.0102,-0.0082,-0.0128,-0.051,-0.116,-0.0477,0.0,0.0,0.0,0.0,0.0,0.0,-0.2646,-0.2666,-0.1995,-0.1533,-0.1428,-0.1459,-0.1465,-0.1432,-0.2156,-0.2468,-0.2268,-0.2429,-0.2038,-0.1038,-0.1586,0.0,0.0,0.0,0.0,0.0,0.0,0.0,0.0,0.0,0.0,0.0,0.0,0.0,0.0,0.0,0.0,0.0,0.0,0.0,0.0,-0.2817,0.0,0.0,0.0,0.0,0.0,0.0,0.0,0.0,0.0,0.0,-0.4308,-0.4383,-0.4558,-0.4926,0.0,0.0,0.0,0.0,-0.5007,-0.5011,-0.5007,-0.5011,-0.5009,-0.5094,-0.5087,-0.4866,0.0,0.0,-0.486,-0.4974,-0.5096,-0.5032,-0.5073,-0.5145,-0.5166,-0.5071,-0.4989,-0.4993,-0.4997,-0.5009,-0.502,-0.5059,-0.5124,0.4065,0.0,0.0,0.0,0.0,0.3812,0.3674,0.3376,0.3367,0.3146,0.2779,0.2676,0.0,0.0,0.0,0.0,0.0,0.0,0.198,0.1954,0.1536,0.1304,0.121,0.0261,-0.0174,-0.0218,-0.1501,-0.1948,-0.1575,-0.1903,-0.2551,-0.3413,0.0,0.0,0.0,0.0,-0.3602,-0.371,-0.3453,-0.3256,-0.3235,-0.3205,-0.3152,-0.3077,-0.3292,-0.339,-0.3349,-0.3079,-0.2805,-0.249,-0.2373,0.0,0.0,0.0,0.0,0.0,0.0,0.0,0.0,0.0,0.0,0.0,0.0,0.0,0.0,0.0,0.0,0.0,0.0,0.0,-0.3121,-0.3307,-0.3505,0.0,0.0,0.0,0.0,0.0,0.0,0.0,0.0,0.0,-0.4761,-0.4827,-0.4879,0.0,0.0,-0.5124,-0.5086,-0.5114,-0.514,-0.514,-0.5138,0.0,0.0,-0.51,-0.5067,-0.5092,-0.5226,-0.5284,-0.5235,-0.5267,-0.5321,-0.5295,-0.5313,-0.5314,-0.5324,-0.5194,-0.51,-0.5124,-0.5216,-0.5309,-0.5343,-0.5426,-0.5431,0.3822,0.3527,0.3712,0.3756,0.3681,0.3712,0.3551,0.3238,0.3308,0.3147,0.2819,0.282,0.2706,0.2458,0.2334,0.0,0.0,0.0,0.1904,0.1907,0.0926,0.0455,0.0413,-0.0757,-0.1354,-0.1399,-0.2501,-0.2757,-0.2195,-0.3052,-0.3589,-0.3839,0.0,0.0,-0.3932,-0.3989,-0.4084,-0.4188,-0.4131,-0.4103,-0.4089,-0.3944,-0.3877,-0.3806,-0.3817,-0.3841,-0.3804,-0.3405,-0.315,-0.3103,-0.2863,-0.2549,0.0,0.0,0.0,0.0,0.0,0.0,0.0,0.0,0.0,0.0,0.0,-0.2423,-0.2662,0.0,0.0,0.0,-0.355,-0.3613,-0.3746,-0.3932,0.0,0.0,0.0,0.0,0.0,0.0,0.0,-0.4544,-0.4733,-0.4962,-0.5288,-0.5374,-0.5379,-0.5258,-0.5308,-0.5341,-0.5351,0.0,-0.5528,-0.5565,-0.5569,-0.5528,-0.5454,-0.5366,-0.5305,-0.5282,-0.5343,-0.5407,-0.5409,-0.5409,-0.5409,-0.5409,-0.5409,-0.5409,-0.5409,-0.529,-0.523,-0.5262,-0.5341,-0.5457,-0.5514,-0.5605,-0.5677,0.3555,0.3174,0.3767,0.3815,0.3469,0.3475,0.322,0.2839,0.29,0.2948,0.2988,0.2989,0.2827,0.2529,0.224,0.0,0.1972,0.1836,0.1697,0.1496,-0.053,-0.148,-0.1553,-0.2579,-0.3105,-0.3105,-0.3199,-0.316,-0.3088,-0.3894,-0.4208,-0.4019,-0.3293,-0.329,-0.3987,-0.413,-0.422,-0.4205,-0.4259,-0.4257,-0.4195,-0.3999,-0.3889,-0.3809,-0.3887,-0.3871,-0.3813,-0.3522,-0.3286,-0.3183,-0.3158,-0.298,-0.2603,0.0,0.0,0.0,0.0,0.0,0.0,0.0,0.0,0.0,0.0,0.0,0.0,0.0,0.0,0.0,-0.4443,0.0,-0.434,-0.4557,0.0,0.0,0.0,-0.47,-0.4673,-0.493,-0.5094,-0.5101,0.0,0.0,-0.5807,-0.5941,-0.5914,-0.5524,-0.5581,-0.569,-0.5728,-0.5921,-0.6051,-0.6097,-0.6111,-0.6037,-0.5875,-0.5852,-0.5759,-0.5566,-0.5465,-0.5465,-0.5437,-0.5412,-0.5412,-0.5409,-0.5409,-0.5416,-0.539,-0.5388,-0.5392,-0.543,-0.5457,-0.5535,-0.5605,-0.5718,-0.5798,0.3344,0.3184,0.3352,0.3332,0.32,0.3199,0.3115,0.3037,0.3094,0.3101,0.3052,0.2814,0.2519,0.2208,0.197,0.1872,0.1846,0.1692,0.1187,0.0393,-0.0148,-0.0793,-0.1616,-0.2659,-0.318,-0.323,-0.4,-0.4337,-0.4209,-0.4438,-0.4416,-0.4222,-0.4034,-0.4005,-0.4166,-0.4184,-0.4225,-0.4269,-0.4312,-0.4259,-0.4197,-0.4063,-0.3973,-0.395,-0.3971,-0.3973,-0.395,-0.3886,-0.3826,-0.3787,-0.3785,-0.3619,-0.3204,-0.3233,0.0,0.0,0.0,0.0,0.0,0.0,0.0,0.0,0.0,-0.3613,-0.3989,0.0,-0.4332,0.0,-0.4633,-0.4653,-0.4553,-0.4637,0.0,0.0,-0.4936,-0.4954,-0.5179,-0.5173,-0.5186,-0.5244,-0.5437,-0.5618,-0.5774,-0.5839,-0.5891,-0.5934,-0.6042,-0.6125,-0.6151,-0.6228,-0.6291,-0.6276,-0.6321,-0.6327,-0.6266,-0.627,-0.6219,-0.6091,-0.5882,-0.5712,-0.5712,-0.5521,-0.5409,-0.5409,-0.5409,-0.5434,-0.5496,-0.5478,-0.5504,-0.553,-0.5514,-0.5557,-0.5712,-0.5765,-0.5806,0.3235,0.3205,0.3205,0.3166,0.3132,0.3142,0.3155,0.3133,0.319,0.3117,0.2959,0.2519,0.2225,0.204,0.1822,0.1429,0.1003,0.0939,0.03,-0.0705,-0.1209,-0.1737,-0.2343,-0.3399,-0.3902,-0.3925,-0.4497,-0.4708,-0.4599,-0.4556,-0.4484,-0.448,-0.4478,-0.4497,-0.4559,-0.4472,-0.4451,-0.4478,-0.4565,-0.4564,-0.4519,-0.4423,-0.4331,-0.4183,-0.42,-0.4138,-0.3994,-0.4054,-0.404,-0.396,-0.3954,-0.3849,-0.362,-0.3598,-0.3589,0.0,0.0,0.0,0.0,0.0,0.0,0.0,0.0,0.0,0.0,0.0,-0.4575,-0.4691,-0.4915,-0.5002,-0.4877,-0.5032,-0.5213,-0.5403,-0.5326,-0.533,-0.5502,-0.5629,-0.5672,-0.5661,-0.5891,-0.6101,-0.6149,-0.6225,-0.6275,-0.6377,-0.6472,-0.6478,-0.6421,-0.6596,-0.6753,-0.67,-0.6753,-0.6784,-0.6712,-0.6536,-0.6422,-0.641,-0.6228,-0.6097,-0.6142,-0.6037,-0.5928,-0.5954,-0.5928,-0.5941,-0.5963,-0.5972,-0.5994,-0.6026,-0.6011,-0.5948,-0.5839,-0.593,-0.6047,0.3212,0.3205,0.3205,0.3209,0.3217,0.3184,0.3155,0.3205,0.3155,0.2978,0.2649,0.2223,0.1996,0.192,0.1566,0.0883,0.0,-0.0151,-0.0781,-0.1839,-0.2771,-0.3272,-0.345,-0.4356,-0.4782,-0.478,-0.4724,-0.4663,-0.4619,-0.4515,-0.4566,-0.4705,-0.4759,-0.4869,-0.501,-0.4878,-0.4784,-0.4748,-0.4901,-0.4968,-0.4906,-0.4904,-0.4772,-0.4516,-0.4508,-0.4385,-0.4096,-0.4168,-0.4137,-0.3963,-0.3971,-0.395,-0.395,-0.3961,-0.3969,0.0,-0.4053,0.0,0.0,0.0,0.0,0.0,0.0,0.0,0.0,-0.4882,-0.4884,-0.4869,-0.5309,-0.5529,-0.5332,-0.5601,-0.5777,-0.5774,-0.5797,-0.578,-0.5852,-0.6116,-0.6286,-0.626,-0.6578,-0.6769,-0.6741,-0.6781,-0.681,-0.6803,-0.6758,-0.669,-0.6596,-0.6895,-0.7157,-0.7196,-0.7247,-0.7189,-0.7067,-0.6778,-0.6594,-0.6669,-0.6561,-0.652,-0.6638,-0.6601,-0.6574,-0.6574,-0.6536,-0.6579,-0.6625,-0.6632,-0.6608,-0.6604,-0.6575,-0.6446,-0.612,-0.6169,-0.6381,0.325,0.3206,0.3205,0.3235,0.3248,0.2972,0.3004,0.318,0.2953,0.26,0.2147,0.2047,0.1895,0.1592,0.0706,0.0176,-0.005,-0.0907,-0.1865,-0.2897,-0.3123,-0.3676,-0.4481,-0.4684,-0.4782,-0.4803,-0.4724,-0.4661,-0.4597,-0.4787,-0.485,-0.4785,-0.5113,-0.5227,-0.5189,0.0,0.0,0.0,-0.4988,-0.5001,-0.4984,-0.4982,-0.495,-0.4885,-0.4754,0.0,-0.4564,-0.4378,-0.4281,-0.4226,-0.4224,0.0,0.0,0.0,0.0,0.0,0.0,0.0,0.0,0.0,0.0,0.0,-0.5419,-0.5363,-0.543,-0.582,-0.5964,-0.5719,-0.6011,-0.613,-0.5957,-0.6129,-0.6279,-0.6254,-0.6276,-0.6321,-0.6477,-0.6441,-0.6556,-0.7023,-0.6934,-0.6952,-0.7226,-0.702,-0.6859,-0.6927,-0.676,-0.6634,-0.6609,-0.6924,-0.7136,-0.7054,-0.7209,-0.7276,-0.7174,-0.7123,-0.7088,-0.7132,-0.6958,-0.6869,-0.6968,-0.6791,-0.6613,-0.6618,-0.6581,-0.6647,-0.6753,-0.6742,-0.6826,-0.6852,-0.6866,-0.6789,-0.6637,-0.6653,-0.6742,0.3003,0.0,0.2952,0.2944,0.0,0.2126,0.1891,0.2043,0.2447,0.2068,0.1161,0.0504,0.0151,0.0,-0.0554,-0.1083,-0.1611,-0.2141,-0.2972,-0.3979,-0.3979,-0.4279,-0.4782,-0.4782,-0.4782,-0.478,-0.4724,-0.4756,-0.4853,-0.4947,-0.5087,-0.5251,-0.5442,-0.5583,-0.5645,-0.5729,-0.562,-0.5349,-0.5349,-0.5349,-0.5349,-0.5349,-0.5305,-0.5213,0.0,0.0,0.0,0.0,0.0,0.0,0.0,0.0,0.0,0.0,0.0,-0.4254,-0.4476,-0.4651,-0.4737,-0.5002,-0.5376,-0.5849,-0.6069,-0.6143,-0.6006,-0.6238,-0.6313,-0.6187,-0.6304,-0.6365,-0.6257,-0.6343,-0.6406,-0.6406,-0.6406,-0.6483,-0.665,-0.6702,-0.6873,-0.7201,-0.7174,-0.7195,-0.7462,-0.7226,-0.7021,-0.7077,-0.6988,-0.6839,-0.6737,-0.6866,-0.701,-0.7089,-0.7271,-0.7404,-0.7347,-0.732,-0.7332,-0.7344,-0.7234,-0.7188,-0.737,-0.7254,-0.7181,-0.7227,-0.7245,-0.7268,-0.7311,-0.7329,-0.7377,-0.737,-0.7385,-0.7403,-0.7342,-0.7211,-0.7104,0.2661,0.2422,0.2649,0.2507,0.2036,0.109,0.0582,0.0405,0.0,0.0,0.0,-0.1136,-0.1588,-0.1613,-0.1789,-0.2368,-0.3198,-0.3399,-0.3954,-0.4784,-0.4782,-0.4782,-0.4782,-0.4782,-0.4782,-0.4778,-0.4771,-0.4903,-0.509,-0.513,-0.5351,-0.5707,-0.5778,-0.5879,-0.6048,-0.5934,-0.5805,-0.5716,-0.571,-0.571,-0.571,-0.571,-0.5621,-0.5441,-0.5394,-0.5218,-0.4862,-0.4792,-0.461,-0.4331,-0.4291,-0.4269,-0.424,-0.4225,-0.4248,-0.438,-0.4592,-0.4859,-0.5055,-0.5347,-0.5735,-0.6226,-0.6675,-0.6796,-0.6501,-0.6498,-0.6498,-0.6476,-0.6495,-0.6498,-0.6473,-0.652,-0.6517,-0.6517,-0.6542,-0.6658,-0.6824,-0.6961,-0.7183,-0.7456,-0.7518,-0.7558,-0.7682,-0.7521,-0.7309,-0.7278,-0.7253,-0.716,-0.6924,-0.6818,-0.6858,-0.71,-0.7249,-0.7376,-0.7429,-0.7361,-0.7327,-0.7414,-0.7365,-0.7392,-0.76,-0.7671,-0.7706,-0.7722,-0.7837,-0.7804,-0.7859,-0.7795,-0.7878,-0.7897,-0.7903,-0.7903,-0.7872,-0.7689,-0.7503,0.2428,0.2422,0.2447,0.1898,0.1001,0.0545,-0.0284,-0.1286,-0.0887,-0.0965,-0.1416,-0.1522,-0.1588,-0.1639,-0.2569,-0.3073,-0.3249,-0.4155,-0.4659,0.0,-0.4782,-0.4782,-0.4782,-0.4782,-0.4782,-0.4801,-0.4966,-0.507,-0.5141,-0.5565,-0.5824,-0.5872,-0.6096,-0.6114,-0.5937,-0.5792,-0.5727,-0.571,-0.571,-0.571,-0.571,-0.571,-0.5688,-0.5666,-0.5485,-0.5371,-0.5305,-0.508,-0.4892,-0.4715,-0.4665,-0.4542,-0.4389,-0.4322,-0.4401,-0.4636,-0.4835,-0.5077,-0.5327,-0.5772,-0.6244,-0.683,-0.7138,-0.715,-0.6805,-0.6899,-0.6922,-0.677,-0.6881,-0.6922,-0.6792,-0.6877,-0.6985,-0.6995,-0.7149,-0.7305,-0.7426,-0.7375,-0.76,-0.8188,-0.8036,-0.7949,-0.8203,-0.8092,-0.7817,-0.762,-0.7491,-0.7389,-0.7165,-0.6859,-0.6765,-0.6942,-0.7062,-0.71,-0.7287,-0.7226,-0.7256,-0.7313,-0.7305,-0.7345,-0.75,-0.7529,-0.7546,-0.7573,-0.7595,-0.7627,-0.7709,-0.7728,-0.7774,-0.7875,-0.7903,-0.7903,-0.7903,-0.7841,-0.7811,0.2113,0.1919,0.1487,0.0921,0.021,-0.1181,-0.2442,-0.3487,-0.3347,-0.2985,-0.2597,-0.3082,-0.3324,-0.3374,-0.3853,-0.4079,-0.4103,-0.4583,-0.4782,-0.4782,-0.4782,-0.4782,-0.4782,-0.4782,-0.4885,-0.5035,-0.5121,-0.532,-0.557,-0.5839,-0.6012,-0.6155,-0.6274,-0.6172,-0.5915,-0.583,-0.5773,-0.5713,-0.571,-0.571,-0.571,-0.571,-0.571,-0.571,-0.5621,-0.5508,-0.5394,-0.5282,-0.5124,-0.4926,-0.4882,-0.4811,-0.4739,-0.4775,-0.4802,-0.4864,-0.5135,-0.5345,-0.5396,-0.6034,-0.6542,-0.6876,-0.7193,-0.7283,-0.6976,-0.7029,-0.711,-0.712,-0.7127,-0.7073,-0.6966,-0.7051,-0.7117,-0.7117,-0.7278,-0.7454,-0.7584,-0.763,-0.7867,-0.8344,-0.8176,-0.8104,-0.8455,-0.824,-0.8008,-0.7816,-0.7686,-0.751,-0.7428,-0.7139,-0.7047,-0.7263,-0.7452,-0.7557,-0.7612,-0.7425,-0.7339,-0.736,-0.7169,-0.7158,-0.7271,-0.7351,-0.7406,-0.7491,-0.7516,-0.7568,-0.7671,-0.7703,-0.7752,-0.787,-0.7903,-0.7903,-0.7903,-0.8027,-0.8089,0.1842,0.1516,0.0656,-0.0127,-0.1012,-0.301,-0.4328,-0.5045,-0.5,-0.4459,-0.3732,-0.4431,-0.4782,-0.4782,-0.4782,-0.4782,-0.4782,-0.4782,-0.4782,-0.4782,-0.4782,-0.4782,-0.4782,-0.4782,-0.496,-0.5165,-0.5265,-0.5541,-0.5967,-0.6042,-0.6186,-0.6377,-0.6295,-0.6142,-0.5978,-0.59,-0.5811,-0.5751,-0.5702,-0.571,-0.571,-0.571,-0.571,-0.571,-0.571,-0.5621,-0.5463,-0.5463,-0.5372,-0.5167,-0.5104,-0.5077,-0.5079,-0.5159,-0.5177,-0.5155,-0.5446,-0.5657,-0.5757,-0.6399,-0.6866,-0.7015,-0.7282,-0.7387,-0.7279,-0.7149,-0.7164,-0.7285,-0.7159,-0.7095,-0.7095,-0.7095,-0.7131,-0.7168,-0.7295,-0.7454,-0.758,-0.7699,-0.7936,-0.8309,-0.8201,-0.8093,-0.8323,-0.8265,-0.8125,-0.8069,-0.7841,-0.7693,-0.7671,-0.7534,-0.7563,-0.7692,-0.7836,-0.781,-0.7883,-0.7654,-0.7463,-0.7448,-0.7224,-0.7203,-0.7314,-0.7368,-0.7413,-0.7595,-0.7628,-0.7679,-0.7753,-0.7801,-0.787,-0.797,-0.8059,-0.8107,-0.8175,-0.8363,-0.8336,0.1619,0.1439,0.0429,-0.1196,-0.3138,-0.4408,-0.4958,-0.5018,-0.5001,-0.4895,-0.4663,-0.4757,-0.4809,-0.4782,-0.4782,-0.4782,-0.4782,-0.4782,-0.4782,-0.4782,-0.4782,-0.4782,-0.4782,-0.4782,-0.4935,-0.519,-0.5436,-0.5714,-0.6042,-0.6264,-0.6402,-0.6376,-0.6224,-0.6186,-0.621,-0.5896,-0.5773,-0.5882,-0.5762,-0.571,-0.571,-0.571,-0.571,-0.571,-0.5713,-0.571,-0.5674,-0.5666,-0.5652,-0.5642,-0.5461,-0.5353,-0.5286,-0.5243,-0.5308,-0.553,-0.565,-0.5965,-0.6599,-0.6926,-0.7243,-0.7647,-0.7597,-0.7611,-0.7661,-0.7318,-0.7102,-0.7148,-0.7134,-0.7121,-0.7117,-0.7121,-0.7164,-0.7295,-0.7372,-0.7457,-0.756,-0.7607,-0.779,-0.8264,-0.8104,-0.8081,-0.8291,-0.8359,-0.8343,-0.8213,-0.8021,-0.7894,-0.7877,-0.7994,-0.8067,-0.8083,-0.7859,-0.7591,-0.7663,-0.7628,-0.7587,-0.7587,-0.7548,-0.7514,-0.7582,-0.7675,-0.778,-0.7824,-0.7919,-0.7915,-0.7961,-0.805,-0.8133,-0.8118,-0.8281,-0.8552,-0.8721,-0.8821,-0.8635,0.1465,0.144,-0.0252,-0.2266,-0.4304,-0.5069,-0.5295,-0.5236,-0.5412,-0.5405,-0.5292,-0.5261,-0.511,-0.4809,-0.4782,-0.4782,-0.4782,-0.4782,-0.4782,-0.4782,-0.4782,-0.4782,-0.4782,-0.4782,-0.4935,-0.5215,-0.5486,-0.5809,-0.6262,-0.6664,-0.6842,-0.6801,-0.6738,-0.6567,-0.6314,-0.6133,-0.5989,-0.5781,-0.5712,-0.571,-0.5719,-0.5778,-0.5811,-0.5813,-0.5811,-0.5811,-0.5811,-0.5811,-0.5814,-0.581,-0.5812,-0.582,-0.5774,-0.5821,-0.5876,-0.5909,-0.6077,-0.634,-0.6773,-0.7134,-0.744,-0.7672,-0.7634,-0.7594,-0.755,-0.738,-0.7275,-0.7265,-0.7171,-0.7148,-0.7255,-0.7193,-0.7122,-0.7212,-0.7312,-0.7427,-0.7455,-0.7648,-0.7841,-0.8054,-0.7976,-0.7976,-0.8223,-0.8238,-0.8138,-0.8048,-0.7976,-0.7959,-0.7814,-0.7977,-0.8075,-0.7996,-0.7775,-0.7819,-0.7991,-0.791,-0.782,-0.7717,-0.7532,-0.7439,-0.7639,-0.7671,-0.7737,-0.7971,-0.8026,-0.8039,-0.798,-0.8089,-0.818,-0.8203,-0.8306,-0.8526,-0.858,-0.8892,-0.8885,0.1212,0.1035,-0.0907,-0.3097,-0.5144,-0.5421,-0.5492,-0.5479,-0.5651,-0.5682,-0.5589,-0.5584,-0.5386,-0.506,-0.501,-0.5035,-0.501,-0.501,-0.496,-0.491,-0.491,-0.491,-0.4885,-0.491,-0.5087,-0.5391,-0.5639,-0.5987,-0.6514,-0.6961,-0.7193,-0.7176,-0.7133,-0.6891,-0.6537,-0.6395,-0.6184,-0.5911,-0.5827,-0.5808,-0.5821,-0.5912,-0.5937,-0.5904,-0.5874,-0.5871,-0.5901,-0.5901,-0.5918,-0.5953,-0.604,-0.6126,-0.6162,-0.6243,-0.6289,-0.6291,-0.6469,-0.6709,-0.7002,-0.7333,-0.7592,-0.7682,-0.7655,-0.7576,-0.7478,-0.742,-0.7416,-0.7447,-0.7333,-0.7303,-0.7416,-0.7333,-0.7263,-0.73,-0.7407,-0.7457,-0.7478,-0.7641,-0.7776,-0.7912,-0.7824,-0.7848,-0.8062,-0.8048,-0.7922,-0.7841,-0.7885,-0.7871,-0.7699,-0.779,-0.7912,-0.7807,-0.7824,-0.7962,-0.8235,-0.8024,-0.7845,-0.7779,-0.7548,-0.75,-0.7675,-0.7729,-0.7893,-0.8236,-0.8199,-0.8213,-0.8283,-0.8322,-0.8367,-0.832,-0.8408,-0.857,-0.8724,-0.9087,-0.9242,0.0833,0.0505,-0.146,-0.3575,-0.5546,-0.5605,-0.5603,-0.5605,-0.5623,-0.5641,-0.5634,-0.5609,-0.5584,-0.5559,-0.5561,-0.5561,-0.5534,-0.5534,-0.5386,-0.519,-0.5165,-0.519,-0.5165,-0.519,-0.5441,-0.5842,-0.5964,-0.6267,-0.6795,-0.7064,-0.727,-0.7392,-0.7243,-0.7061,-0.6906,-0.6655,-0.6433,-0.6279,-0.6175,-0.6077,-0.6106,-0.6114,-0.6065,-0.5972,-0.5781,-0.5806,-0.5919,-0.5904,-0.5979,-0.607,-0.6139,-0.6196,-0.6295,-0.6344,-0.6464,-0.6724,-0.6794,-0.7018,-0.7462,-0.7592,-0.7717,-0.79,-0.778,-0.76,-0.7587,-0.7531,-0.7518,-0.7577,-0.7587,-0.7567,-0.7597,-0.7553,-0.7563,-0.7668,-0.7641,-0.7587,-0.758,-0.7594,-0.7672,-0.777,-0.7709,-0.7702,-0.7824,-0.7828,-0.7821,-0.7801,-0.779,-0.7763,-0.7655,-0.7726,-0.7804,-0.7824,-0.7875,-0.7962,-0.7875,-0.781,-0.7698,-0.7658,-0.7702,-0.776,-0.7953,-0.8143,-0.8353,-0.8518,-0.8544,-0.8594,-0.8659,-0.8726,-0.8734,-0.8727,-0.8722,-0.8825,-0.8867,-0.9302,-0.9476,-0.0151,-0.131,-0.2064,-0.3621,-0.5534,-0.5789,-0.5839,-0.5889,-0.6034,-0.6112,-0.6109,-0.6112,-0.6112,-0.6087,-0.6112,-0.5934,-0.5609,-0.5584,-0.5534,-0.5461,-0.5438,-0.5463,-0.5463,-0.5463,-0.5536,-0.5762,-0.6089,-0.6614,-0.7269,-0.759,-0.7738,-0.7751,-0.771,-0.7503,-0.7171,-0.7001,-0.6826,-0.6599,-0.6499,-0.6543,-0.6582,-0.6605,-0.6641,-0.6641,-0.6268,-0.6222,-0.6482,-0.6464,-0.6485,-0.6558,-0.6707,-0.6822,-0.6863,-0.6872,-0.6914,-0.7058,-0.7219,-0.7397,-0.7572,-0.7768,-0.7892,-0.7975,-0.8004,-0.7904,-0.7801,-0.7831,-0.7872,-0.776,-0.7807,-0.7851,-0.7817,-0.7716,-0.7617,-0.7655,-0.7634,-0.7611,-0.7597,-0.76,-0.7624,-0.7658,-0.7624,-0.7628,-0.7662,-0.7678,-0.7678,-0.7685,-0.7753,-0.7695,-0.7573,-0.7726,-0.7888,-0.7838,-0.7827,-0.7851,-0.7834,-0.7787,-0.7733,-0.7685,-0.7692,-0.7746,-0.7888,-0.8167,-0.8359,-0.8423,-0.8571,-0.8727,-0.8696,-0.8635,-0.8747,-0.8787,-0.8814,-0.8892,-0.9005,-0.9266,-0.9456,-0.0882,-0.2517,-0.2669,-0.3897,-0.5784,-0.6037,-0.6139,-0.6139,-0.6314,-0.6412,-0.6412,-0.6412,-0.6412,-0.6412,-0.6412,-0.6212,-0.5887,-0.5862,-0.5809,-0.5737,-0.5737,-0.5737,-0.5737,-0.5737,-0.5839,-0.6064,-0.6539,-0.7092,-0.7572,-0.7864,-0.7942,-0.7864,-0.7867,-0.7648,-0.7255,-0.7203,-0.7081,-0.6891,-0.6855,-0.691,-0.6981,-0.6974,-0.7065,-0.7164,-0.6823,-0.6698,-0.6896,-0.6905,-0.6878,-0.6909,-0.7094,-0.721,-0.721,-0.721,-0.7235,-0.7338,-0.749,-0.7646,-0.7743,-0.7992,-0.8088,-0.8006,-0.8101,-0.8087,-0.7838,-0.7963,-0.7963,-0.7869,-0.7922,-0.7988,-0.7979,-0.7834,-0.7719,-0.7743,-0.7716,-0.7719,-0.7655,-0.7716,-0.7692,-0.7628,-0.7604,-0.76,-0.7604,-0.7648,-0.7648,-0.7614,-0.7719,-0.7685,-0.7499,-0.7689,-0.7912,-0.782,-0.7868,-0.7844,-0.7834,-0.7794,-0.7665,-0.7604,-0.758,-0.7665,-0.7763,-0.8052,-0.8252,-0.8323,-0.8476,-0.8635,-0.8699,-0.8617,-0.8611,-0.8672,-0.873,-0.8801,-0.8957,-0.9106,-0.9286,-0.1235,-0.3047,-0.32,-0.4379,-0.6209,-0.6362,-0.6387,-0.6387,-0.6387,-0.6412,-0.6412,-0.6412,-0.6412,-0.6437,-0.6464,-0.6412,-0.6412,-0.6409,-0.6239,-0.6039,-0.5992,-0.5992,-0.5992,-0.6014,-0.6242,-0.6692,-0.7269,-0.7543,-0.7568,-0.7764,-0.7817,-0.7618,-0.7593,-0.7468,-0.7189,-0.7202,-0.7198,-0.7171,-0.7202,-0.7214,-0.7192,-0.7195,-0.729,-0.7536,-0.7345,-0.7176,-0.7151,-0.7124,-0.7136,-0.713,-0.7208,-0.7207,-0.7263,-0.7285,-0.7363,-0.7543,-0.7618,-0.7743,-0.7967,-0.8209,-0.8209,-0.8074,-0.8129,-0.8111,-0.7897,-0.7862,-0.7886,-0.7862,-0.7929,-0.7988,-0.7988,-0.7961,-0.7944,-0.7982,-0.7962,-0.7908,-0.7851,-0.7884,-0.7891,-0.7624,-0.756,-0.7587,-0.7617,-0.7611,-0.7621,-0.7631,-0.7695,-0.7716,-0.7519,-0.7706,-0.7807,-0.7831,-0.7891,-0.7925,-0.7854,-0.7794,-0.7648,-0.7508,-0.7495,-0.7522,-0.7516,-0.7709,-0.7892,-0.8004,-0.8349,-0.8523,-0.8743,-0.8682,-0.8676,-0.871,-0.8727,-0.8788,-0.8872,-0.9035,-0.9169,-0.1261,-0.3123,-0.32,-0.4429,-0.6287,-0.6412,-0.6412,-0.6412,-0.6412,-0.6412,-0.6412,-0.6412,-0.6514,-0.6642,-0.6667,-0.6764,-0.6936,-0.6936,-0.6714,-0.6339,-0.6287,-0.6262,-0.6264,-0.6264,-0.6464,-0.6817,-0.7141,-0.7338,-0.7338,-0.7416,-0.7388,-0.7338,-0.7313,-0.7242,-0.707,-0.7226,-0.7348,-0.7373,-0.7516,-0.7656,-0.7723,-0.7718,-0.7771,-0.7851,-0.7796,-0.7754,-0.7738,-0.7649,-0.7597,-0.7572,-0.7682,-0.7764,-0.7739,-0.7739,-0.7789,-0.7867,-0.7892,-0.7892,-0.7992,-0.8091,-0.8113,-0.8056,-0.8213,-0.8195,-0.8019,-0.8111,-0.8108,-0.7988,-0.7989,-0.7988,-0.7988,-0.7988,-0.7988,-0.7988,-0.7988,-0.8,-0.7929,-0.7814,-0.7634,-0.7498,-0.735,-0.7313,-0.7404,-0.7451,-0.7452,-0.758,-0.7645,-0.7641,-0.7692,-0.7756,-0.7935,-0.7931,-0.8003,-0.7983,-0.7902,-0.7824,-0.7736,-0.757,-0.7515,-0.737,-0.736,-0.7411,-0.7577,-0.7976,-0.8299,-0.8631,-0.8809,-0.9022,-0.919,-0.8961,-0.8985,-0.8951,-0.8876,-0.9033,-0.9342,-0.1206,-0.3066,-0.3115,-0.4382,-0.6275,-0.6347,-0.6374,-0.6406,-0.6412,-0.6412,-0.6412,-0.6514,-0.6617,-0.6795,-0.6917,-0.7039,-0.7185,-0.721,-0.7036,-0.6711,-0.6564,-0.6514,-0.6437,-0.6514,-0.6642,-0.6817,-0.7089,-0.721,-0.721,-0.721,-0.7163,-0.7064,-0.7039,-0.7006,-0.6953,-0.7186,-0.7358,-0.7486,-0.7756,-0.7918,-0.7968,-0.7988,-0.7988,-0.7988,-0.7988,-0.7988,-0.8006,-0.7922,-0.7871,-0.7885,-0.7944,-0.7985,-0.7988,-0.7988,-0.7988,-0.7988,-0.7988,-0.7988,-0.8013,-0.8113,-0.8088,-0.8088,-0.8262,-0.8283,-0.8113,-0.8187,-0.8137,-0.8038,-0.7988,-0.7988,-0.7988,-0.7988,-0.7988,-0.7988,-0.7988,-0.7988,-0.7979,-0.7824,-0.7668,-0.7553,-0.7428,-0.7383,-0.7397,-0.7458,-0.7397,-0.7526,-0.7611,-0.7617,-0.7706,-0.776,-0.782,-0.7878,-0.7885,-0.7885,-0.7912,-0.7868,-0.7817,-0.7675,-0.756,-0.7373,-0.7232,-0.7319,-0.7444,-0.8385,-0.8903,-0.9591,-0.9879,-1.0297,-1.0493,-0.9992,-0.9428,-0.9354,-0.9398,-0.9622,-0.995,-0.1169,-0.2911,-0.3005,-0.4274,-0.6184,-0.6295,-0.6331,-0.6387,-0.6437,-0.6464,-0.6489,-0.6714,-0.6845,-0.692,-0.7141,-0.7263,-0.726,-0.731,-0.7288,-0.7163,-0.6967,-0.6767,-0.6539,-0.6667,-0.6745,-0.6792,-0.7014,-0.7113,-0.7061,-0.7061,-0.7014,-0.6792,-0.6767,-0.6767,-0.6797,-0.7036,-0.7276,-0.7524,-0.7801,-0.7957,-0.7988,-0.7988,-0.7988,-0.7988,-0.7988,-0.7988,-0.7985,-0.7996,-0.7975,-0.7985,-0.8006,-0.7988,-0.7988,-0.7988,-0.7988,-0.7988,-0.7988,-0.7988,-0.8038,-0.8184,-0.8237,-0.8038,-0.8187,-0.8283,-0.8066,-0.8038,-0.8038,-0.8013,-0.7988,-0.7988,-0.7988,-0.7988,-0.7988,-0.7988,-0.7988,-0.7988,-0.8003,-0.7871,-0.7787,-0.7753,-0.7682,-0.7577,-0.7536,-0.7617,-0.755,-0.7499,-0.7587,-0.7587,-0.756,-0.7597,-0.7604,-0.7668,-0.7763,-0.7756,-0.7776,-0.7787,-0.7832,-0.8286,-0.8112,-0.7906,-0.7766,-0.7836,-0.8237,-0.9096,-0.9695,-1.0409,-1.0853,-1.1102,-1.1146,-1.0666,-1.0266,-1.0019,-1.0162,-1.0543,-1.086,-0.1181,-0.2946,-0.2994,-0.4214,-0.6027,-0.6249,-0.6309,-0.6372,-0.6606,-0.6667,-0.6742,-0.6967,-0.7191,-0.7394,-0.7469,-0.759,-0.7715,-0.7764,-0.7665,-0.7497,-0.7447,-0.7119,-0.6767,-0.6745,-0.6692,-0.6589,-0.6767,-0.6789,-0.6612,-0.6661,-0.6587,-0.6514,-0.6539,-0.6514,-0.6539,-0.6792,-0.7042,-0.7316,-0.7565,-0.7821,-0.7963,-0.7988,-0.7988,-0.7988,-0.7988,-0.7988,-0.7988,-0.7988,-0.7988,-0.7988,-0.7988,-0.7988,-0.7988,-0.7988,-0.7988,-0.7988,-0.7988,-0.7988,-0.8013,-0.8063,-0.8066,-0.8013,-0.8088,-0.8091,-0.8013,-0.7988,-0.7988,-0.7988,-0.7988,-0.7988,-0.7988,-0.7988,-0.7988,-0.7988,-0.7988,-0.7988,-0.7965,-0.7885,-0.7814,-0.779,-0.76,-0.7515,-0.7478,-0.7411,-0.738,-0.7383,-0.7464,-0.7579,-0.763,-0.7667,-0.7752,-0.767,-0.7692,-0.7648,-0.7662,-0.7658,-0.798,-0.8742,-0.8874,-0.8848,-0.8877,-0.9085,-0.9773,-1.0632,-1.0738,-1.1274,-1.1322,-1.144,-1.1277,-1.158,-1.1563,-1.1579,-1.1651,-1.191,-1.2114,-0.116,-0.2957,-0.2956,-0.4128,-0.593,-0.6162,-0.6243,-0.636,-0.6638,-0.6795,-0.687,-0.7191,-0.7441,-0.7618,-0.7718,-0.7842,-0.7988,-0.7988,-0.7917,-0.7768,-0.7643,-0.7294,-0.6895,-0.6692,-0.6539,-0.6437,-0.6564,-0.6539,-0.6437,-0.6412,-0.6412,-0.6412,-0.6412,-0.6412,-0.6437,-0.6667,-0.6942,-0.7188,-0.7466,-0.7746,-0.7963,-0.7988,-0.7988,-0.7988,-0.7988,-0.7988,-0.7988,-0.7988,-0.7988,-0.7988,-0.7988,-0.7988,-0.7988,-0.7988,-0.7988,-0.7988,-0.7988,-0.7988,-0.7988,-0.7988,-0.7988,-0.7988,-0.7988,-0.7988,-0.7988,-0.7988,-0.7988,-0.7988,-0.7988,-0.7988,-0.7988,-0.7988,-0.7988,-0.7988,-0.7988,-0.7988,-0.7988,-0.7942,-0.7891,-0.7827,-0.7712,-0.7549,-0.7505,-0.738,-0.7316,-0.7302,-0.7362,-0.7643,-0.7894,-0.7934,-0.8108,-0.8245,-0.8244,-0.8344,-0.8471,-0.8505,-0.8812,-0.9476,-1.0209,-1.009,-1.0013,-1.027,-1.0782,-1.1404,-1.1693,-1.2011,-1.2218,-1.2537,-1.2982,-1.322,-1.3175,-1.292,-1.2783,-1.31,-1.3332,-0.1147,-0.2897,-0.2901,-0.4051,-0.5751,-0.6066,-0.6192,-0.633,-0.6707,-0.687,-0.6967,-0.7422,-0.7643,-0.7671,-0.7867,-0.7988,-0.7988,-0.7988,-0.7988,-0.7892,-0.7721,-0.7319,-0.6917,-0.6642,-0.6489,-0.6412,-0.6412,-0.6412,-0.6412,-0.6412,-0.6412,-0.6412,-0.6412,-0.6412,-0.6437,-0.6642,-0.6864,-0.7113,-0.7369,-0.7643,-0.7864,-0.7963,-0.7988,-0.7988,-0.7988,-0.7988,-0.7988,-0.7988,-0.7988,-0.7988,-0.7988,-0.7988,-0.7988,-0.7988,-0.7988,-0.7988,-0.7988,-0.7988,-0.7988,-0.7988,-0.7988,-0.7988,-0.7988,-0.7988,-0.7988,-0.7988,-0.7988,-0.7988,-0.7988,-0.7988,-0.7988,-0.7988,-0.7988,-0.7988,-0.7988,-0.7988,-0.7988,-0.7988,-0.7988,-0.7978,-0.7871,-0.7732,-0.7641,-0.7587,-0.7506,-0.7462,-0.7596,-0.8113,-0.8469,-0.8712,-0.9036,-0.9385,-0.9344,-0.9225,-0.9348,-0.9477,-0.9884,-1.0431,-1.1449,-1.1664,-1.1255,-1.1406,-1.167,-1.2054,-1.2558,-1.3136,-1.3691,-1.4115,-1.437,-1.4415,-1.4105,-1.3645,-1.3361,-1.4046,-1.4451,-0.1133,-0.2911,-0.2956,-0.4044,-0.5647,-0.6115,-0.6211,-0.6191,-0.6842,-0.7101,-0.721,-0.7662,-0.7889,-0.7917,-0.7967,-0.7988,-0.7988,-0.7988,-0.7988,-0.7963,-0.7718,-0.7416,-0.7089,-0.6842,-0.6617,-0.6464,-0.6412,-0.6412,-0.6412,-0.6412,-0.6412,-0.6412,-0.6412,-0.6412,-0.6437,-0.6464,-0.6614,-0.6889,-0.7141,-0.7419,-0.7693,-0.7892,-0.7992,-0.7988,-0.7988,-0.7988,-0.7988,-0.7988,-0.7988,-0.7988,-0.7988,-0.7988,-0.7988,-0.7988,-0.7988,-0.7988,-0.7988,-0.7988,-0.7988,-0.7988,-0.7988,-0.7988,-0.7988,-0.7988,-0.7988,-0.7988,-0.7988,-0.7988,-0.7988,-0.7988,-0.7988,-0.7988,-0.7988,-0.7988,-0.7988,-0.7988,-0.7988,-0.7988,-0.7988,-0.7958,-0.7885,-0.7797,-0.7756,-0.7645,-0.7593,-0.7598,-0.8045,-0.8643,-0.9077,-0.9442,-0.9953,-1.0409,-1.0122,-1.0003,-1.0335,-1.0497,-1.0818,-1.1247,-1.2163,-1.2739,-1.2349,-1.2354,-1.2552,-1.2992,-1.3532,-1.4064,-1.434,-1.4563,-1.4608,-1.4777,-1.4948,-1.4709,-1.4611,-1.5201,-1.5353,-0.0838,-0.2222,-0.2741,-0.3775,-0.5053,-0.5919,-0.6179,-0.6197,-0.6934,-0.7242,-0.7282,-0.7753,-0.7988,-0.7988,-0.7988,-0.7988,-0.7988,-0.7988,-0.7988,-0.7963,-0.7817,-0.7565,-0.7238,-0.7039,-0.6817,-0.6462,-0.6412,-0.6412,-0.6412,-0.6412,-0.6412,-0.6412,-0.6412,-0.6412,-0.6412,-0.6412,-0.6539,-0.6767,-0.6942,-0.7194,-0.7572,-0.7721,-0.792,-0.7963,-0.7988,-0.7988,-0.7988,-0.7988,-0.7988,-0.7988,-0.7988,-0.7988,-0.7988,-0.7988,-0.7988,-0.7988,-0.7988,-0.7988,-0.7988,-0.7988,-0.7988,-0.7988,-0.7988,-0.7988,-0.7988,-0.7988,-0.7988,-0.7988,-0.7988,-0.7988,-0.7988,-0.7988,-0.7988,-0.7988,-0.7988,-0.7988,-0.7988,-0.7988,-0.7988,-0.7958,-0.7878,-0.7838,-0.777,-0.7706,-0.7705,-0.7714,-0.8352,-0.8962,-0.9768,-1.0214,-1.0901,-1.1203,-1.0847,-1.0819,-1.1225,-1.1511,-1.1734,-1.2103,-1.2598,-1.2957,-1.2858,-1.3059,-1.3365,-1.36,-1.371,-1.4033,-1.4316,-1.4552,-1.4793,-1.4968,-1.5168,-1.5471,-1.5615,-1.5565,-1.5627,-0.0568,-0.1524,-0.2405,-0.339,-0.4495,-0.5654,-0.6101,-0.6196,-0.697,-0.729,-0.7273,-0.776,-0.7973,-0.7985,-0.7988,-0.7988,-0.7988,-0.7988,-0.7988,-0.7988,-0.7963,-0.7662,-0.7288,-0.7138,-0.6889,-0.6462,-0.6412,-0.6412,-0.6412,-0.6412,-0.6412,-0.6412,-0.6412,-0.6412,-0.6412,-0.6412,-0.6489,-0.6692,-0.682,-0.7042,-0.7444,-0.7568,-0.7746,-0.7967,-0.7988,-0.7988,-0.7988,-0.7988,-0.7988,-0.7988,-0.7988,-0.7988,-0.7988,-0.7988,-0.7988,-0.7988,-0.7988,-0.7988,-0.7988,-0.7988,-0.7988,-0.7988,-0.7988,-0.7988,-0.7988,-0.7988,-0.7988,-0.7988,-0.7988,-0.7988,-0.7988,-0.7988,-0.7988,-0.7988,-0.7988,-0.7988,-0.7988,-0.7988,-0.7988,-0.8,-0.7935,-0.7881,-0.7831,-0.7773,-0.7791,-0.7992,-0.8683,-0.9417,-1.0267,-1.1061,-1.1794,-1.2073,-1.1748,-1.1564,-1.1918,-1.2015,-1.2314,-1.2539,-1.2959,-1.3029,-1.3123,-1.3226,-1.3352,-1.3467,-1.3647,-1.3973,-1.4274,-1.4473,-1.4739,-1.5052,-1.527,-1.5421,-1.5578,-1.5741,-1.5843,-0.0687,-0.1771,-0.203,-0.3184,-0.4799,-0.537,-0.5905,-0.6509,-0.6985,-0.729,-0.739,-0.7675,-0.7884,-0.7955,-0.7988,-0.7988,-0.7988,-0.7988,-0.7988,-0.7988,-0.7963,-0.7715,-0.7285,-0.7185,-0.6886,-0.6537,-0.6412,-0.6412,-0.6412,-0.6412,-0.6412,-0.6412,-0.6412,-0.6412,-0.6412,-0.6412,-0.6412,-0.6539,-0.6692,-0.6942,-0.7266,-0.7543,-0.7743,-0.7963,-0.7988,-0.7988,-0.7988,-0.7988,-0.7988,-0.7988,-0.7988,-0.7988,-0.7988,-0.7988,-0.7988,-0.7988,-0.7988,-0.7988,-0.7988,-0.7988,-0.7988,-0.7988,-0.7988,-0.7988,-0.7988,-0.7988,-0.7988,-0.7988,-0.7988,-0.7988,-0.7988,-0.7988,-0.7988,-0.7988,-0.7988,-0.7988,-0.7988,-0.7988,-0.8088,-0.8202,-0.81,-0.8079,-0.8178,-0.8297,-0.8435,-0.8979,-0.9873,-1.0566,-1.1325,-1.2094,-1.2801,-1.2845,-1.2677,-1.2556,-1.2571,-1.254,-1.263,-1.2707,-1.2945,-1.2979,-1.3039,-1.3099,-1.3214,-1.3473,-1.3708,-1.4032,-1.4256,-1.4401,-1.4763,-1.5131,-1.5246,-1.5324,-1.5541,-1.5753,-1.5837,-0.0511,-0.1121,-0.1675,-0.28,-0.4245,-0.5085,-0.5815,-0.6489,-0.6929,-0.7147,-0.7264,-0.7524,-0.7754,-0.788,-0.7989,-0.7988,-0.8013,-0.7988,-0.7988,-0.7988,-0.7963,-0.7715,-0.7235,-0.721,-0.6861,-0.6537,-0.6412,-0.6412,-0.6412,-0.6412,-0.6412,-0.6412,-0.6412,-0.6412,-0.6412,-0.6412,-0.6412,-0.6437,-0.6564,-0.6814,-0.7213,-0.7568,-0.7892,-0.7963,-0.7988,-0.7988,-0.7988,-0.7988,-0.7988,-0.7988,-0.7988,-0.7988,-0.7988,-0.7988,-0.7988,-0.7988,-0.7988,-0.7988,-0.7988,-0.7988,-0.7988,-0.7988,-0.7988,-0.7988,-0.7988,-0.7988,-0.7988,-0.7988,-0.7988,-0.7988,-0.7988,-0.7988,-0.7988,-0.7988,-0.7988,-0.7988,-0.8013,-0.8013,-0.8333,-0.8602,-0.8414,-0.8506,-0.893,-0.9038,-0.9156,-0.989,-1.0959,-1.1691,-1.2349,-1.2836,-1.3382,-1.3111,-1.2876,-1.275,-1.2705,-1.2711,-1.2723,-1.2822,-1.2924,-1.2936,-1.3061,-1.3135,-1.3411,-1.3701,-1.393,-1.4057,-1.4135,-1.4256,-1.4727,-1.5155,-1.5197,-1.5294,-1.5559,-1.5753,-1.5837,-0.0309,-0.0465,-0.1244,-0.2269,-0.3469,-0.4661,-0.5586,-0.6275,-0.6799,-0.7057,-0.7112,-0.7375,-0.7606,-0.7817,-0.7981,-0.8088,-0.8088,-0.8088,-0.8113,-0.8088,-0.8013,-0.7715,-0.7338,-0.7135,-0.6936,-0.6487,-0.6412,-0.6412,-0.6412,-0.6412,-0.6412,-0.6412,-0.6412,-0.6412,-0.6412,-0.6412,-0.6412,-0.6412,-0.6412,-0.6686,-0.7188,-0.7665,-0.7963,-0.7988,-0.7988,-0.7988,-0.7988,-0.7988,-0.7988,-0.7988,-0.7988,-0.7988,-0.7988,-0.7988,-0.7988,-0.7988,-0.7988,-0.7988,-0.7988,-0.7988,-0.7988,-0.7988,-0.7988,-0.7988,-0.7988,-0.7988,-0.7988,-0.7988,-0.7988,-0.7988,-0.7988,-0.7988,-0.7988,-0.7988,-0.7988,-0.8013,-0.8113,-0.8357,-0.9089,-0.9139,-0.8825,-0.9192,-0.985,-1.0022,-1.0194,-1.0794,-1.1817,-1.2419,-1.3005,-1.3159,-1.3418,-1.3135,-1.2906,-1.275,-1.2705,-1.2705,-1.2711,-1.2753,-1.284,-1.29,-1.3057,-1.3214,-1.3519,-1.3744,-1.3846,-1.3955,-1.4032,-1.4238,-1.4745,-1.5077,-1.5119,-1.5312,-1.565,-1.5801,-1.5861,-0.0167,-0.0425,-0.0715,-0.1526,-0.2771,-0.3942,-0.4932,-0.5805,-0.6631,-0.718,-0.7171,-0.7382,-0.754,-0.7821,-0.8178,-0.8322,-0.8333,-0.8311,-0.8283,-0.8237,-0.8038,-0.7686,-0.7263,-0.721,-0.6886,-0.6487,-0.6412,-0.6412,-0.6412,-0.6412,-0.6412,-0.6412,-0.6412,-0.6412,-0.6412,-0.6412,-0.6412,-0.6412,-0.6412,-0.6686,-0.7163,-0.7519,-0.7768,-0.7939,-0.7988,-0.7988,-0.7988,-0.7988,-0.7988,-0.7988,-0.7988,-0.7988,-0.7988,-0.7988,-0.7988,-0.7988,-0.7988,-0.7988,-0.7988,-0.7988,-0.7988,-0.7988,-0.7988,-0.7988,-0.7988,-0.7988,-0.7988,-0.7988,-0.7988,-0.7988,-0.7988,-0.7988,-0.7988,-0.7988,-0.7988,-0.8063,-0.8187,-0.8775,-0.9509,-1.0509,-1.046,-1.0705,-1.117,-1.1219,-1.1317,-1.1964,-1.2584,-1.3165,-1.3523,-1.3618,-1.3437,-1.3147,-1.3039,-1.29,-1.2759,-1.2753,-1.2762,-1.2765,-1.2864,-1.2967,-1.3147,-1.3369,-1.3491,-1.3702,-1.3804,-1.4081,-1.4346,-1.4606,-1.4896,-1.5083,-1.5234,-1.5493,-1.5801,-1.5873,-1.5891,-0.0561,-0.1071,-0.0812,-0.1663,-0.3113,-0.3418,-0.3995,-0.4905,-0.5753,-0.6236,-0.6507,-0.7002,-0.7396,-0.7773,-0.8136,-0.8231,-0.8241,-0.8322,-0.8283,-0.8124,-0.7875,-0.7556,-0.7238,-0.7039,-0.6739,-0.6512,-0.6412,-0.6412,-0.6412,-0.6409,-0.6412,-0.6412,-0.6412,-0.6412,-0.6412,-0.6412,-0.6412,-0.6437,-0.6564,-0.6811,-0.7163,-0.7466,-0.7718,-0.7988,-0.7988,-0.7988,-0.7988,-0.7988,-0.7988,-0.7988,-0.7988,-0.7988,-0.7988,-0.7988,-0.7988,-0.7988,-0.7988,-0.7988,-0.7988,-0.7988,-0.7988,-0.7988,-0.7988,-0.7988,-0.7988,-0.7988,-0.7988,-0.7988,-0.7988,-0.7988,-0.7988,-0.7988,-0.7988,-0.8013,-0.8088,-0.8503,-0.8751,-0.9217,-0.9948,-1.1072,-1.2096,-1.2242,-1.2315,-1.2242,-1.2242,-1.2533,-1.3138,-1.371,-1.3891,-1.3873,-1.3592,-1.3147,-1.3111,-1.3099,-1.2946,-1.2843,-1.2924,-1.2967,-1.3153,-1.325,-1.3363,-1.3519,-1.3647,-1.375,-1.3882,-1.4195,-1.4612,-1.4793,-1.4908,-1.5143,-1.5365,-1.5626,-1.5843,-1.5897,-1.5982,-0.0767,-0.147,-0.1092,-0.173,-0.2962,-0.2979,-0.3359,-0.3907,-0.5068,-0.5586,-0.5933,-0.6672,-0.7363,-0.7699,-0.7982,-0.8104,-0.8031,-0.822,-0.8147,-0.7954,-0.7666,-0.7374,-0.7112,-0.6886,-0.6655,-0.6409,-0.6412,-0.639,-0.6374,-0.6393,-0.6412,-0.6412,-0.6412,-0.6412,-0.6412,-0.6412,-0.6412,-0.6412,-0.6564,-0.6839,-0.7163,-0.7363,-0.7668,-0.7892,-0.7988,-0.7988,-0.7988,-0.7988,-0.7988,-0.7988,-0.7988,-0.7988,-0.7988,-0.7988,-0.7988,-0.7988,-0.7988,-0.7988,-0.7988,-0.7988,-0.7988,-0.7988,-0.7988,-0.7988,-0.7988,-0.7988,-0.7988,-0.7988,-0.7988,-0.7988,-0.7988,-0.7988,-0.7988,-0.8137,-0.8333,-0.8895,-0.9534,-1.0219,-1.0852,-1.178,-1.2756,-1.3414,-1.3438,-1.3288,-1.324,-1.3245,-1.3661,-1.4202,-1.4208,-1.4075,-1.3809,-1.3376,-1.3304,-1.3274,-1.3057,-1.2973,-1.3057,-1.3147,-1.3334,-1.3461,-1.3525,-1.3682,-1.3863,-1.3936,-1.4008,-1.4292,-1.4696,-1.4787,-1.4896,-1.5228,-1.5517,-1.5674,-1.5825,-1.5897,-1.6079,-0.053,-0.1326,-0.1488,-0.1345,-0.1247,-0.296,-0.3399,-0.3162,-0.4863,-0.5625,-0.5891,-0.6815,-0.7396,-0.7586,-0.7914,-0.8075,-0.8023,-0.8028,-0.7997,-0.7827,-0.7493,-0.7158,-0.6924,-0.6753,-0.659,-0.6418,-0.6358,-0.6336,-0.632,-0.6347,-0.6374,-0.6412,-0.6398,-0.6406,-0.6412,-0.6412,-0.6412,-0.6412,-0.6489,-0.6764,-0.7061,-0.7285,-0.7487,-0.7889,-0.7988,-0.7988,-0.7988,-0.7988,-0.7988,-0.7988,-0.7988,-0.7988,-0.7988,-0.7988,-0.7988,-0.7988,-0.7988,-0.7988,-0.7988,-0.7988,-0.7988,-0.7988,-0.7988,-0.7988,-0.7988,-0.8038,-0.8038,-0.8088,-0.8162,-0.8113,-0.8063,-0.7988,-0.7988,-0.8209,-0.8602,-0.9361,-1.0243,-1.1463,-1.212,-1.2732,-1.3318,-1.3878,-1.41,-1.383,-1.3781,-1.3757,-1.3806,-1.4322,-1.4244,-1.4129,-1.3996,-1.3732,-1.3593,-1.3437,-1.3177,-1.3165,-1.328,-1.3286,-1.337,-1.3491,-1.3575,-1.3791,-1.4051,-1.4208,-1.4316,-1.4545,-1.4714,-1.4865,-1.5095,-1.5403,-1.5664,-1.5771,-1.591,-1.6018,-1.6235,-0.0414,-0.0777,-0.1735,-0.2172,-0.2251,-0.3205,-0.3254,-0.2962,-0.4128,-0.5237,-0.6005,-0.6981,-0.7604,-0.7844,-0.8131,-0.8255,-0.8189,-0.818,-0.7986,-0.7641,-0.7257,-0.6895,-0.6652,-0.647,-0.6298,-0.6249,-0.6225,-0.6211,-0.6197,-0.6225,-0.6214,-0.6249,-0.6325,-0.6401,-0.6412,-0.6409,-0.6412,-0.6412,-0.6437,-0.6661,-0.7086,-0.7235,-0.7462,-0.7939,-0.7988,-0.7988,-0.7988,-0.7988,-0.7988,-0.7988,-0.7988,-0.7988,-0.7988,-0.7988,-0.7988,-0.7988,-0.7988,-0.7988,-0.7988,-0.7988,-0.7988,-0.7988,-0.7988,-0.7988,-0.8063,-0.8531,-0.8482,-0.8482,-0.8676,-0.8874,-0.8137,-0.8038,-0.8038,-0.8283,-0.8945,-0.9879,-1.0877,-1.2145,-1.2974,-1.342,-1.3763,-1.4202,-1.4274,-1.425,-1.425,-1.425,-1.4298,-1.4292,-1.4244,-1.4208,-1.4087,-1.4026,-1.387,-1.3678,-1.3418,-1.3443,-1.3538,-1.3467,-1.3424,-1.3587,-1.3767,-1.4008,-1.4244,-1.4425,-1.4588,-1.4745,-1.4902,-1.5027,-1.5244,-1.5523,-1.5704,-1.587,-1.5988,-1.6133,-1.6326,-0.0351,-0.0453,-0.1615,-0.2345,-0.2713,-0.3454,-0.3418,-0.3101,-0.389,-0.5033,-0.6302,-0.7012,-0.7582,-0.7986,-0.8215,-0.8163,-0.8032,-0.7963,-0.7705,-0.7326,-0.6902,-0.6601,-0.6392,-0.6227,-0.6106,-0.6093,-0.6107,-0.611,-0.6034,-0.6091,-0.6096,-0.6116,-0.6195,-0.6287,-0.6363,-0.6371,-0.6409,-0.6412,-0.6437,-0.6661,-0.7135,-0.721,-0.7462,-0.7914,-0.7988,-0.7988,-0.7988,-0.7988,-0.7988,-0.7988,-0.7988,-0.7988,-0.7988,-0.7988,-0.7988,-0.7988,-0.7988,-0.7988,-0.8013,-0.7988,-0.7988,-0.7988,-0.7988,-0.7988,-0.8258,-0.897,-0.9118,-0.8973,-0.9558,-0.985,-0.9019,-0.9361,-0.9361,-0.9756,-1.0411,-1.1268,-1.1804,-1.278,-1.3468,-1.4052,-1.425,-1.4322,-1.4322,-1.4322,-1.4322,-1.4322,-1.4322,-1.4322,-1.4286,-1.425,-1.4214,-1.4177,-1.4147,-1.3936,-1.3725,-1.3725,-1.3707,-1.3586,-1.3598,-1.3815,-1.4002,-1.4208,-1.4395,-1.457,-1.4708,-1.4902,-1.5119,-1.5348,-1.5481,-1.5608,-1.5759,-1.5918,-1.6072,-1.6217,-1.6332,-0.0362,-0.0393,-0.1081,-0.1492,-0.1925,-0.3612,-0.3996,-0.3576,-0.4414,-0.546,-0.6543,-0.6898,-0.7288,-0.7797,-0.7925,-0.7882,-0.7679,-0.7601,-0.7344,-0.6937,-0.6658,-0.6415,-0.6216,-0.6058,-0.5947,-0.608,-0.6063,-0.5972,-0.5909,-0.5977,-0.5977,-0.5966,-0.6051,-0.617,-0.6295,-0.6352,-0.6401,-0.6404,-0.639,-0.6716,-0.7086,-0.7195,-0.7512,-0.7864,-0.7988,-0.7988,-0.7988,-0.7988,-0.7988,-0.7988,-0.7988,-0.7988,-0.7988,-0.7988,-0.7988,-0.7988,-0.7988,-0.8013,-0.8041,-0.8038,-0.8088,-0.8038,-0.7988,-0.8088,-0.8283,-0.9019,-0.9899,-0.9928,-1.0881,-1.1395,-1.1395,-1.1317,-1.1023,-1.1048,-1.1658,-1.2169,-1.2635,-1.3245,-1.3908,-1.4226,-1.4274,-1.4322,-1.4322,-1.4322,-1.4322,-1.4322,-1.4322,-1.4322,-1.4322,-1.431,-1.4262,-1.4256,-1.425,-1.4147,-1.396,-1.3924,-1.3863,-1.3737,-1.3761,-1.3984,-1.4099,-1.4201,-1.4413,-1.4648,-1.4804,-1.4925,-1.5312,-1.5686,-1.5722,-1.5747,-1.5801,-1.5934,-1.6127,-1.6272,-1.6356,-0.0448,-0.0374,-0.1156,-0.1451,-0.1689,-0.3545,-0.4128,-0.3998,-0.5172,-0.6085,-0.6547,-0.7274,-0.7524,-0.7572,-0.7733,-0.7757,-0.7573,-0.7485,-0.7238,-0.6789,-0.6539,-0.6192,-0.5989,-0.5876,-0.5825,-0.5841,-0.5827,-0.5858,-0.577,-0.5863,-0.5844,-0.5803,-0.5912,-0.6026,-0.6145,-0.6195,-0.62,-0.6219,-0.6317,-0.6595,-0.7067,-0.7211,-0.7462,-0.7963,-0.7988,-0.7988,-0.7988,-0.7988,-0.7988,-0.7988,-0.7988,-0.8013,-0.8013,-0.8013,-0.8013,-0.8013,-0.8013,-0.8382,-0.8772,-0.9019,-0.8676,-0.8357,-0.8137,-0.8432,-0.8994,-1.0215,-1.0803,-1.1292,-1.2193,-1.2441,-1.195,-1.1804,-1.1609,-1.1609,-1.2028,-1.249,-1.298,-1.3709,-1.4298,-1.4298,-1.4298,-1.4322,-1.4322,-1.4358,-1.437,-1.4334,-1.4322,-1.4322,-1.4322,-1.4322,-1.431,-1.431,-1.428,-1.4244,-1.4183,-1.4111,-1.4093,-1.4026,-1.4045,-1.4171,-1.425,-1.4262,-1.4533,-1.4847,-1.4895,-1.4991,-1.5445,-1.5801,-1.5843,-1.5879,-1.5885,-1.5982,-1.6187,-1.6272,-1.6296,-0.0622,-0.057,-0.096,-0.1078,-0.133,-0.337,-0.4324,-0.4681,-0.6005,-0.6563,-0.6675,-0.7569,-0.7826,-0.753,-0.7611,-0.7647,-0.7472,-0.7429,-0.7071,-0.6662,-0.6483,-0.6149,-0.5847,-0.5705,-0.5732,-0.5708,-0.5708,-0.5716,-0.5746,-0.5802,-0.5852,-0.5874,-0.5829,-0.5877,-0.5987,-0.6094,-0.6242,-0.6304,-0.6473,-0.679,-0.714,-0.735,-0.7562,-0.7864,-0.7988,-0.7988,-0.7988,-0.7988,-0.7988,-0.7988,-0.8013,-0.8063,-0.8063,-0.8038,-0.8063,-0.8088,-0.8113,-0.8577,-0.9238,-0.9509,-0.9291,-0.9361,-0.8846,-0.892,-0.9825,-1.1072,-1.1901,-1.2587,-1.3487,-1.3577,-1.3234,-1.3017,-1.2926,-1.295,-1.3028,-1.3492,-1.3492,-1.4202,-1.4352,-1.4352,-1.4322,-1.4322,-1.434,-1.4401,-1.4455,-1.4377,-1.4322,-1.4322,-1.4322,-1.4322,-1.4322,-1.4322,-1.4322,-1.4274,-1.4268,-1.4256,-1.4256,-1.4316,-1.4304,-1.4304,-1.4364,-1.4383,-1.4702,-1.4998,-1.5125,-1.5292,-1.565,-1.5885,-1.5885,-1.5885,-1.5885,-1.603,-1.6269,-1.6241,-1.6193,-0.0921,-0.0855,-0.0484,-0.0376,-0.0756,-0.2964,-0.4597,-0.5657,-0.6553,-0.6851,-0.6869,-0.7384,-0.7504,-0.7558,-0.7613,-0.7435,-0.7155,-0.719,-0.6795,-0.643,-0.6306,-0.5986,-0.5789,-0.5656,-0.5607,-0.564,-0.5645,-0.561,-0.5714,-0.5911,-0.6041,-0.606,-0.5947,-0.5933,-0.602,-0.6216,-0.6351,-0.6386,-0.6646,-0.6951,-0.7257,-0.7479,-0.7702,-0.7917,-0.7988,-0.7988,-0.7988,-0.7988,-0.7988,-0.7988,-0.7988,-0.8162,-0.8184,-0.8113,-0.8212,-0.8233,-0.8109,-0.8871,-0.9632,-0.9899,-1.0386,-1.0656,-1.0317,-0.9948,-1.0362,-1.175,-1.2557,-1.3577,-1.4526,-1.4986,-1.5201,-1.501,-1.4843,-1.4753,-1.4646,-1.4568,-1.4298,-1.4394,-1.4424,-1.44,-1.4322,-1.4328,-1.4406,-1.4479,-1.451,-1.4473,-1.437,-1.4322,-1.4322,-1.4322,-1.4322,-1.4322,-1.4322,-1.4322,-1.4322,-1.4304,-1.4322,-1.4322,-1.4304,-1.4316,-1.4389,-1.4539,-1.4823,-1.5101,-1.5354,-1.5596,-1.5807,-1.5885,-1.5885,-1.5885,-1.5885,-1.603,-1.6229,-1.6066,-1.6024,-0.124,-0.0893,-0.077,-0.057,-0.0557,-0.2025,-0.379,-0.556,-0.6125,-0.654,-0.7097,-0.7301,-0.7188,-0.6742,-0.6933,-0.6892,-0.6817,-0.6716,-0.6492,-0.627,-0.6117,-0.5838,-0.5632,-0.5496,-0.5398,-0.5379,-0.5411,-0.5483,-0.5485,-0.5824,-0.6194,-0.6257,-0.6169,-0.6166,-0.6262,-0.6514,-0.643,-0.6442,-0.6746,-0.7045,-0.7327,-0.753,-0.775,-0.7917,-0.7988,-0.7988,-0.7988,-0.7988,-0.7988,-0.7988,-0.7988,-0.8063,-0.8063,-0.8038,-0.8088,-0.8187,-0.8701,-0.9608,-1.0489,-1.0734,-1.117,-1.1999,-1.195,-1.2174,-1.2193,-1.2484,-1.3307,-1.4376,-1.5153,-1.5516,-1.5659,-1.5588,-1.5475,-1.5356,-1.5202,-1.5006,-1.4712,-1.4538,-1.4538,-1.4382,-1.431,-1.4437,-1.4509,-1.4509,-1.4522,-1.4515,-1.4466,-1.437,-1.4322,-1.4322,-1.4322,-1.4322,-1.431,-1.4316,-1.431,-1.4316,-1.4304,-1.4322,-1.431,-1.4383,-1.4545,-1.4696,-1.4937,-1.5208,-1.5535,-1.571,-1.5849,-1.5885,-1.5885,-1.5885,-1.5897,-1.6054,-1.6139,-1.5994,-1.594,-0.1413,-0.1035,-0.0909,-0.0676,-0.0538,-0.1164,-0.2542,-0.4147,-0.5437,-0.636,-0.6887,-0.7196,-0.6922,-0.645,-0.6611,-0.663,-0.6463,-0.6556,-0.6385,-0.6026,-0.5956,-0.5734,-0.5541,-0.5384,-0.5364,-0.5303,-0.5319,-0.5413,-0.5456,-0.5807,-0.6213,-0.6523,-0.6473,-0.6406,-0.6478,-0.6645,-0.6699,-0.6755,-0.6907,-0.7194,-0.7414,-0.7612,-0.7827,-0.7967,-0.7988,-0.7988,-0.7988,-0.7988,-0.7988,-0.7988,-0.7988,-0.8063,-0.8113,-0.8159,-0.8063,-0.8162,-0.8432,-0.9632,-1.071,-1.1097,-1.1974,-1.2805,-1.3125,-1.3197,-1.3511,-1.3794,-1.4424,-1.5153,-1.5516,-1.5801,-1.5801,-1.5778,-1.5659,-1.5516,-1.5382,-1.5223,-1.4977,-1.4755,-1.4551,-1.437,-1.4412,-1.4551,-1.4594,-1.4582,-1.457,-1.4599,-1.4544,-1.4442,-1.437,-1.4322,-1.4322,-1.4322,-1.4316,-1.4334,-1.4334,-1.4364,-1.4395,-1.4389,-1.4334,-1.4443,-1.4636,-1.4889,-1.5155,-1.5445,-1.5753,-1.5861,-1.5948,-1.5918,-1.5885,-1.5903,-1.5916,-1.5982,-1.6036,-1.5997,-1.5991,-0.1559,-0.1279,-0.0947,-0.0736,-0.0523,-0.0611,-0.117,-0.213,-0.4472,-0.5897,-0.6287,-0.6857,-0.6737,-0.641,-0.6475,-0.6435,-0.6367,-0.6433,-0.6278,-0.58,-0.5873,-0.5715,-0.5477,-0.5372,-0.5232,-0.5293,-0.5385,-0.5388,-0.5646,-0.6017,-0.6439,-0.6786,-0.6634,-0.6564,-0.6643,-0.6831,-0.6947,-0.7021,-0.7243,-0.753,-0.7701,-0.7887,-0.7988,-0.7988,-0.7988,-0.7988,-0.7988,-0.7988,-0.7988,-0.7988,-0.8038,-0.8113,-0.8209,-0.8283,-0.8159,-0.8088,-0.8187,-0.939,-1.0612,-1.1194,-1.2393,-1.3125,-1.3468,-1.3733,-1.4148,-1.419,-1.4573,-1.5255,-1.5635,-1.5778,-1.5801,-1.5915,-1.589,-1.5816,-1.5748,-1.5638,-1.5483,-1.5156,-1.4752,-1.4582,-1.4521,-1.4667,-1.4804,-1.481,-1.4895,-1.4815,-1.4714,-1.4618,-1.4503,-1.4406,-1.4352,-1.4352,-1.4316,-1.4352,-1.4425,-1.4461,-1.4497,-1.4479,-1.4407,-1.4605,-1.4913,-1.5161,-1.5354,-1.5608,-1.5849,-1.5916,-1.5985,-1.6003,-1.6033,-1.6,-1.5994,-1.5934,-1.5942,-1.593,-1.5954,-0.2387,-0.1921,-0.1387,-0.1014,-0.0731,-0.0731,-0.1189,-0.1931,-0.2639,-0.3983,-0.5173,-0.566,-0.6074,-0.6335,-0.6136,-0.6107,-0.6289,-0.6294,-0.6146,-0.5891,-0.5813,-0.567,-0.5351,-0.5243,-0.5081,-0.4961,-0.507,-0.5447,-0.5859,-0.627,-0.6649,-0.6975,-0.6896,-0.6874,-0.6877,-0.7068,-0.715,-0.724,-0.7473,-0.7682,-0.7811,-0.7915,-0.7988,-0.7988,-0.7988,-0.7988,-0.7988,-0.7988,-0.7988,-0.7988,-0.7988,-0.8038,-0.8066,-0.8088,-0.8088,-0.8013,-0.8038,-0.9167,-1.0366,-1.1243,-1.2247,-1.3565,-1.4124,-1.437,-1.4442,-1.4172,-1.4406,-1.5159,-1.5642,-1.573,-1.5841,-1.5981,-1.6122,-1.6104,-1.6086,-1.6014,-1.5938,-1.5505,-1.5022,-1.4863,-1.4734,-1.4805,-1.496,-1.5084,-1.5193,-1.5156,-1.507,-1.4948,-1.4734,-1.4624,-1.4509,-1.4467,-1.4322,-1.4358,-1.4461,-1.4545,-1.4606,-1.4587,-1.4527,-1.481,-1.5185,-1.5427,-1.562,-1.5734,-1.5891,-1.5994,-1.6124,-1.6214,-1.6226,-1.6145,-1.613,-1.6081,-1.596,-1.5924,-1.5918,-0.2721,-0.2252,-0.1867,-0.1581,-0.1431,-0.1313,-0.1547,-0.1897,-0.2232,-0.3054,-0.4106,-0.4452,-0.4967,-0.5653,-0.5523,-0.5867,-0.6099,-0.6156,-0.6037,-0.589,-0.5757,-0.5649,-0.5421,-0.5207,-0.5143,-0.5037,-0.5187,-0.5554,-0.6081,-0.6427,-0.6737,-0.7046,-0.7092,-0.7121,-0.7105,-0.7175,-0.7268,-0.7377,-0.756,-0.7706,-0.7818,-0.7918,-0.7982,-0.7988,-0.7988,-0.7988,-0.7988,-0.7988,-0.7988,-0.7988,-0.7988,-0.7988,-0.8013,-0.8013,-0.8013,-0.7988,-0.8184,-0.8751,-1.0096,-1.1194,-1.1974,-1.3245,-1.4322,-1.4394,-1.4442,-1.4268,-1.4651,-1.5326,-1.5516,-1.5635,-1.5761,-1.5915,-1.6099,-1.6164,-1.6184,-1.6167,-1.6056,-1.5795,-1.5431,-1.5206,-1.5093,-1.5038,-1.5161,-1.5274,-1.5376,-1.5365,-1.5298,-1.5286,-1.5107,-1.4949,-1.4808,-1.4661,-1.4619,-1.4515,-1.4576,-1.4642,-1.4678,-1.4654,-1.4636,-1.4822,-1.5113,-1.5565,-1.5885,-1.5924,-1.5976,-1.6133,-1.6235,-1.6396,-1.6353,-1.6275,-1.6245,-1.6208,-1.6069,-1.591,-1.5991,-0.2904,-0.2485,-0.2321,-0.2221,-0.2171,-0.2018,-0.1934,-0.2018,-0.2404,-0.2754,-0.3099,-0.3301,-0.3797,-0.4531,-0.4813,-0.5421,-0.5868,-0.6069,-0.6009,-0.5787,-0.5854,-0.5565,-0.5409,-0.5343,-0.5304,-0.5369,-0.5486,-0.5744,-0.6133,-0.6457,-0.6761,-0.7012,-0.7085,-0.7117,-0.7161,-0.7225,-0.7342,-0.737,-0.7512,-0.7702,-0.7831,-0.7897,-0.7961,-0.7988,-0.7988,-0.7988,-0.7988,-0.7988,-0.7988,-0.7988,-0.7988,-0.7988,-0.7988,-0.8013,-0.8287,-0.8311,-0.8482,-0.9093,-1.0022,-1.1121,-1.1901,-1.278,-1.3709,-1.4268,-1.4346,-1.4538,-1.4897,-1.5135,-1.5326,-1.5469,-1.5618,-1.5782,-1.5972,-1.6208,-1.6253,-1.631,-1.6207,-1.6034,-1.5767,-1.5508,-1.5391,-1.5313,-1.5356,-1.5469,-1.5523,-1.5523,-1.5562,-1.5548,-1.5512,-1.5419,-1.5301,-1.5158,-1.5065,-1.496,-1.4715,-1.4721,-1.4739,-1.4739,-1.4714,-1.4847,-1.5065,-1.5565,-1.5906,-1.596,-1.603,-1.6229,-1.6435,-1.6598,-1.6513,-1.6416,-1.6398,-1.6378,-1.6075,-1.5964,-1.6105,-0.3441,-0.2855,-0.2669,-0.247,-0.2255,-0.2171,-0.2136,-0.2153,-0.2272,-0.2348,-0.2494,-0.2622,-0.3452,-0.55,-0.5225,-0.5529,-0.6049,-0.608,-0.5614,-0.5257,-0.5661,-0.5409,-0.5289,-0.5498,-0.554,-0.5597,-0.5686,-0.5951,-0.6167,-0.6481,-0.6764,-0.693,-0.7058,-0.7085,-0.7124,-0.7175,-0.7198,-0.7259,-0.7383,-0.7573,-0.7723,-0.7827,-0.7961,-0.7988,-0.7988,-0.7988,-0.7988,-0.7988,-0.7988,-0.7988,-0.7988,-0.7988,-0.7988,-0.8038,-0.8308,-0.8726,-0.8899,-0.941,-1.0239,-1.1458,-1.2339,-1.2465,-1.3414,-1.4298,-1.4322,-1.4346,-1.461,-1.4807,-1.4975,-1.5148,-1.53,-1.5485,-1.5664,-1.6044,-1.6241,-1.6348,-1.6336,-1.6111,-1.5829,-1.5682,-1.5559,-1.5495,-1.5475,-1.5601,-1.5746,-1.5778,-1.5912,-1.5908,-1.5891,-1.5831,-1.5758,-1.5676,-1.5562,-1.4991,-1.4582,-1.4733,-1.4787,-1.4787,-1.4853,-1.5016,-1.5258,-1.5646,-1.5882,-1.5936,-1.6154,-1.6356,-1.6567,-1.6791,-1.6791,-1.6712,-1.6658,-1.6531,-1.6187,-1.6042,-1.6181]},{"header":{"parameterUnit":"m.s-1","parameterCategory":1,"la1":31.0,"la2":29.5877,"lo1":-88.7671,"lo2":-86.6584,"dy":0.0162,"dx":0.0185,"nx":115,"ny":88,"refTime":"2023-09-01T12:00:00:Z","depth":0,"parameterNumber":3,"parameterNumberName":"V-component_of_WINDS"},"data":[0.0,0.0,0.0,0.0,0.0,0.0,0.0,0.0,0.0,0.0,0.0,0.0,0.0,0.0,0.0,0.0,0.0,0.0,0.0,0.0,0.0,0.0,0.0,0.0,0.0,0.0,0.0,0.0,0.0,0.0,0.0,0.0,0.0,0.0,0.0,0.0,0.0,0.0,0.0,0.0,0.0,0.0,0.0,0.0,0.0,0.0,0.0,0.0,0.0,0.0,0.0,0.0,0.0,0.0,0.0,0.0,0.0,0.0,0.0,0.0,0.0,0.0,0.0,0.0,0.0,0.0,0.0,0.0,0.0,0.0,0.0,0.0,0.0,0.0,0.0,0.0,0.0,0.0,0.0,0.0,0.0,0.0,0.0,0.0,0.0,0.0,0.0,0.0,0.0,0.0,0.0,0.0,0.0,0.0,0.0,0.0,0.0,0.0,0.0,0.0,0.0,0.0,0.0,0.0,0.0,0.0,0.0,0.0,0.0,0.0,0.0,0.0,0.0,0.0,0.0,0.0,0.0,0.0,0.0,0.0,0.0,0.0,0.0,0.0,0.0,0.0,0.0,0.0,0.0,0.0,0.0,0.0,0.0,0.0,0.0,0.0,0.0,0.0,0.0,0.0,0.0,0.0,0.0,0.0,0.0,0.0,0.0,0.0,0.0,0.0,0.0,0.0,0.0,0.0,0.0,0.0,0.0,0.0,0.0,0.0,0.0,0.0,0.0,0.0,0.0,0.0,0.0,0.0,0.0,0.0,0.0,0.0,0.0,0.0,0.0,0.0,0.0,0.0,0.0,0.0,0.0,0.0,0.0,0.0,0.0,0.0,0.0,0.0,0.0,0.0,0.0,0.0,0.0,0.0,0.0,0.0,0.0,0.0,0.0,0.0,0.0,0.0,0.0,0.0,0.0,0.0,0.0,0.0,0.0,0.0,0.0,0.0,0.0,0.0,0.0,0.0,0.0,0.0,0.0,0.0,0.0,0.0,0.0,0.0,0.0,0.0,0.0,0.0,0.0,0.0,0.0,0.0,0.0,0.0,0.0,0.0,0.0,0.0,0.0,0.0,0.0,0.0,0.0,0.0,0.0,0.0,0.0,0.0,0.0,0.0,0.0,0.0,0.0,0.0,0.0,0.0,0.0,0.0,0.0,0.0,0.0,0.0,0.0,0.0,0.0,0.0,0.0,0.0,0.0,0.0,0.0,0.0,0.0,0.0,0.0,0.0,0.0,0.0,0.0,0.0,0.0,0.0,0.0,0.0,0.0,0.0,0.0,0.0,0.0,0.0,0.0,0.0,0.0,0.0,0.0,0.0,0.0,0.0,0.0,0.0,0.0,0.0,0.0,0.0,0.0,0.0,0.0,0.0,0.0,0.0,0.0,0.0,0.0,0.0,0.0,0.0,0.0,0.0,0.0,0.0,0.0,0.0,0.0,0.0,0.0,0.0,0.0,0.0,0.0,0.0,0.0,0.0,0.0,0.0,0.0,0.0,0.0,0.0,0.0,0.0,0.0,0.0,0.0,0.0,0.0,0.0,0.0,0.0,0.0,0.0,0.0,0.0,0.0,0.0,0.0,0.0,0.0,0.0,0.0,0.0,0.0,0.0,0.0,0.0,0.0,0.0,0.0,0.0,0.0,0.0,0.0,0.0,0.0,0.0,0.0,0.0,0.0,0.0,0.0,0.0,0.0,0.0,0.0,0.0,0.0,0.0,0.0,0.0,0.0,0.0,0.0,0.0,0.0,0.0,0.0,0.0,0.0,0.0,0.0,0.0,0.0,0.0,0.0,0.0,0.0,0.0,0.0,0.0,0.0,0.0,0.0,0.0,0.0,0.0,0.0,0.0,0.0,0.0,0.0,0.0,0.0,0.0,0.0,0.0,0.0,0.0,0.0,0.0,0.0,0.0,0.0,0.0,0.0,0.0,0.0,0.0,0.0,0.0,0.0,0.0,0.0,0.0,0.0,0.0,0.0,0.0,0.0,0.0,0.0,0.0,0.0,0.0,0.0,0.0,0.0,0.0,0.0,0.0,0.0,0.0,0.0,0.0,0.0,0.0,0.0,0.0,0.0,0.0,0.0,0.0,0.0,0.0,0.0,0.0,0.0,0.0,0.0,0.0,0.0,0.0,0.0,0.0,0.0,0.0,0.0,0.0,0.0,0.0,0.0,0.0,0.0,0.0,0.0,0.0,0.0,0.0,0.0,0.0,0.0,0.0,0.0,0.0,0.0,0.0,0.0,0.0,0.0,0.0,0.0,0.0,0.0,0.0,0.0,0.0,0.0,0.0,0.0,0.0,0.0,0.0,0.0,0.0,0.0,0.0,0.0,0.0,0.0,0.0,0.0,0.0,0.0,0.0,0.0,0.0,0.0,0.0,0.0,0.0,0.0,0.0,0.0,0.0,0.0,0.0,0.0,0.0,0.0,0.0,0.0,0.0,0.0,0.0,0.0,0.0,0.0,0.0,0.0,0.0,0.0,0.0,0.0,0.0,0.0,0.0,0.0,0.0,0.0,0.0,0.0,0.0,0.0,0.0,0.0,0.0,0.0,0.0,0.0,0.0,0.0,0.0,0.0,0.0,0.0,0.0,0.0,0.0,0.0,0.0,0.0,0.0,0.0,0.0,0.0,0.0,0.0,0.0,0.0,0.0,0.0,0.0,0.0,0.0,0.0,0.0,0.0,0.0,0.0,0.0,0.0,0.0,0.0,0.0,0.0,0.0,0.0,0.0,0.0,0.0,0.0,0.0,0.0,0.0,0.0,0.0,0.0,0.0,0.0,0.0,0.0,0.0,0.0,0.0,0.0,0.0,0.0,0.0,0.0,0.0,0.0,0.0,0.0,0.0,0.0,0.0,0.0,0.0,0.0,0.0,0.0,0.0,0.0,0.0,0.0,0.0,0.0,0.0,0.0,0.0,0.0,0.0,0.0,0.0,0.0,0.0,0.0,0.0,0.0,0.0,0.0,0.0,0.0,0.0,0.0,0.0,0.0,0.0,0.0,0.0,0.0,0.0,0.0,0.0,0.0,0.0,0.0,0.0,0.0,0.0,0.0,0.0,0.0,0.0,0.0,0.0,0.0,0.0,0.0,0.0,0.0,0.0,0.0,0.0,0.0,0.0,0.0,0.0,0.0,0.0,0.0,0.0,0.0,0.0,0.0,0.0,0.0,0.0,0.0,0.0,0.0,0.0,0.0,0.0,0.0,0.0,0.0,0.0,0.0,0.0,0.0,0.0,0.0,0.0,0.0,0.0,0.0,0.0,0.0,0.0,0.0,0.0,0.0,0.0,0.0,0.0,0.0,0.0,0.0,0.0,0.0,0.0,0.0,0.0,0.0,0.0,0.0,0.0,0.0,0.0,0.0,0.0,0.0,0.0,0.0,0.0,0.0,0.0,0.0,0.0,0.0,0.0,0.0,0.0,0.0,0.0,0.0,0.0,0.0,0.0,0.0,0.0,0.0,0.0,0.0,0.0,0.0,0.0,0.0,0.0,0.0,0.0,0.0,0.0,0.0,0.0,0.0,0.0,0.0,0.0,0.0,0.0,0.0,0.0,0.0,0.0,0.0,0.0,0.0,0.0,0.0,0.0,0.0,0.0,0.0,0.0,0.0,0.0,0.0,0.0,0.0,0.0,0.0,0.0,0.0,0.0,0.0,0.0,0.0,0.0,0.0,0.0,0.0,0.0,0.0,0.0,0.0,0.0,0.0,0.0,0.0,0.0,0.0,0.0,0.0,0.0,0.0,0.0,0.0,0.0,0.0,0.0,0.0,0.0,0.0,0.0,0.0,0.0,0.0,0.0,0.0,0.0,0.0,0.0,0.0,0.0,0.0,0.0,0.0,0.0,0.0,0.0,0.0,0.0,0.0,0.0,0.0,0.0,0.0,0.0,0.0,0.0,0.0,0.0,0.0,0.0,0.0,0.0,0.0,0.0,0.0,0.0,0.0,0.0,0.0,0.0,0.0,0.0,0.0,0.0,0.0,0.0,0.0,0.0,0.0,0.0,0.0,0.0,0.0,0.0,0.0,0.0,0.0,0.0,0.0,0.0,0.0,0.0,0.0,0.0,0.0,0.0,0.0,0.0,0.0,0.0,0.0,0.0,0.0,0.0,0.0,0.0,0.0,0.0,0.0,0.0,0.0,0.0,0.0,0.0,0.0,0.0,0.0,0.0,0.0,0.0,0.0,0.0,0.0,0.0,0.0,0.0,0.0,0.0,0.0,0.0,0.0,0.0,0.0,0.0,0.0,0.0,0.0,0.0,0.0,0.0,0.0,0.0,3.0537,0.0,0.0,0.0,0.0,0.0,0.0,0.0,0.0,0.0,0.0,0.0,0.0,0.0,0.0,0.0,0.0,0.0,0.0,0.0,0.0,0.0,0.0,0.0,0.0,0.0,0.0,0.0,0.0,0.0,0.0,0.0,0.0,0.0,0.0,0.0,0.0,0.0,0.0,0.0,0.0,0.0,0.0,0.0,0.0,0.0,0.0,0.0,0.0,0.0,0.0,0.0,0.0,0.0,0.0,0.0,0.0,0.0,0.0,0.0,0.0,0.0,0.0,0.0,0.0,0.0,0.0,0.0,0.0,0.0,0.0,0.0,0.0,0.0,0.0,0.0,0.0,0.0,0.0,0.0,0.0,0.0,0.0,0.0,0.0,0.0,0.0,0.0,0.0,0.0,0.0,0.0,0.0,0.0,0.0,0.0,0.0,0.0,0.0,0.0,0.0,0.0,0.0,0.0,0.0,0.0,0.0,0.0,0.0,0.0,0.0,3.137,3.1292,3.137,3.1197,3.0731,0.0,0.0,0.0,0.0,0.0,0.0,0.0,0.0,0.0,0.0,0.0,0.0,0.0,0.0,0.0,0.0,0.0,0.0,0.0,0.0,0.0,0.0,0.0,0.0,0.0,0.0,0.0,0.0,0.0,0.0,0.0,0.0,0.0,0.0,0.0,0.0,0.0,0.0,0.0,0.0,0.0,0.0,0.0,0.0,0.0,0.0,0.0,0.0,0.0,0.0,0.0,0.0,0.0,0.0,0.0,0.0,0.0,0.0,0.0,0.0,0.0,0.0,0.0,0.0,0.0,0.0,0.0,0.0,0.0,0.0,0.0,0.0,0.0,0.0,0.0,0.0,0.0,0.0,0.0,0.0,0.0,0.0,0.0,0.0,0.0,0.0,0.0,0.0,0.0,0.0,0.0,0.0,0.0,0.0,0.0,0.0,0.0,0.0,0.0,0.0,0.0,0.0,0.0,0.0,0.0,0.0,0.0,0.0,0.0,0.0,0.0,0.0,3.2045,3.1882,3.1038,0.0,0.0,0.0,0.0,0.0,0.0,0.0,0.0,0.0,0.0,0.0,0.0,0.0,0.0,0.0,0.0,0.0,0.0,0.0,0.0,0.0,0.0,0.0,0.0,0.0,0.0,0.0,0.0,0.0,0.0,0.0,0.0,0.0,0.0,0.0,0.0,0.0,0.0,0.0,0.0,0.0,0.0,0.0,0.0,0.0,0.0,0.0,0.0,0.0,0.0,0.0,0.0,0.0,0.0,0.0,0.0,0.0,0.0,0.0,0.0,0.0,0.0,0.0,0.0,0.0,0.0,0.0,0.0,0.0,0.0,0.0,0.0,0.0,0.0,0.0,0.0,0.0,0.0,0.0,0.0,0.0,0.0,0.0,0.0,0.0,0.0,0.0,0.0,0.0,0.0,0.0,0.0,0.0,0.0,0.0,0.0,0.0,0.0,0.0,0.0,0.0,0.0,0.0,0.0,0.0,0.0,0.0,0.0,0.0,0.0,3.1965,3.4155,3.3531,0.0,3.1833,0.0,0.0,0.0,0.0,0.0,0.0,0.0,0.0,0.0,0.0,0.0,0.0,0.0,0.0,0.0,0.0,0.0,0.0,0.0,0.0,0.0,0.0,0.0,0.0,0.0,0.0,0.0,0.0,0.0,0.0,0.0,0.0,0.0,0.0,0.0,0.0,0.0,0.0,0.0,0.0,0.0,0.0,0.0,0.0,0.0,0.0,0.0,0.0,0.0,0.0,0.0,0.0,0.0,0.0,0.0,0.0,0.0,0.0,0.0,0.0,0.0,0.0,0.0,0.0,0.0,0.0,0.0,0.0,0.0,0.0,0.0,0.0,0.0,0.0,0.0,0.0,0.0,0.0,0.0,0.0,0.0,0.0,0.0,0.0,0.0,0.0,0.0,0.0,0.0,0.0,0.0,0.0,0.0,0.0,0.0,0.0,0.0,0.0,0.0,0.0,0.0,0.0,0.0,0.0,0.0,0.0,0.0,0.0,0.0,0.0,3.1036,3.3069,3.2235,3.1125,0.0,0.0,0.0,0.0,0.0,0.0,0.0,0.0,0.0,0.0,0.0,0.0,0.0,0.0,0.0,0.0,0.0,0.0,0.0,0.0,0.0,0.0,0.0,0.0,0.0,0.0,0.0,0.0,0.0,0.0,0.0,0.0,0.0,0.0,0.0,0.0,0.0,0.0,0.0,0.0,0.0,0.0,0.0,0.0,0.0,0.0,0.0,0.0,0.0,0.0,0.0,0.0,0.0,0.0,0.0,0.0,0.0,0.0,0.0,0.0,0.0,0.0,0.0,0.0,0.0,0.0,0.0,0.0,0.0,0.0,0.0,0.0,0.0,0.0,0.0,0.0,0.0,0.0,0.0,0.0,0.0,0.0,0.0,0.0,0.0,0.0,0.0,0.0,0.0,0.0,0.0,0.0,0.0,0.0,0.0,0.0,0.0,0.0,0.0,0.0,0.0,0.0,0.0,0.0,0.0,0.0,0.0,0.0,0.0,0.0,3.0781,3.0934,3.2282,3.0885,2.9564,2.8582,0.0,0.0,0.0,0.0,0.0,0.0,0.0,0.0,0.0,0.0,0.0,0.0,0.0,0.0,0.0,0.0,0.0,0.0,0.0,0.0,0.0,0.0,0.0,0.0,0.0,0.0,0.0,0.0,0.0,0.0,0.0,0.0,0.0,0.0,0.0,0.0,0.0,0.0,0.0,0.0,0.0,0.0,0.0,0.0,0.0,0.0,0.0,0.0,0.0,0.0,0.0,0.0,0.0,0.0,0.0,0.0,0.0,0.0,0.0,0.0,0.0,0.0,0.0,0.0,0.0,0.0,0.0,0.0,0.0,0.0,0.0,0.0,0.0,0.0,0.0,0.0,0.0,0.0,0.0,0.0,0.0,0.0,0.0,0.0,0.0,0.0,0.0,0.0,0.0,0.0,0.0,0.0,0.0,0.0,0.0,0.0,0.0,0.0,0.0,0.0,0.0,0.0,0.0,0.0,0.0,0.0,0.0,0.0,3.4278,3.2816,3.2386,3.3166,3.0142,2.8725,0.0,0.0,0.0,0.0,0.0,0.0,0.0,0.0,0.0,0.0,0.0,0.0,0.0,0.0,0.0,0.0,0.0,0.0,0.0,0.0,0.0,0.0,0.0,0.0,0.0,0.0,0.0,0.0,0.0,0.0,0.0,0.0,0.0,0.0,0.0,0.0,0.0,0.0,0.0,0.0,0.0,0.0,0.0,0.0,0.0,0.0,0.0,0.0,0.0,0.0,0.0,0.0,0.0,0.0,0.0,0.0,0.0,0.0,0.0,0.0,0.0,0.0,0.0,0.0,0.0,0.0,0.0,0.0,0.0,0.0,0.0,0.0,0.0,0.0,0.0,0.0,0.0,0.0,0.0,0.0,0.0,0.0,0.0,0.0,0.0,0.0,0.0,0.0,0.0,0.0,0.0,0.0,0.0,0.0,0.0,0.0,0.0,0.0,0.0,0.0,0.0,0.0,0.0,0.0,0.0,0.0,0.0,0.0,0.0,3.1368,3.1856,3.1719,3.0958,2.9719,2.8963,0.0,0.0,0.0,0.0,0.0,0.0,0.0,0.0,0.0,0.0,0.0,0.0,0.0,0.0,0.0,0.0,0.0,0.0,0.0,0.0,0.0,0.0,0.0,0.0,0.0,0.0,0.0,0.0,0.0,0.0,0.0,0.0,0.0,0.0,0.0,0.0,0.0,0.0,0.0,0.0,0.0,0.0,0.0,0.0,0.0,0.0,0.0,0.0,0.0,0.0,0.0,0.0,0.0,0.0,0.0,0.0,0.0,0.0,0.0,0.0,0.0,0.0,0.0,0.0,0.0,0.0,0.0,0.0,0.0,0.0,0.0,0.0,0.0,0.0,0.0,0.0,0.0,0.0,0.0,0.0,0.0,0.0,0.0,0.0,0.0,0.0,0.0,0.0,0.0,0.0,0.0,0.0,0.0,0.0,0.0,0.0,0.0,0.0,0.0,0.0,0.0,0.0,0.0,0.0,0.0,0.0,0.0,0.0,0.0,3.0002,0.0,3.0997,2.9651,2.9291,2.8552,0.0,0.0,0.0,0.0,0.0,0.0,0.0,0.0,0.0,0.0,0.0,0.0,0.0,0.0,0.0,0.0,0.0,0.0,0.0,0.0,0.0,0.0,0.0,0.0,0.0,0.0,0.0,0.0,0.0,0.0,0.0,0.0,0.0,0.0,0.0,0.0,0.0,0.0,0.0,0.0,0.0,0.0,0.0,0.0,0.0,0.0,0.0,0.0,0.0,0.0,0.0,0.0,0.0,0.0,0.0,0.0,0.0,0.0,0.0,0.0,0.0,0.0,0.0,0.0,0.0,0.0,0.0,0.0,0.0,0.0,0.0,0.0,0.0,0.0,0.0,0.0,0.0,0.0,0.0,0.0,0.0,0.0,0.0,0.0,0.0,0.0,0.0,0.0,0.0,0.0,0.0,0.0,0.0,0.0,0.0,0.0,0.0,0.0,0.0,0.0,0.0,0.0,0.0,0.0,0.0,0.0,0.0,0.0,2.9884,3.0684,3.0781,3.047,2.9631,2.8811,2.7562,0.0,0.0,0.0,0.0,0.0,0.0,0.0,0.0,0.0,0.0,0.0,0.0,0.0,0.0,0.0,0.0,0.0,0.0,0.0,0.0,0.0,0.0,0.0,0.0,0.0,0.0,0.0,0.0,0.0,0.0,0.0,0.0,0.0,0.0,0.0,0.0,0.0,0.0,0.0,0.0,0.0,0.0,0.0,0.0,0.0,0.0,0.0,0.0,0.0,0.0,0.0,0.0,0.0,0.0,0.0,0.0,0.0,0.0,0.0,0.0,0.0,0.0,0.0,0.0,0.0,0.0,0.0,0.0,0.0,0.0,0.0,0.0,0.0,0.0,0.0,0.0,0.0,0.0,0.0,0.0,0.0,0.0,0.0,0.0,0.0,0.0,0.0,0.0,0.0,0.0,0.0,0.0,0.0,0.0,0.0,0.0,0.0,0.0,0.0,0.0,0.0,0.0,0.0,0.0,0.0,0.0,0.0,0.0,0.0,2.8206,2.9903,3.0683,3.0391,2.9045,2.8595,0.0,0.0,0.0,0.0,0.0,0.0,0.0,0.0,0.0,0.0,0.0,0.0,0.0,0.0,0.0,0.0,0.0,0.0,0.0,0.0,0.0,0.0,0.0,0.0,0.0,0.0,0.0,0.0,0.0,0.0,0.0,0.0,0.0,0.0,0.0,0.0,0.0,0.0,0.0,0.0,0.0,0.0,0.0,0.0,0.0,0.0,0.0,0.0,0.0,0.0,0.0,0.0,0.0,0.0,0.0,0.0,0.0,0.0,0.0,0.0,0.0,0.0,0.0,0.0,0.0,0.0,0.0,0.0,0.0,0.0,0.0,0.0,0.0,0.0,0.0,0.0,0.0,0.0,0.0,0.0,0.0,0.0,0.0,0.0,0.0,0.0,0.0,0.0,0.0,0.0,0.0,0.0,0.0,0.0,0.0,0.0,0.0,0.0,0.0,0.0,0.0,0.0,0.0,0.0,0.0,0.0,0.0,0.0,0.0,2.805,2.9825,3.0801,3.0801,2.9785,2.9435,2.9805,0.0,0.0,0.0,0.0,0.0,0.0,0.0,0.0,0.0,0.0,0.0,0.0,0.0,0.0,0.0,0.0,0.0,0.0,0.0,0.0,0.0,0.0,0.0,0.0,0.0,0.0,0.0,0.0,0.0,0.0,0.0,0.0,0.0,0.0,0.0,0.0,0.0,0.0,0.0,0.0,0.0,0.0,0.0,0.0,0.0,0.0,0.0,0.0,0.0,0.0,0.0,0.0,0.0,0.0,0.0,0.0,0.0,0.0,0.0,0.0,0.0,0.0,0.0,0.0,0.0,0.0,0.0,0.0,0.0,0.0,0.0,0.0,0.0,0.0,0.0,0.0,0.0,0.0,0.0,0.0,0.0,0.0,0.0,0.0,0.0,0.0,0.0,0.0,0.0,0.0,0.0,0.0,0.0,0.0,0.0,0.0,0.0,0.0,0.0,0.0,0.0,0.0,0.0,0.0,0.0,0.0,0.0,0.0,2.9827,3.0703,3.1132,3.0977,3.084,3.0098,0.0,0.0,0.0,0.0,0.0,0.0,0.0,0.0,0.0,0.0,0.0,0.0,0.0,0.0,0.0,0.0,0.0,0.0,0.0,0.0,0.0,0.0,0.0,0.0,0.0,0.0,0.0,0.0,0.0,0.0,0.0,0.0,0.0,0.0,0.0,0.0,0.0,0.0,0.0,0.0,0.0,0.0,0.0,0.0,0.0,0.0,0.0,0.0,0.0,0.0,0.0,0.0,0.0,0.0,0.0,0.0,0.0,0.0,0.0,0.0,0.0,0.0,0.0,0.0,0.0,0.0,0.0,0.0,0.0,0.0,0.0,0.0,0.0,0.0,0.0,0.0,0.0,0.0,0.0,0.0,0.0,0.0,0.0,0.0,0.0,0.0,0.0,0.0,0.0,0.0,0.0,0.0,0.0,0.0,0.0,0.0,0.0,0.0,0.0,0.0,0.0,0.0,0.0,0.0,0.0,0.0,0.0,0.0,0.0,3.2461,3.449,3.4686,3.2791,3.1483,3.1191,0.0,0.0,0.0,0.0,0.0,0.0,0.0,0.0,0.0,0.0,0.0,0.0,0.0,0.0,0.0,0.0,0.0,0.0,0.0,0.0,0.0,0.0,0.0,0.0,0.0,0.0,0.0,0.0,0.0,0.0,0.0,0.0,0.0,0.0,0.0,0.0,0.0,0.0,0.0,0.0,0.0,0.0,0.0,0.0,0.0,0.0,0.0,0.0,0.0,0.0,0.0,0.0,0.0,0.0,0.0,0.0,0.0,0.0,0.0,0.0,0.0,0.0,0.0,0.0,0.0,0.0,0.0,0.0,0.0,0.0,0.0,0.0,0.0,0.0,0.0,0.0,0.0,0.0,0.0,0.0,0.0,0.0,0.0,0.0,0.0,0.0,0.0,0.0,0.0,0.0,0.0,0.0,0.0,0.0,0.0,0.0,0.0,0.0,0.0,0.0,0.0,0.0,0.0,0.0,0.0,0.0,0.0,0.0,3.3632,3.4489,3.6677,3.7126,3.5623,3.4256,3.3474,0.0,0.0,0.0,0.0,0.0,0.0,0.0,0.0,0.0,0.0,0.0,0.0,0.0,0.0,0.0,0.0,0.0,0.0,0.0,0.0,0.0,0.0,0.0,0.0,0.0,0.0,0.0,0.0,0.0,0.0,0.0,0.0,0.0,0.0,0.0,0.0,0.0,0.0,0.0,0.0,0.0,0.0,0.0,0.0,0.0,0.0,0.0,0.0,0.0,0.0,0.0,0.0,0.0,0.0,0.0,0.0,0.0,0.0,0.0,0.0,0.0,0.0,0.0,0.0,0.0,0.0,0.0,0.0,0.0,0.0,0.0,0.0,0.0,0.0,0.0,0.0,0.0,0.0,0.0,0.0,0.0,0.0,0.0,0.0,0.0,0.0,0.0,0.0,0.0,0.0,0.0,0.0,0.0,0.0,0.0,0.0,0.0,0.0,0.0,0.0,0.0,0.0,0.0,0.0,0.0,0.0,0.0,0.0,3.5388,3.6265,3.8044,3.8962,3.8845,3.777,3.6031,0.0,0.0,0.0,0.0,0.0,0.0,0.0,0.0,0.0,0.0,0.0,0.0,0.0,0.0,0.0,0.0,0.0,0.0,0.0,0.0,0.0,0.0,0.0,0.0,0.0,0.0,0.0,0.0,0.0,0.0,0.0,0.0,0.0,0.0,0.0,0.0,0.0,0.0,0.0,0.0,0.0,0.0,0.0,0.0,0.0,0.0,0.0,0.0,0.0,0.0,0.0,0.0,0.0,0.0,0.0,0.0,0.0,0.0,0.0,0.0,0.0,0.0,0.0,0.0,0.0,0.0,0.0,0.0,0.0,0.0,0.0,0.0,0.0,0.0,0.0,0.0,0.0,0.0,0.0,0.0,0.0,0.0,0.0,0.0,0.0,0.0,0.0,0.0,0.0,0.0,0.0,0.0,0.0,0.0,0.0,0.0,0.0,0.0,0.0,0.0,0.0,0.0,0.0,0.0,0.0,0.0,0.0,0.0,3.7185,3.8063,4.0366,4.1265,4.0563,3.7789,3.5699,0.0,0.0,0.0,0.0,0.0,0.0,0.0,0.0,0.0,0.0,0.0,0.0,0.0,0.0,0.0,0.0,0.0,0.0,0.0,0.0,0.0,0.0,0.0,0.0,0.0,0.0,0.0,0.0,0.0,0.0,0.0,0.0,0.0,0.0,0.0,0.0,0.0,0.0,0.0,0.0,0.0,0.0,0.0,0.0,0.0,0.0,0.0,0.0,3.4661,0.0,0.0,0.0,0.0,0.0,0.0,0.0,0.0,0.0,0.0,0.0,0.0,0.0,0.0,0.0,0.0,0.0,0.0,0.0,0.0,0.0,0.0,0.0,0.0,0.0,0.0,0.0,0.0,0.0,0.0,0.0,0.0,0.0,0.0,0.0,0.0,0.0,0.0,0.0,0.0,0.0,0.0,0.0,0.0,0.0,0.0,0.0,0.0,0.0,0.0,0.0,0.0,0.0,0.0,0.0,0.0,0.0,0.0,0.0,3.7907,3.9156,4.0873,4.1577,4.103,3.859,3.6617,0.0,0.0,0.0,0.0,0.0,0.0,0.0,0.0,0.0,0.0,0.0,0.0,0.0,0.0,0.0,0.0,0.0,0.0,0.0,0.0,0.0,0.0,0.0,0.0,0.0,0.0,0.0,0.0,0.0,0.0,0.0,0.0,0.0,0.0,0.0,0.0,0.0,0.0,0.0,0.0,0.0,0.0,0.0,0.0,0.0,0.0,0.0,0.0,0.0,0.0,0.0,0.0,0.0,0.0,0.0,0.0,0.0,0.0,0.0,0.0,0.0,0.0,0.0,0.0,0.0,0.0,0.0,0.0,0.0,0.0,0.0,0.0,0.0,0.0,0.0,0.0,0.0,0.0,0.0,0.0,0.0,0.0,0.0,0.0,0.0,0.0,0.0,0.0,0.0,0.0,0.0,0.0,0.0,0.0,0.0,0.0,0.0,0.0,0.0,0.0,0.0,0.0,0.0,0.0,0.0,0.0,0.0,3.6169,3.818,3.9937,4.0855,4.1226,4.1089,3.947,3.7787,3.6063,0.0,0.0,0.0,0.0,0.0,0.0,0.0,0.0,0.0,0.0,0.0,0.0,0.0,0.0,0.0,0.0,0.0,0.0,0.0,0.0,0.0,0.0,0.0,0.0,0.0,0.0,0.0,0.0,0.0,0.0,0.0,0.0,0.0,0.0,0.0,0.0,0.0,0.0,3.2367,3.3262,0.0,0.0,0.0,0.0,0.0,0.0,0.0,0.0,3.4779,0.0,0.0,0.0,0.0,0.0,0.0,0.0,0.0,0.0,0.0,0.0,0.0,0.0,0.0,0.0,0.0,0.0,0.0,0.0,0.0,0.0,0.0,0.0,0.0,0.0,0.0,0.0,0.0,0.0,0.0,0.0,0.0,0.0,0.0,0.0,0.0,0.0,0.0,0.0,0.0,0.0,0.0,0.0,0.0,0.0,0.0,0.0,0.0,0.0,0.0,0.0,0.0,0.0,0.0,0.0,0.0,3.6579,3.7087,3.8473,4.0816,4.1732,4.1849,4.1089,3.947,3.7788,3.6062,0.0,0.0,0.0,0.0,0.0,0.0,0.0,0.0,0.0,0.0,0.0,0.0,0.0,0.0,0.0,0.0,0.0,0.0,0.0,0.0,0.0,0.0,0.0,0.0,0.0,0.0,0.0,0.0,0.0,0.0,0.0,0.0,0.0,0.0,0.0,0.0,0.0,0.0,0.0,3.5015,3.5586,0.0,0.0,0.0,0.0,0.0,0.0,0.0,0.0,3.5519,0.0,0.0,0.0,0.0,0.0,0.0,0.0,0.0,0.0,0.0,0.0,0.0,0.0,0.0,0.0,0.0,0.0,0.0,0.0,0.0,0.0,0.0,0.0,0.0,0.0,0.0,0.0,0.0,0.0,0.0,0.0,0.0,0.0,0.0,0.0,0.0,0.0,0.0,0.0,0.0,0.0,0.0,0.0,0.0,0.0,0.0,0.0,0.0,0.0,0.0,0.0,0.0,0.0,0.0,0.0,3.652,3.7925,3.9409,4.105,4.1518,4.1538,4.1069,3.9039,3.7317,0.0,0.0,0.0,0.0,0.0,0.0,0.0,0.0,0.0,0.0,0.0,0.0,0.0,0.0,0.0,0.0,0.0,0.0,0.0,0.0,0.0,0.0,0.0,0.0,0.0,0.0,0.0,0.0,0.0,0.0,0.0,0.0,0.0,0.0,0.0,0.0,0.0,0.0,0.0,0.0,3.6755,3.7148,3.674,0.0,0.0,0.0,0.0,0.0,0.0,3.5332,3.5784,0.0,0.0,0.0,0.0,0.0,0.0,0.0,0.0,0.0,0.0,0.0,0.0,0.0,0.0,0.0,0.0,0.0,0.0,0.0,0.0,0.0,0.0,0.0,0.0,0.0,0.0,0.0,0.0,0.0,0.0,0.0,0.0,0.0,0.0,0.0,0.0,0.0,0.0,0.0,0.0,0.0,0.0,0.0,0.0,0.0,0.0,0.0,0.0,0.0,0.0,0.0,0.0,0.0,0.0,0.0,3.6285,3.8453,4.0074,4.105,4.1108,4.1108,4.1069,3.8648,3.6904,0.0,0.0,0.0,0.0,0.0,0.0,0.0,0.0,0.0,0.0,0.0,0.0,0.0,0.0,0.0,0.0,0.0,0.0,0.0,0.0,0.0,0.0,0.0,0.0,0.0,0.0,0.0,0.0,0.0,0.0,0.0,0.0,0.0,0.0,0.0,0.0,0.0,0.0,0.0,0.0,0.0,3.8671,3.7717,3.7692,0.0,0.0,0.0,0.0,3.5479,3.6189,0.0,0.0,0.0,0.0,0.0,0.0,0.0,0.0,0.0,0.0,0.0,0.0,0.0,0.0,0.0,0.0,0.0,0.0,0.0,0.0,0.0,0.0,0.0,0.0,0.0,0.0,0.0,0.0,0.0,0.0,0.0,0.0,0.0,0.0,0.0,0.0,0.0,0.0,0.0,0.0,0.0,0.0,0.0,0.0,0.0,0.0,0.0,0.0,0.0,0.0,0.0,0.0,0.0,0.0,0.0,0.0,3.7067,3.82,3.9489,4.1011,4.1108,4.1108,4.1069,3.8649,3.6886,0.0,0.0,0.0,0.0,0.0,0.0,0.0,0.0,0.0,0.0,0.0,0.0,0.0,0.0,0.0,0.0,0.0,0.0,0.0,0.0,0.0,0.0,0.0,0.0,0.0,0.0,0.0,0.0,0.0,0.0,0.0,0.0,0.0,0.0,0.0,0.0,0.0,0.0,0.0,0.0,0.0,4.0236,3.867,3.9059,3.8921,0.0,0.0,3.813,3.806,3.8738,0.0,0.0,0.0,0.0,0.0,0.0,0.0,0.0,0.0,0.0,0.0,0.0,0.0,0.0,0.0,0.0,0.0,0.0,0.0,0.0,0.0,0.0,0.0,0.0,0.0,0.0,0.0,0.0,0.0,0.0,0.0,0.0,0.0,0.0,0.0,0.0,0.0,0.0,0.0,0.0,0.0,0.0,0.0,0.0,0.0,0.0,0.0,0.0,0.0,0.0,0.0,0.0,0.0,0.0,0.0,3.5193,3.7262,3.8609,3.9879,4.103,4.062,4.0366,4.0366,3.7415,3.5651,0.0,0.0,0.0,0.0,0.0,0.0,0.0,0.0,0.0,0.0,0.0,0.0,0.0,0.0,0.0,0.0,0.0,0.0,0.0,0.0,0.0,0.0,0.0,0.0,0.0,0.0,0.0,0.0,0.0,0.0,0.0,0.0,0.0,0.0,0.0,0.0,0.0,0.0,0.0,0.0,0.0,0.0,4.0115,4.0309,0.0,0.0,0.0,3.9424,3.9914,0.0,0.0,0.0,0.0,0.0,0.0,0.0,0.0,0.0,0.0,0.0,0.0,0.0,0.0,0.0,0.0,0.0,0.0,0.0,0.0,0.0,0.0,0.0,0.0,0.0,0.0,0.0,0.0,0.0,0.0,0.0,0.0,0.0,0.0,0.0,0.0,0.0,0.0,0.0,0.0,0.0,0.0,0.0,0.0,0.0,0.0,0.0,0.0,0.0,0.0,0.0,0.0,0.0,0.0,0.0,0.0,0.0,3.7281,3.894,4.021,4.103,4.0249,3.9799,3.9741,3.6708,0.0,0.0,0.0,0.0,0.0,0.0,0.0,0.0,0.0,0.0,0.0,0.0,0.0,0.0,0.0,0.0,0.0,0.0,0.0,0.0,0.0,0.0,0.0,0.0,0.0,0.0,0.0,3.0799,0.0,0.0,0.0,0.0,0.0,0.0,0.0,0.0,0.0,0.0,0.0,0.0,0.0,0.0,4.1104,4.1111,4.1655,4.1987,0.0,0.0,4.1235,4.1661,4.1543,4.0921,0.0,0.0,0.0,0.0,0.0,0.0,0.0,0.0,0.0,0.0,0.0,0.0,0.0,0.0,0.0,0.0,0.0,0.0,0.0,0.0,0.0,0.0,0.0,0.0,0.0,0.0,0.0,0.0,0.0,0.0,0.0,0.0,0.0,0.0,0.0,0.0,0.0,0.0,0.0,0.0,0.0,0.0,0.0,0.0,0.0,0.0,0.0,0.0,0.0,0.0,0.0,0.0,0.0,0.0,0.0,3.7282,3.894,4.0229,4.105,4.0249,3.9799,3.976,3.7273,3.5509,0.0,0.0,0.0,0.0,0.0,0.0,0.0,0.0,0.0,0.0,0.0,0.0,0.0,0.0,0.0,0.0,0.0,0.0,0.0,0.0,0.0,0.0,0.0,0.0,0.0,0.0,0.0,0.0,0.0,0.0,0.0,0.0,0.0,0.0,0.0,0.0,0.0,0.0,0.0,0.0,0.0,4.1111,4.1108,4.3177,4.4445,0.0,0.0,4.4306,4.356,4.4674,4.4059,3.9282,0.0,0.0,0.0,0.0,0.0,0.0,0.0,0.0,0.0,0.0,0.0,0.0,0.0,0.0,0.0,0.0,0.0,0.0,0.0,0.0,0.0,0.0,0.0,0.0,0.0,0.0,0.0,0.0,0.0,0.0,0.0,0.0,0.0,0.0,0.0,0.0,0.0,0.0,0.0,0.0,0.0,0.0,0.0,0.0,0.0,0.0,0.0,0.0,0.0,0.0,0.0,0.0,0.0,3.5215,3.7984,3.8687,3.9678,4.0973,3.9762,3.9059,3.9059,3.6552,3.5042,0.0,0.0,0.0,0.0,0.0,0.0,0.0,0.0,0.0,0.0,0.0,0.0,0.0,0.0,0.0,0.0,0.0,0.0,0.0,0.0,0.0,0.0,0.0,0.0,0.0,0.0,0.0,0.0,3.0789,3.0801,3.0801,0.0,0.0,0.0,0.0,0.0,0.0,0.0,0.0,0.0,0.0,4.2223,4.3291,4.476,0.0,0.0,4.552,4.5586,4.5246,4.4801,4.3663,4.119,4.0021,0.0,0.0,0.0,0.0,0.0,0.0,0.0,0.0,0.0,0.0,0.0,0.0,0.0,0.0,0.0,0.0,0.0,0.0,0.0,0.0,0.0,0.0,0.0,0.0,0.0,0.0,0.0,0.0,0.0,0.0,0.0,0.0,0.0,0.0,0.0,0.0,0.0,0.0,0.0,0.0,0.0,0.0,0.0,0.0,0.0,0.0,0.0,0.0,0.0,0.0,0.0,0.0,3.5171,3.8066,3.8123,3.8977,4.066,3.9078,3.82,3.8161,3.6171,3.494,0.0,0.0,0.0,0.0,0.0,0.0,0.0,0.0,0.0,0.0,0.0,0.0,0.0,0.0,0.0,0.0,0.0,0.0,0.0,0.0,0.0,0.0,0.0,0.0,0.0,0.0,0.0,0.0,3.118,3.1191,3.12,0.0,0.0,0.0,0.0,0.0,0.0,0.0,0.0,0.0,0.0,4.3608,4.5093,4.6013,4.6484,4.6236,4.6165,4.608,4.5809,4.5129,4.4031,4.217,0.0,0.0,0.0,0.0,0.0,0.0,0.0,0.0,0.0,0.0,0.0,0.0,0.0,0.0,0.0,0.0,0.0,0.0,0.0,0.0,0.0,0.0,0.0,0.0,0.0,0.0,0.0,0.0,0.0,0.0,3.0813,0.0,0.0,0.0,0.0,0.0,0.0,0.0,0.0,0.0,0.0,0.0,0.0,0.0,0.0,0.0,0.0,0.0,0.0,0.0,0.0,0.0,0.0,3.5508,3.7207,3.7337,3.8163,3.9743,3.818,3.7343,3.7323,3.6361,3.5467,3.4648,0.0,0.0,0.0,0.0,0.0,0.0,0.0,0.0,0.0,0.0,0.0,0.0,0.0,0.0,0.0,0.0,0.0,0.0,0.0,0.0,0.0,0.0,0.0,0.0,0.0,0.0,3.2087,3.2065,3.203,0.0,0.0,0.0,0.0,0.0,0.0,0.0,0.0,0.0,0.0,4.3205,4.5172,4.6034,4.6853,4.7104,4.6332,4.6183,4.5845,4.5045,4.6149,4.5783,0.0,0.0,0.0,0.0,0.0,0.0,0.0,0.0,0.0,0.0,0.0,0.0,0.0,0.0,0.0,0.0,0.0,0.0,0.0,0.0,0.0,0.0,0.0,0.0,0.0,0.0,0.0,3.2651,3.2443,0.0,0.0,0.0,0.0,0.0,0.0,0.0,0.0,0.0,0.0,0.0,3.4206,3.453,0.0,0.0,0.0,0.0,0.0,0.0,0.0,0.0,0.0,0.0,0.0,0.0,3.5695,3.7851,3.7434,3.8015,3.9705,3.8104,3.7225,3.7225,3.6362,3.577,3.5469,0.0,0.0,0.0,0.0,0.0,0.0,0.0,0.0,0.0,0.0,0.0,0.0,0.0,0.0,0.0,0.0,0.0,0.0,0.0,0.0,0.0,0.0,0.0,0.0,0.0,3.1564,0.0,0.0,0.0,0.0,0.0,0.0,0.0,0.0,0.0,0.0,0.0,4.0739,4.2502,4.4411,4.5749,4.6091,4.7315,4.7896,0.0,0.0,0.0,0.0,0.0,0.0,0.0,0.0,0.0,0.0,0.0,0.0,0.0,0.0,4.6075,4.2075,4.0888,4.0497,4.0497,0.0,0.0,0.0,0.0,0.0,0.0,0.0,0.0,0.0,0.0,0.0,0.0,0.0,0.0,0.0,0.0,3.3795,0.0,0.0,0.0,0.0,0.0,0.0,0.0,0.0,3.5136,3.5675,3.5912,3.6252,3.6431,0.0,3.6971,3.6933,0.0,0.0,0.0,0.0,0.0,0.0,0.0,0.0,3.6378,3.829,3.786,3.8157,3.9215,3.7947,3.7069,3.6756,3.6197,3.5892,3.5862,3.588,3.5639,0.0,0.0,0.0,0.0,0.0,0.0,0.0,0.0,0.0,0.0,0.0,0.0,0.0,0.0,0.0,0.0,0.0,0.0,0.0,0.0,0.0,0.0,0.0,3.1995,0.0,0.0,0.0,0.0,0.0,0.0,0.0,0.0,0.0,3.9995,4.0831,4.2235,4.4584,4.5804,4.6573,4.6919,0.0,0.0,0.0,0.0,0.0,0.0,0.0,4.6446,4.606,4.5611,4.5431,4.5921,4.7437,4.8502,4.8191,0.0,0.0,4.4695,4.353,4.3119,4.3119,4.3588,4.3979,4.3979,4.4656,4.5275,0.0,0.0,0.0,0.0,0.0,0.0,0.0,0.0,3.2101,3.3414,0.0,3.4787,0.0,0.0,0.0,0.0,0.0,3.4873,0.0,0.0,3.6262,3.6875,3.6211,3.6973,3.7344,3.7422,3.9023,3.8942,3.7306,3.6442,0.0,0.0,0.0,0.0,0.0,0.0,3.7544,3.8423,3.8464,3.8485,3.8489,3.7647,3.6787,3.5948,3.5892,3.5853,3.5807,3.5855,3.5899,3.5883,3.5883,0.0,0.0,0.0,0.0,0.0,0.0,0.0,0.0,0.0,0.0,0.0,0.0,0.0,0.0,0.0,0.0,0.0,0.0,0.0,0.0,3.5063,0.0,0.0,0.0,0.0,0.0,0.0,0.0,0.0,0.0,0.0,4.1201,4.192,4.359,4.6871,0.0,0.0,0.0,0.0,4.7392,4.7431,4.7392,4.7431,4.7412,4.8719,4.8916,4.6543,0.0,0.0,4.6485,4.7573,4.8483,4.7625,4.8269,4.8949,4.9673,4.825,4.7218,4.7256,4.7295,4.7412,4.7509,4.8133,4.8755,3.6748,0.0,0.0,0.0,0.0,3.5892,3.6888,3.8112,3.8976,3.8622,3.7397,3.7385,0.0,0.0,0.0,0.0,0.0,0.0,3.8171,3.8916,3.9638,3.9842,3.961,3.9862,3.998,4.0019,4.0441,4.0089,3.9011,3.8742,3.7668,3.5853,0.0,0.0,0.0,0.0,3.7837,3.92,3.8733,3.8417,3.8419,3.7578,3.672,3.5845,3.5826,3.5816,3.5801,3.5864,3.5887,3.589,3.5898,0.0,0.0,0.0,0.0,0.0,0.0,0.0,0.0,0.0,0.0,0.0,0.0,0.0,0.0,0.0,0.0,0.0,0.0,0.0,3.3174,3.396,3.4431,0.0,0.0,0.0,0.0,0.0,0.0,0.0,0.0,0.0,4.5062,4.5683,4.6424,0.0,0.0,4.901,4.8641,4.8913,4.9165,4.9165,4.9146,0.0,0.0,4.8522,4.8211,4.8699,4.9726,5.027,4.9804,5.0114,5.0364,5.0112,5.0286,5.0561,5.0658,4.9415,4.8522,4.901,4.9629,5.0248,5.0833,5.163,5.2218,4.1347,3.957,3.8336,3.8136,3.8673,3.9219,3.9842,4.0574,4.145,4.113,3.9998,4.0018,3.9321,3.8143,3.7486,0.0,0.0,0.0,4.0091,4.1108,4.1415,4.1755,4.2088,4.2063,4.2048,4.2047,4.2015,4.1373,4.0213,4.0177,3.9054,3.691,0.0,0.0,3.7607,3.7955,3.8652,3.9643,3.9511,3.9239,3.8907,3.7724,3.669,3.5834,3.6127,3.6164,3.5814,3.6188,3.623,3.5921,3.5882,3.5886,0.0,0.0,0.0,0.0,0.0,0.0,0.0,0.0,0.0,0.0,0.0,3.3859,3.3821,0.0,0.0,0.0,3.4878,3.4558,3.4033,3.5191,0.0,0.0,0.0,0.0,0.0,0.0,0.0,4.0075,4.1744,4.3979,4.687,4.7863,4.8629,4.9507,4.9462,4.9262,4.9104,0.0,4.9477,4.9807,4.9846,4.9969,5.0311,4.9495,4.9187,5.025,5.0833,5.118,5.1199,5.1199,5.1199,5.1199,5.1199,5.1199,5.1199,5.0328,4.9765,5.0331,5.1089,5.1921,5.274,5.3614,5.4294,4.4546,4.3674,4.1999,4.1269,4.1202,4.128,4.0909,4.0291,4.1148,4.183,4.2395,4.2414,4.2778,4.3285,4.1874,0.0,4.0147,4.1033,4.1469,4.1535,4.2262,4.3041,4.3781,4.3733,4.3718,4.3718,4.3692,4.2833,4.1252,4.1144,4.0249,3.8639,3.861,3.8571,3.8544,3.9295,3.9737,3.9798,4.0519,4.0499,3.9701,3.8052,3.6807,3.6049,3.6787,3.6828,3.6088,3.6785,3.6865,3.6149,3.6093,3.6108,3.6098,0.0,0.0,0.0,0.0,0.0,0.0,0.0,0.0,0.0,0.0,0.0,0.0,0.0,0.0,0.0,3.6685,0.0,3.7012,3.7793,0.0,0.0,0.0,3.811,3.7385,3.9439,4.0934,4.0992,0.0,0.0,4.7085,4.8603,4.9964,5.0951,4.9707,4.8987,4.9789,4.9333,4.9062,4.9883,4.9999,5.0303,5.1069,5.1111,5.1043,5.1084,5.1193,5.1193,5.1196,5.1219,5.1219,5.1199,5.1199,5.1258,5.128,5.126,5.1299,5.1394,5.1921,5.2659,5.3614,5.4407,5.5165,4.6364,4.5533,4.511,4.4191,4.3065,4.3692,4.3854,4.3781,4.46,4.4345,4.331,4.3287,4.2719,4.1699,4.1965,4.2341,4.2812,4.3678,4.4418,4.4998,4.5175,4.5403,4.5577,4.5508,4.5475,4.5471,4.543,4.4535,4.2978,4.2896,4.2015,4.0385,4.0287,3.9995,3.9429,3.9604,3.9992,4.0616,4.0808,4.0519,3.972,3.8654,3.7996,3.7782,3.7977,3.7996,3.7782,3.7966,3.7991,3.7819,3.7799,3.7796,3.7814,3.7184,0.0,0.0,0.0,0.0,0.0,0.0,0.0,0.0,0.0,3.6482,3.6423,0.0,3.6265,0.0,3.7901,3.7722,3.7085,3.7763,0.0,0.0,3.9143,3.9456,3.9841,4.1023,4.2045,4.2707,4.408,4.5553,4.703,4.7553,4.8412,4.9902,5.0342,5.0568,5.0781,5.1185,5.1236,5.0884,5.1252,5.1763,5.1967,5.2006,5.1816,5.1221,5.1128,5.1127,5.1127,5.1187,5.1199,5.1199,5.1199,5.1432,5.2015,5.2115,5.2368,5.2895,5.274,5.2873,5.4349,5.4854,5.5242,4.6626,4.6197,4.6197,4.5632,4.4793,4.5282,4.5477,4.5517,4.5983,4.5655,4.4766,4.4792,4.43,4.3468,4.3927,4.4391,4.4852,4.5322,4.578,4.6186,4.6175,4.6139,4.6151,4.6086,4.6046,4.6024,4.5658,4.4792,4.3527,4.3119,4.2223,4.0908,4.0888,4.065,4.0211,4.0221,4.0439,4.0888,4.0859,4.0446,3.9665,3.9204,3.8763,3.8386,3.8738,3.8764,3.8406,3.8773,3.8637,3.7879,3.7821,3.7812,3.7815,3.7366,3.7269,0.0,0.0,0.0,0.0,0.0,0.0,0.0,0.0,0.0,0.0,0.0,3.7259,3.8209,3.8634,3.8642,3.8166,3.8875,3.96,4.0028,4.0117,4.0313,4.0763,4.2224,4.3263,4.3362,4.5125,4.6535,4.71,4.7484,4.8069,4.906,4.9579,5.0051,5.0472,5.1178,5.1512,5.1106,5.1729,5.2414,5.2758,5.2524,5.2302,5.2205,5.1893,5.1751,5.2139,5.223,5.2282,5.2259,5.2282,5.2399,5.2848,5.2926,5.312,5.3411,5.3275,5.3498,5.4689,5.4974,5.5217,4.6295,4.6197,4.6197,4.6256,4.6373,4.6258,4.6201,4.6197,4.6201,4.6213,4.6213,4.6275,4.6305,4.6288,4.6302,4.6261,4.6211,4.6211,4.6204,4.6174,4.6128,4.6075,4.6082,4.6025,4.5982,4.5963,4.5183,4.4365,4.3486,4.2731,4.19,4.1099,4.1171,4.1139,4.0984,4.102,4.0991,4.0877,4.084,4.0458,3.9777,3.9757,3.9399,3.8702,3.9372,3.9444,3.8768,3.9448,3.9157,3.7702,3.7584,3.7586,3.7586,3.7487,3.7761,0.0,3.8557,0.0,0.0,0.0,0.0,0.0,0.0,0.0,0.0,3.854,3.8559,3.8443,3.9173,3.9655,3.9663,4.0335,4.0784,4.0765,4.0762,4.0803,4.0991,4.3005,4.4204,4.3675,4.6253,4.7785,4.7216,4.7684,4.8075,4.8214,4.8279,4.8565,4.9267,5.0252,5.0925,5.0801,5.1563,5.24,5.2791,5.2592,5.2517,5.3118,5.2718,5.2625,5.3338,5.352,5.3543,5.3543,5.3469,5.3582,5.3714,5.3772,5.3814,5.4031,5.4035,5.4208,5.4776,5.4948,5.5199,4.684,4.6217,4.6197,4.6626,4.7193,4.6507,4.6211,4.6199,4.6214,4.6235,4.6278,4.6302,4.6289,4.6301,4.6245,4.621,4.6211,4.6202,4.6173,4.612,4.6105,4.6064,4.6013,4.6012,4.5982,4.5941,4.5183,4.4345,4.3508,4.3271,4.2773,4.1994,4.2604,4.2571,4.1887,0.0,0.0,0.0,4.0809,4.0729,4.0593,4.0574,4.0499,4.033,4.0542,0.0,4.0446,4.0585,4.0517,4.0208,4.0189,0.0,0.0,0.0,0.0,0.0,0.0,0.0,0.0,0.0,0.0,0.0,3.9493,3.9087,3.9255,3.9831,3.9908,3.9293,3.9921,4.0417,4.0462,4.0555,4.0651,4.0635,4.0631,4.0921,4.1628,4.2779,4.3868,4.514,4.5885,4.6515,4.6947,4.6623,4.6588,4.7229,4.7352,4.7389,4.759,4.9459,5.0573,5.019,5.1293,5.1974,5.1455,5.1916,5.2295,5.2407,5.2411,5.262,5.3375,5.3614,5.3617,5.3656,5.3601,5.3888,5.4505,5.4664,5.485,5.5555,5.5672,5.5544,5.505,5.493,5.5156,4.6994,0.0,4.6195,4.6469,0.0,4.6377,4.6211,4.6205,4.6205,4.6204,4.6255,4.6247,4.625,4.625,4.6208,4.6179,4.6144,4.6142,4.6115,4.6059,4.6059,4.6012,4.5982,4.5982,4.5982,4.5963,4.5183,4.4551,4.4089,4.3627,4.3178,4.2765,4.3154,4.3136,4.2695,4.227,4.1634,4.0803,4.0803,4.0803,4.0803,4.0803,4.0809,4.0801,0.0,0.0,0.0,0.0,0.0,0.0,0.0,0.0,0.0,0.0,0.0,4.0264,4.026,4.024,4.021,4.0198,4.0327,4.0655,4.0307,4.0059,4.004,4.038,4.0428,4.0052,4.037,4.0617,4.0654,4.0621,4.0591,4.0591,4.0591,4.0935,4.1838,4.3075,4.4334,4.5468,4.6105,4.6576,4.695,4.6275,4.5951,4.6318,4.641,4.6452,4.6645,4.8284,4.9684,5.0244,5.1738,5.2685,5.2279,5.2086,5.238,5.2674,5.2512,5.2814,5.3932,5.4184,5.4312,5.4661,5.4796,5.4971,5.53,5.5435,5.5567,5.5982,5.6098,5.5997,5.5532,5.5471,5.5603,4.6858,4.6206,4.6213,4.6378,4.6635,4.6471,4.6422,4.6404,0.0,0.0,0.0,4.6255,4.6203,4.6202,4.6176,4.615,4.61,4.6086,4.6061,4.6002,4.5982,4.5982,4.5982,4.5982,4.5982,4.5944,4.5159,4.4771,4.4672,4.3959,4.3579,4.3534,4.3524,4.3373,4.3034,4.2222,4.1471,4.0832,4.0794,4.0794,4.0794,4.0794,4.0806,4.0811,4.0797,4.084,4.0884,4.0872,4.0657,4.0158,3.9985,3.9988,4.0128,3.9992,4.0206,4.082,4.0895,4.0864,4.0801,4.0784,4.081,4.0896,4.0845,4.0746,4.0616,4.0596,4.0596,4.06,4.0577,4.0596,4.0581,4.0593,4.0574,4.0574,4.0728,4.1164,4.2047,4.3489,4.4878,4.5942,4.6644,4.7053,4.7171,4.6663,4.5985,4.5792,4.5955,4.5851,4.5985,4.7205,4.8798,5.0322,5.1583,5.2689,5.2859,5.2376,5.2341,5.296,5.2612,5.2805,5.4078,5.4581,5.4832,5.5165,5.5543,5.5528,5.5698,5.5687,5.5834,5.5969,5.6008,5.6008,5.6012,5.6037,5.6043,4.6323,4.6206,4.6205,4.7012,4.831,4.7614,4.7284,4.715,4.6437,4.6533,4.7186,4.6498,4.6203,4.6201,4.6139,4.6109,4.6096,4.6043,4.6015,0.0,4.5982,4.5982,4.5982,4.5982,4.5982,4.5921,4.5118,4.4713,4.4686,4.4517,4.4424,4.4418,4.4427,4.3676,4.2241,4.1374,4.091,4.0794,4.0794,4.0794,4.0794,4.0794,4.0797,4.08,4.0805,4.08,4.0809,4.0818,4.1136,4.1786,4.1143,4.1058,4.1762,4.1121,4.0798,4.089,4.0848,4.0798,4.0806,4.0745,4.1012,4.1651,4.1678,4.1339,4.0665,4.055,4.0546,4.0592,4.0573,4.0546,4.0588,4.0554,4.0516,4.0573,4.1201,4.1966,4.2798,4.3778,4.5265,4.7344,4.7231,4.7187,4.7738,4.7717,4.703,4.6152,4.6154,4.6487,4.6047,4.6588,4.7943,4.9397,5.0051,5.0519,5.1242,5.1211,5.1424,5.2244,5.2186,5.226,5.3362,5.3575,5.3691,5.3884,5.4039,5.4271,5.4851,5.4987,5.5316,5.5814,5.6008,5.6008,5.6008,5.6016,5.602,4.6651,4.6269,4.6206,4.6905,4.8046,4.811,4.8102,4.7979,4.7127,4.6721,4.6627,4.6245,4.6091,4.6087,4.6069,4.605,4.6028,4.6022,4.5982,4.5982,4.5982,4.5982,4.5982,4.5982,4.5991,4.5975,4.5612,4.5373,4.5362,4.5309,4.5286,4.5228,4.4817,4.3746,4.2086,4.1645,4.1238,4.0813,4.0794,4.0794,4.0794,4.0794,4.0794,4.0794,4.0806,4.0802,4.0797,4.0812,4.099,4.1427,4.1058,4.1027,4.139,4.1504,4.1343,4.0903,4.1264,4.1296,4.0817,4.1142,4.1301,4.1227,4.1589,4.1435,4.0596,4.0508,4.0712,4.1166,4.0808,4.05,4.0539,4.0504,4.0492,4.0492,4.1277,4.2139,4.3008,4.3833,4.5338,4.7475,4.6969,4.6704,4.7952,4.7335,4.6602,4.5783,4.6082,4.6111,4.5768,4.6051,4.6974,4.8601,4.9678,5.0374,5.0741,5.0433,5.0426,5.0758,5.0411,5.0728,5.1738,5.2101,5.2488,5.3304,5.3478,5.3846,5.4581,5.4813,5.5161,5.5776,5.6008,5.6008,5.6008,5.601,5.6001,4.6878,4.6303,4.6245,4.6699,4.7548,4.8344,4.8557,4.8252,4.757,4.6839,4.6138,4.6018,4.5982,4.5982,4.5982,4.5982,4.5982,4.5982,4.5982,4.5982,4.5982,4.5982,4.5982,4.5982,4.5983,4.6,4.5989,4.5956,4.5903,4.5893,4.5637,4.5197,4.4617,4.3534,4.2038,4.1812,4.1509,4.1084,4.0893,4.0794,4.0794,4.0794,4.0794,4.0794,4.0794,4.0806,4.0808,4.0808,4.0977,4.1338,4.1012,4.0976,4.1369,4.1831,4.179,4.1241,4.1894,4.2082,4.1458,4.2035,4.2159,4.1501,4.1832,4.1893,4.1416,4.0804,4.0762,4.1316,4.0862,4.0496,4.0496,4.0496,4.0569,4.0781,4.1373,4.2139,4.2989,4.3662,4.5009,4.7124,4.6509,4.6191,4.7201,4.6874,4.6225,4.6056,4.5779,4.5665,4.5688,4.579,4.6597,4.7724,4.9125,4.9841,5.0126,4.9727,4.9381,4.9284,4.8883,4.9301,5.0252,5.0619,5.1125,5.2382,5.2811,5.2962,5.3681,5.401,5.4276,5.4755,5.5156,5.5702,5.5949,5.596,5.5984,4.6358,4.6286,4.6228,4.6664,4.7474,4.8256,4.8183,4.7489,4.7334,4.6815,4.6054,4.5985,4.5999,4.5982,4.5982,4.5982,4.5982,4.5982,4.5982,4.5982,4.5982,4.5982,4.5982,4.5982,4.5986,4.5997,4.5929,4.5915,4.5893,4.5843,4.5016,4.3638,4.3423,4.2995,4.2024,4.13,4.1238,4.1854,4.1161,4.0794,4.0794,4.0794,4.0794,4.0794,4.0813,4.0794,4.0858,4.08,4.1531,4.2853,4.1655,4.1531,4.2859,4.251,4.2088,4.2001,4.2734,4.3124,4.3032,4.3732,4.4017,4.3929,4.3224,4.3162,4.359,4.1766,4.0535,4.0666,4.0589,4.0512,4.0492,4.0512,4.0762,4.1373,4.1677,4.2158,4.2874,4.3143,4.4182,4.6716,4.6109,4.5975,4.687,4.7255,4.7317,4.6428,4.5926,4.5492,4.5396,4.6069,4.6493,4.6886,4.7281,4.776,4.8381,4.8505,4.8413,4.8413,4.834,4.8642,4.9264,4.9684,5.0004,5.1202,5.1267,5.1426,5.1537,5.1741,5.2459,5.2936,5.38,5.4964,5.5649,5.589,5.5899,4.6305,4.6306,4.623,4.6644,4.7403,4.823,4.8108,4.7328,4.7269,4.6759,4.6005,4.595,4.5967,4.5999,4.5982,4.5982,4.5982,4.5982,4.5982,4.5982,4.5982,4.5982,4.5982,4.5982,4.5986,4.5994,4.5923,4.5864,4.5824,4.5787,4.5109,4.4028,4.3939,4.3294,4.2088,4.166,4.1464,4.1296,4.0971,4.0794,4.0852,4.1277,4.1509,4.1529,4.1509,4.1509,4.1509,4.1509,4.1864,4.2515,4.2357,4.2592,4.3308,4.3479,4.3353,4.2896,4.3069,4.3229,4.3222,4.3956,4.4163,4.3647,4.3297,4.3066,4.2816,4.1854,4.1258,4.12,4.08,4.0666,4.1143,4.0796,4.065,4.1031,4.147,4.1985,4.2277,4.3235,4.447,4.5821,4.5379,4.5379,4.6485,4.6721,4.6302,4.5643,4.5379,4.5282,4.4455,4.524,4.5797,4.5494,4.5394,4.6258,4.7595,4.7748,4.7525,4.7383,4.7057,4.7131,4.8405,4.8775,4.92,5.0508,5.0677,5.0754,5.0921,5.1438,5.2017,5.1974,5.263,5.4019,5.4366,5.5167,5.5702,4.6293,4.6277,4.6202,4.6479,4.6965,4.7583,4.7516,4.6947,4.6867,4.649,4.5931,4.5892,4.5935,4.5972,4.5978,4.5975,4.5978,4.5978,4.5983,4.5989,4.5989,4.5989,4.5991,4.5989,4.5989,4.5974,4.5925,4.5861,4.5809,4.5723,4.5252,4.4523,4.4411,4.3817,4.2785,4.247,4.2166,4.189,4.1625,4.149,4.1587,4.2067,4.2241,4.2009,4.1796,4.1777,4.199,4.199,4.2106,4.2357,4.2976,4.3417,4.3669,4.4249,4.44,4.4065,4.394,4.3904,4.3898,4.4418,4.4474,4.3844,4.3412,4.2831,4.2273,4.1946,4.1927,4.21,4.1585,4.155,4.1927,4.1585,4.132,4.1531,4.2008,4.2158,4.2273,4.3335,4.4244,4.5013,4.4513,4.4509,4.572,4.5643,4.5071,4.4609,4.4859,4.4782,4.3662,4.4321,4.5013,4.4417,4.4513,4.5302,4.6701,4.6243,4.5956,4.5868,4.5412,4.5895,4.7291,4.7619,4.8463,4.9713,5.0174,5.0429,5.0339,5.0926,5.1552,5.1263,5.1803,5.2805,5.3017,5.4303,5.5228,4.6301,4.6267,4.6149,4.6072,4.5995,4.6066,4.6047,4.6066,4.6005,4.5944,4.5886,4.5889,4.5892,4.5895,4.5914,4.5914,4.5898,4.5898,4.5935,4.5997,4.6,4.5997,4.6,4.5997,4.5968,4.5919,4.5883,4.5863,4.5807,4.5727,4.526,4.4468,4.4473,4.4423,4.4071,4.3399,4.3531,4.381,4.3253,4.3069,4.3105,4.3163,4.2815,4.2157,4.1296,4.1313,4.1948,4.2009,4.2373,4.3189,4.3337,4.3743,4.4439,4.461,4.4928,4.5502,4.563,4.5596,4.5505,4.5523,4.5503,4.5233,4.3985,4.3104,4.3028,4.2442,4.2365,4.297,4.3028,4.3051,4.3085,4.2835,4.3032,4.3628,4.3335,4.3028,4.2989,4.3066,4.3508,4.4066,4.372,4.3682,4.4374,4.4393,4.4355,4.4239,4.4321,4.4028,4.3412,4.3816,4.4397,4.4513,4.4801,4.5302,4.4662,4.4575,4.394,4.3848,4.4534,4.4722,4.5541,4.6479,4.7831,4.8932,4.9562,4.985,4.974,4.9966,5.05,5.062,5.076,5.1357,5.1944,5.3435,5.4435,4.625,4.6173,4.6126,4.601,4.5898,4.5906,4.5899,4.5893,4.5835,4.5844,4.5825,4.5844,4.5844,4.5848,4.5844,4.5848,4.5889,4.5892,4.5898,4.5926,4.5949,4.5946,4.5946,4.5946,4.5917,4.589,4.5867,4.5794,4.5734,4.5662,4.5479,4.5259,4.5167,4.4687,4.3732,4.3285,4.3096,4.2874,4.2534,4.2665,4.3232,4.3229,4.3302,4.346,4.2252,4.1943,4.2734,4.2776,4.2911,4.3236,4.4221,4.4974,4.5244,4.5302,4.5414,4.5688,4.5742,4.5734,4.5705,4.5652,4.5631,4.5518,4.454,4.3844,4.3823,4.3579,4.3532,4.387,4.4417,4.4667,4.4474,4.3758,4.3201,4.3412,4.3297,4.3162,4.3085,4.3104,4.3239,4.3431,4.3239,4.3258,4.3451,4.3547,4.3547,4.3585,4.397,4.3643,4.2951,4.3816,4.4878,4.4451,4.4532,4.4667,4.4432,4.4162,4.3855,4.3585,4.3763,4.4209,4.4878,4.6317,4.7711,4.8076,4.8764,4.9649,4.9634,4.913,4.9606,4.9995,5.0149,5.0592,5.1068,5.2549,5.3626,4.6222,4.6103,4.6114,4.5987,4.5867,4.5854,4.586,4.586,4.5837,4.5803,4.5803,4.5803,4.5803,4.5803,4.5803,4.5831,4.5874,4.5877,4.5864,4.5893,4.5893,4.5893,4.5893,4.5893,4.5899,4.587,4.5805,4.5743,4.5705,4.5616,4.5622,4.5616,4.5635,4.5098,4.4094,4.3925,4.3628,4.3204,4.313,4.3478,4.3921,4.3725,4.3987,4.4446,4.3234,4.274,4.3539,4.3597,4.3582,4.3774,4.4951,4.5684,4.5684,4.5684,4.568,4.5684,4.5679,4.5693,4.5657,4.5614,4.5577,4.5552,4.4801,4.4307,4.4312,4.431,4.431,4.4485,4.5071,4.5594,4.5398,4.4571,4.3917,4.3912,4.3897,4.3778,4.3551,4.3758,4.3624,4.3258,4.3124,4.3104,4.3124,4.3374,4.3374,4.3181,4.3778,4.3585,4.2527,4.3605,4.5013,4.4494,4.4624,4.4628,4.4432,4.4201,4.347,4.3124,4.2989,4.347,4.4028,4.5663,4.6797,4.7201,4.8067,4.913,4.9336,4.8716,4.8836,4.9341,4.9668,5.0072,5.0798,5.1645,5.2664,4.6214,4.611,4.6119,4.6003,4.5811,4.581,4.5807,4.5807,4.5807,4.5803,4.5803,4.5803,4.5803,4.58,4.5816,4.5803,4.5803,4.5784,4.5847,4.5874,4.59,4.59,4.59,4.5877,4.5866,4.5803,4.5734,4.569,4.5686,4.5633,4.5644,4.5678,4.5682,4.5544,4.5549,4.531,4.5449,4.5275,4.5152,4.5387,4.5569,4.4797,4.4762,4.5335,4.404,4.3613,4.4369,4.4353,4.4272,4.4392,4.519,4.5665,4.5696,4.5673,4.568,4.569,4.5678,4.5657,4.5618,4.5535,4.5535,4.55,4.4815,4.4441,4.45,4.4447,4.4442,4.4586,4.5109,4.5594,4.5594,4.5441,4.5344,4.5556,4.5302,4.4994,4.4667,4.4998,4.4898,4.3378,4.2874,4.3028,4.3201,4.3301,4.3359,4.3278,4.3643,4.3758,4.2643,4.3701,4.4278,4.4551,4.4898,4.509,4.4686,4.4201,4.3235,4.2446,4.2369,4.2523,4.2624,4.372,4.4759,4.5393,4.7197,4.8336,4.9745,4.924,4.9202,4.9553,4.9649,4.9837,5.0476,5.1241,5.1832,4.6213,4.6105,4.6119,4.5998,4.5821,4.5803,4.5803,4.5803,4.5803,4.5803,4.5803,4.5803,4.5809,4.581,4.5806,4.5772,4.5727,4.5727,4.578,4.5833,4.5821,4.5824,4.5843,4.5843,4.5816,4.5784,4.5735,4.5684,4.5684,4.5691,4.5676,4.5684,4.5688,4.5403,4.4955,4.4831,4.4812,4.4808,4.4764,4.4998,4.5541,4.5364,4.5374,4.5539,4.5073,4.4981,4.5182,4.4662,4.4354,4.4358,4.5152,4.5633,4.5637,4.5637,4.5629,4.5635,4.5631,4.5631,4.5614,4.5596,4.5573,4.5543,4.5277,4.5181,4.5192,4.5136,4.5117,4.5158,4.5455,4.5594,4.5594,4.5594,4.5594,4.5594,4.5594,4.5513,4.5109,4.4455,4.3436,4.2389,4.1681,4.1608,4.1989,4.2258,4.2397,4.2989,4.3355,4.3335,4.3624,4.4128,4.5148,4.5267,4.5532,4.5417,4.4955,4.4513,4.3874,4.2931,4.2485,4.1797,4.1739,4.2027,4.297,4.4248,4.6035,4.7583,4.9019,4.9735,4.9585,4.9865,5.0158,5.0284,5.0337,5.0745,5.1344,4.6039,4.5639,4.5616,4.5512,4.5369,4.5339,4.5533,4.5765,4.5803,4.5803,4.5803,4.5809,4.5814,4.5807,4.5769,4.5731,4.5688,4.5684,4.5712,4.576,4.5801,4.5809,4.58,4.5809,4.581,4.5784,4.5723,4.5684,4.5684,4.5684,4.5712,4.5727,4.5731,4.5519,4.5013,4.4897,4.4869,4.4888,4.4842,4.5051,4.5479,4.5594,4.5594,4.5594,4.5594,4.5594,4.5552,4.5071,4.4782,4.4859,4.5344,4.5575,4.5594,4.5594,4.5594,4.5594,4.5594,4.5594,4.559,4.5573,4.5577,4.5577,4.5546,4.5522,4.5573,4.5559,4.5568,4.5586,4.5594,4.5594,4.5594,4.5594,4.5594,4.5594,4.5594,4.5594,4.5398,4.4374,4.3489,4.2835,4.2124,4.1873,4.195,4.2297,4.195,4.2681,4.3162,4.3201,4.3701,4.4008,4.4494,4.4821,4.4859,4.4859,4.5013,4.4763,4.4474,4.3666,4.2874,4.1816,4.1147,4.1508,4.222,4.3516,4.5146,4.6362,4.7758,4.8968,4.9366,4.9948,5.0256,5.0469,5.0401,5.0378,5.0892,4.559,4.4788,4.4723,4.464,4.4533,4.4617,4.5045,4.5629,4.58,4.5816,4.5812,4.578,4.58,4.5789,4.5735,4.5696,4.5677,4.5669,4.5692,4.5712,4.5762,4.5792,4.5805,4.5806,4.5815,4.5788,4.5735,4.5719,4.5708,4.5708,4.5735,4.5788,4.5792,4.5792,4.5649,4.5712,4.5615,4.5574,4.5548,4.556,4.5594,4.5594,4.5594,4.5594,4.5594,4.5594,4.5575,4.5494,4.5518,4.5575,4.5552,4.5594,4.5594,4.5594,4.5594,4.5594,4.5594,4.5594,4.5586,4.554,4.555,4.5586,4.5559,4.5522,4.5601,4.5586,4.5586,4.559,4.5594,4.5594,4.5594,4.5594,4.5594,4.5594,4.5594,4.5594,4.5532,4.4782,4.4162,4.397,4.3566,4.297,4.2739,4.3201,4.2816,4.2527,4.3028,4.3028,4.2874,4.3085,4.3124,4.3489,4.4028,4.4128,4.4244,4.4301,4.3996,4.3515,4.2852,4.2016,4.1029,4.1274,4.2132,4.3373,4.4303,4.5424,4.6544,4.785,4.8642,4.8869,4.9354,5.0082,5.0372,5.0274,5.0685,4.4183,4.3846,4.3843,4.3762,4.3747,4.4288,4.4713,4.4981,4.5559,4.5806,4.5795,4.5762,4.5727,4.5714,4.5702,4.5662,4.5642,4.5633,4.565,4.5717,4.5726,4.5758,4.5792,4.5815,4.5803,4.5798,4.5792,4.5769,4.5775,4.5768,4.5778,4.5809,4.5805,4.5809,4.5805,4.5788,4.575,4.5707,4.5667,4.5663,4.5599,4.5594,4.5594,4.5594,4.5594,4.5594,4.5594,4.5594,4.5594,4.5594,4.5594,4.5594,4.5594,4.5594,4.5594,4.5594,4.5594,4.5594,4.559,4.5581,4.5601,4.559,4.5577,4.5596,4.559,4.5594,4.5594,4.5594,4.5594,4.5594,4.5594,4.5594,4.5594,4.5594,4.5594,4.5594,4.546,4.4859,4.4316,4.4182,4.3104,4.2485,4.2273,4.2027,4.1854,4.1873,4.2196,4.2573,4.2326,4.2398,4.2601,4.2953,4.3346,4.3374,4.3451,4.357,4.3453,4.3087,4.2661,4.2307,4.1542,4.1298,4.2544,4.3967,4.4303,4.5217,4.605,4.7087,4.7428,4.8118,4.8986,4.9905,4.9968,4.9967,5.0702,4.3402,4.2965,4.2945,4.2868,4.2873,4.3669,4.4249,4.4726,4.5435,4.5807,4.5796,4.5727,4.5687,4.5678,4.5661,4.564,4.5594,4.5594,4.5627,4.5652,4.5673,4.573,4.5792,4.5803,4.5805,4.58,4.5801,4.5805,4.58,4.5803,4.5803,4.5803,4.5803,4.5803,4.58,4.5806,4.5765,4.5708,4.5683,4.5676,4.5599,4.5594,4.5594,4.5594,4.5594,4.5594,4.5594,4.5594,4.5594,4.5594,4.5594,4.5594,4.5594,4.5594,4.5594,4.5594,4.5594,4.5594,4.5594,4.5594,4.5594,4.5594,4.5594,4.5594,4.5594,4.5594,4.5594,4.5594,4.5594,4.5594,4.5594,4.5594,4.5594,4.5594,4.5594,4.5594,4.5594,4.5186,4.4898,4.4532,4.3739,4.2677,4.2427,4.1854,4.1489,4.1412,4.1619,4.1747,4.1701,4.1912,4.1958,4.2051,4.229,4.231,4.2464,4.2636,4.2953,4.2631,4.2422,4.2129,4.1806,4.1381,4.226,4.341,4.4121,4.4825,4.5497,4.6382,4.7516,4.8281,4.9062,4.9514,4.965,4.9648,5.0415,4.2895,4.2088,4.2146,4.2071,4.2089,4.2992,4.3882,4.4513,4.5386,4.5796,4.5762,4.573,4.5673,4.5688,4.5635,4.5594,4.5594,4.5594,4.5594,4.5631,4.568,4.5726,4.5769,4.581,4.5812,4.5803,4.5803,4.5803,4.5803,4.5803,4.5803,4.5803,4.5803,4.5803,4.58,4.581,4.5757,4.5719,4.5718,4.5673,4.5616,4.5599,4.5594,4.5594,4.5594,4.5594,4.5594,4.5594,4.5594,4.5594,4.5594,4.5594,4.5594,4.5594,4.5594,4.5594,4.5594,4.5594,4.5594,4.5594,4.5594,4.5594,4.5594,4.5594,4.5594,4.5594,4.5594,4.5594,4.5594,4.5594,4.5594,4.5594,4.5594,4.5594,4.5594,4.5594,4.5594,4.5594,4.5594,4.5537,4.4782,4.3993,4.3474,4.3028,4.2566,4.1919,4.1875,4.1738,4.1508,4.1318,4.0968,4.0449,4.0779,4.1186,4.1419,4.167,4.2077,4.2227,4.2084,4.1883,4.1731,4.1569,4.1901,4.2564,4.3436,4.408,4.4606,4.5722,4.7095,4.7897,4.8295,4.8995,4.9538,4.9389,4.9781,4.1547,4.1304,4.1947,4.1758,4.1492,4.334,4.4017,4.3704,4.5109,4.5642,4.5684,4.5631,4.5612,4.5627,4.5618,4.5594,4.5594,4.5594,4.5594,4.5599,4.5661,4.5691,4.5723,4.5781,4.5814,4.5816,4.5803,4.5803,4.5803,4.5803,4.5803,4.5803,4.5803,4.5803,4.58,4.5816,4.5794,4.5754,4.5735,4.571,4.5665,4.5631,4.5614,4.5594,4.5594,4.5594,4.5594,4.5594,4.5594,4.5594,4.5594,4.5594,4.5594,4.5594,4.5594,4.5594,4.5594,4.5594,4.5594,4.5594,4.5594,4.5594,4.5594,4.5594,4.5594,4.5594,4.5594,4.5594,4.5594,4.5594,4.5594,4.5594,4.5594,4.5594,4.5594,4.5594,4.5594,4.5594,4.5594,4.5421,4.4859,4.422,4.3989,4.3355,4.2927,4.2549,4.2249,4.2011,4.1479,4.0897,4.0293,3.9713,3.9948,4.0401,4.0418,4.0679,4.0999,4.143,4.1476,4.1507,4.136,4.1542,4.1788,4.2247,4.2835,4.3444,4.4135,4.4904,4.6243,4.6866,4.759,4.8298,4.8838,4.8862,4.9162,4.1495,4.1112,4.1472,4.1332,4.1156,4.2618,4.3114,4.3072,4.4403,4.5086,4.5179,4.5417,4.5594,4.5594,4.5594,4.5594,4.5594,4.5594,4.5594,4.5599,4.5644,4.5667,4.57,4.5731,4.5784,4.5796,4.5803,4.5803,4.5803,4.5803,4.5803,4.5803,4.5803,4.5803,4.5803,4.5803,4.5805,4.5792,4.5765,4.5746,4.5705,4.568,4.5646,4.5599,4.5594,4.5594,4.5594,4.5594,4.5594,4.5594,4.5594,4.5594,4.5594,4.5594,4.5594,4.5594,4.5594,4.5594,4.5594,4.5594,4.5594,4.5594,4.5594,4.5594,4.5594,4.5594,4.5594,4.5594,4.5594,4.5594,4.5594,4.5594,4.5594,4.5594,4.5594,4.5594,4.5594,4.5594,4.5594,4.5421,4.4821,4.4451,4.4066,4.3701,4.3284,4.2926,4.2109,4.1824,4.1181,4.059,3.9986,3.9557,3.9616,3.9684,3.9551,3.9652,3.9851,4.0292,4.0651,4.0784,4.0857,4.1182,4.1597,4.2014,4.243,4.3351,4.4061,4.4785,4.5528,4.6498,4.7295,4.7793,4.8238,4.8624,4.8912,4.1656,4.1085,4.116,4.1071,4.1044,4.1886,4.2237,4.2243,4.3547,4.4306,4.4507,4.5158,4.5359,4.5575,4.5594,4.5594,4.5594,4.5594,4.5594,4.5594,4.5599,4.5631,4.5692,4.5715,4.5754,4.5796,4.5803,4.5803,4.5803,4.5803,4.5803,4.5803,4.5803,4.5803,4.5803,4.5803,4.5812,4.5803,4.5804,4.575,4.5706,4.5686,4.5676,4.5618,4.5594,4.5594,4.5594,4.5594,4.5594,4.5594,4.5594,4.5594,4.5594,4.5594,4.5594,4.5594,4.5594,4.5594,4.5594,4.5594,4.5594,4.5594,4.5594,4.5594,4.5594,4.5594,4.5594,4.5594,4.5594,4.5594,4.5594,4.5594,4.5594,4.5594,4.5594,4.5594,4.5594,4.5594,4.5594,4.5513,4.5148,4.484,4.4551,4.4224,4.3765,4.3252,4.2441,4.1724,4.1181,4.057,4.0139,3.9566,3.9582,3.9433,3.9287,3.9298,3.943,3.9769,4.0107,4.0248,4.0464,4.078,4.117,4.1523,4.208,4.3084,4.3931,4.4544,4.5361,4.6327,4.6995,4.746,4.7943,4.8444,4.876,4.06,4.1075,4.1787,4.1617,4.1127,4.2396,4.2522,4.2137,4.2892,4.3713,4.431,4.4519,4.4998,4.5402,4.5594,4.5594,4.5594,4.5594,4.5594,4.5594,4.5599,4.5642,4.5673,4.5688,4.5734,4.5786,4.5803,4.5803,4.5803,4.5803,4.5803,4.5803,4.5803,4.5803,4.5803,4.5803,4.5803,4.5805,4.5803,4.5765,4.5715,4.569,4.5657,4.5599,4.5594,4.5594,4.5594,4.5594,4.5594,4.5594,4.5594,4.5594,4.5594,4.5594,4.5594,4.5594,4.5594,4.5594,4.5594,4.5594,4.5594,4.5594,4.5594,4.5594,4.5594,4.5594,4.5594,4.5594,4.5594,4.5594,4.5594,4.5594,4.5594,4.5594,4.5594,4.5594,4.5594,4.5594,4.5577,4.5497,4.5357,4.5241,4.4946,4.4765,4.456,4.4135,4.3523,4.2877,4.236,4.1577,4.0833,4.0205,3.9602,3.9374,3.9124,3.9175,3.931,3.9695,3.9988,4.0018,4.0204,4.039,4.0743,4.1542,4.2266,4.3188,4.3875,4.4321,4.5435,4.6568,4.6921,4.7163,4.7831,4.8481,4.8742,4.0719,4.1098,4.149,4.1331,4.1031,4.1604,4.1706,4.1409,4.2109,4.2707,4.3262,4.3931,4.4545,4.4979,4.5455,4.5594,4.559,4.5594,4.5594,4.5594,4.5599,4.5642,4.568,4.5684,4.5738,4.5786,4.5803,4.5803,4.5803,4.5803,4.5803,4.5803,4.5803,4.5803,4.5803,4.5803,4.5803,4.58,4.5801,4.5765,4.5704,4.5686,4.5631,4.5599,4.5594,4.5594,4.5594,4.5594,4.5594,4.5594,4.5594,4.5594,4.5594,4.5594,4.5594,4.5594,4.5594,4.5594,4.5594,4.5594,4.5594,4.5594,4.5594,4.5594,4.5594,4.5594,4.5594,4.5594,4.5594,4.5594,4.5594,4.5594,4.5594,4.5594,4.5594,4.5594,4.559,4.559,4.5513,4.5443,4.5399,4.5342,4.528,4.5179,4.5255,4.496,4.447,4.392,4.3333,4.2315,4.1263,4.0427,3.9702,3.9312,3.9101,3.912,3.9157,3.9535,3.9851,3.9888,4.0197,4.0501,4.1274,4.2166,4.2872,4.3262,4.3503,4.3875,4.5324,4.6643,4.6773,4.707,4.7887,4.8481,4.8742,4.0428,4.0603,4.0723,4.0738,4.0673,4.0711,4.0712,4.077,4.1319,4.1751,4.2079,4.3203,4.3976,4.4474,4.512,4.5577,4.5577,4.5577,4.5573,4.5577,4.559,4.5642,4.5684,4.5696,4.5727,4.5793,4.5803,4.5803,4.5803,4.5803,4.5803,4.5803,4.5803,4.5803,4.5803,4.5803,4.5803,4.5803,4.5803,4.5764,4.5708,4.565,4.5599,4.5594,4.5594,4.5594,4.5594,4.5594,4.5594,4.5594,4.5594,4.5594,4.5594,4.5594,4.5594,4.5594,4.5594,4.5594,4.5594,4.5594,4.5594,4.5594,4.5594,4.5594,4.5594,4.5594,4.5594,4.5594,4.5594,4.5594,4.5594,4.5594,4.5594,4.5594,4.5594,4.559,4.5573,4.5508,4.5308,4.5298,4.54,4.5307,4.5129,4.5091,4.5052,4.4852,4.4392,4.4125,4.3467,4.2379,4.1374,4.0501,3.9795,3.9312,3.9101,3.9101,3.912,3.925,3.9591,3.9777,4.026,4.0743,4.1609,4.2378,4.2694,4.3028,4.3188,4.3819,4.5379,4.6401,4.6531,4.7125,4.8166,4.863,4.8816,3.8203,3.8962,3.972,3.9951,3.9943,4.0472,4.0718,4.0662,4.0714,4.1116,4.1732,4.2132,4.3036,4.4216,4.5084,4.5455,4.5513,4.5537,4.5522,4.555,4.5586,4.5627,4.5696,4.5684,4.5734,4.5793,4.5803,4.5803,4.5803,4.5803,4.5803,4.5803,4.5803,4.5803,4.5803,4.5803,4.5803,4.5803,4.5803,4.5764,4.5712,4.5694,4.5652,4.5603,4.5594,4.5594,4.5594,4.5594,4.5594,4.5594,4.5594,4.5594,4.5594,4.5594,4.5594,4.5594,4.5594,4.5594,4.5594,4.5594,4.5594,4.5594,4.5594,4.5594,4.5594,4.5594,4.5594,4.5594,4.5594,4.5594,4.5594,4.5594,4.5594,4.5594,4.5594,4.5581,4.5559,4.541,4.5222,4.496,4.4971,4.4914,4.48,4.4788,4.4763,4.4554,4.4343,4.4092,4.3636,4.2623,4.143,4.0538,4.0204,3.9777,3.9268,3.925,3.9349,3.9287,3.9665,3.9981,4.0538,4.1144,4.1597,4.2248,4.2564,4.3336,4.4153,4.4952,4.5844,4.642,4.6884,4.7683,4.863,4.8853,4.8909,3.8082,3.9263,3.9191,3.9066,3.9017,3.9814,4.0114,4.0131,4.0452,4.0815,4.1228,4.1701,4.2763,4.4085,4.4715,4.5095,4.543,4.5455,4.5522,4.5491,4.5535,4.5609,4.57,4.5731,4.5776,4.5789,4.5803,4.5803,4.5803,4.5784,4.5803,4.5803,4.5803,4.5803,4.5803,4.5803,4.5803,4.58,4.5801,4.5746,4.5712,4.5683,4.5661,4.5594,4.5594,4.5594,4.5594,4.5594,4.5594,4.5594,4.5594,4.5594,4.5594,4.5594,4.5594,4.5594,4.5594,4.5594,4.5594,4.5594,4.5594,4.5594,4.5594,4.5594,4.5594,4.5594,4.5594,4.5594,4.5594,4.5594,4.5594,4.5594,4.5594,4.559,4.5577,4.5462,4.5415,4.5302,4.5107,4.4825,4.4559,4.4519,4.4499,4.4519,4.4519,4.4438,4.4263,4.4069,4.3725,4.3095,4.1832,4.0538,4.0427,4.039,3.9844,3.9528,3.9851,3.9981,4.0557,4.0854,4.1126,4.1609,4.208,4.2396,4.2723,4.3689,4.4971,4.5528,4.5881,4.6605,4.7375,4.8091,4.876,4.8927,4.9187,3.802,3.9054,3.85,3.8183,3.8166,3.9223,3.9643,3.9671,4.0367,4.0712,4.092,4.1538,4.2571,4.3523,4.3869,4.4264,4.4833,4.4898,4.4912,4.4966,4.5055,4.5124,4.5225,4.5399,4.5551,4.5784,4.5803,4.5649,4.5533,4.5668,4.5803,4.5803,4.5803,4.5803,4.5803,4.5803,4.5803,4.5803,4.5801,4.5761,4.5712,4.568,4.5669,4.5631,4.5594,4.5594,4.5594,4.5594,4.5594,4.5594,4.5594,4.5594,4.5594,4.5594,4.5594,4.5594,4.5594,4.5594,4.5594,4.5594,4.5594,4.5594,4.5594,4.5594,4.5594,4.5594,4.5594,4.5594,4.5594,4.5594,4.5594,4.5594,4.5594,4.5568,4.5513,4.5366,4.5217,4.5047,4.4878,4.4644,4.4395,4.4221,4.4214,4.4239,4.4253,4.4272,4.4166,4.4036,4.3726,4.3318,4.25,4.1244,4.1021,4.0929,4.026,4.0,4.026,4.0538,4.1114,4.1505,4.1627,4.211,4.2667,4.289,4.3113,4.3986,4.5231,4.5509,4.5844,4.6865,4.7757,4.824,4.8704,4.8927,4.9485,3.734,3.7379,3.7353,3.7339,3.746,3.897,3.96,3.962,4.0333,4.0667,4.0788,4.1416,4.1812,4.2214,4.283,4.3177,4.3286,4.3186,4.341,4.3421,4.3322,4.3952,4.4345,4.4688,4.4929,4.5487,4.5416,4.5084,4.4968,4.5162,4.5533,4.5803,4.5707,4.5765,4.5803,4.5803,4.5803,4.5803,4.5812,4.5772,4.5708,4.5673,4.566,4.5612,4.5594,4.5594,4.5594,4.5594,4.5594,4.5594,4.5594,4.5594,4.5594,4.5594,4.5594,4.5594,4.5594,4.5594,4.5594,4.5594,4.5594,4.5594,4.5594,4.5594,4.5594,4.5586,4.5586,4.5577,4.5564,4.5573,4.5581,4.5594,4.5594,4.5535,4.5443,4.5253,4.5041,4.4726,4.4553,4.4402,4.425,4.4098,4.4048,4.4113,4.4128,4.4136,4.4121,4.3997,4.3838,4.3485,4.3076,4.2341,4.1913,4.143,4.0631,4.0594,4.0947,4.0966,4.1226,4.1597,4.1858,4.2445,4.3243,4.3726,4.4061,4.4766,4.5369,4.5833,4.6457,4.7404,4.812,4.8537,4.8964,4.9299,4.9968,3.7927,3.6535,3.6951,3.683,3.6474,3.7578,3.8397,3.8989,3.9688,4.0286,4.0633,4.0893,4.1278,4.169,4.1954,4.2467,4.2877,4.2958,4.2955,4.3058,4.3223,4.3381,4.3696,4.3782,4.3945,4.4288,4.4291,4.4194,4.392,4.4291,4.4214,4.4465,4.5184,4.5726,4.5803,4.5784,4.5803,4.5803,4.58,4.5768,4.5704,4.568,4.5664,4.5603,4.5594,4.5594,4.5594,4.5594,4.5594,4.5594,4.5594,4.5594,4.5594,4.5594,4.5594,4.5594,4.5594,4.5594,4.5594,4.5594,4.5594,4.5594,4.5594,4.5594,4.5581,4.5476,4.5485,4.5485,4.5429,4.539,4.5568,4.5586,4.5586,4.5522,4.5357,4.5143,4.4872,4.4546,4.4332,4.424,4.4155,4.4036,4.4013,4.402,4.402,4.402,4.4005,4.3986,4.3838,4.3726,4.3355,4.3169,4.2768,4.2173,4.1374,4.1449,4.1664,4.1523,4.1393,4.1895,4.237,4.3113,4.3838,4.4395,4.4896,4.5379,4.5862,4.6335,4.7004,4.7776,4.8333,4.8751,4.9206,4.9652,5.0246,3.7908,3.613,3.6527,3.6389,3.5972,3.6713,3.7422,3.8077,3.8849,3.9564,4.0212,4.0412,4.0785,4.1206,4.13,4.151,4.1933,4.2065,4.2213,4.2221,4.2233,4.2577,4.2767,4.2949,4.3105,4.3185,4.3282,4.3301,4.2937,4.3166,4.3205,4.3518,4.4256,4.4914,4.5455,4.5691,4.5784,4.5803,4.58,4.5768,4.5696,4.5684,4.5664,4.5607,4.5594,4.5594,4.5594,4.5594,4.5594,4.5594,4.5594,4.5594,4.5594,4.5594,4.5594,4.5594,4.5594,4.5594,4.559,4.5594,4.5594,4.5594,4.5594,4.5594,4.5527,4.5352,4.5322,4.5371,4.5211,4.5129,4.5342,4.5253,4.5253,4.5169,4.4983,4.4776,4.4637,4.4388,4.4225,4.4064,4.402,4.3997,4.3997,4.3997,4.3997,4.3997,4.3997,4.3997,4.3968,4.3856,4.3745,4.3633,4.354,4.289,4.224,4.224,4.2184,4.1813,4.185,4.2519,4.3095,4.3726,4.4302,4.4841,4.535,4.5862,4.6531,4.7237,4.7646,4.8036,4.85,4.89,4.9466,4.9912,5.0265,3.6912,3.6013,3.6019,3.5985,3.5984,3.6678,3.7051,3.7349,3.8006,3.8699,3.9362,4.0015,4.0303,4.0347,4.0302,4.055,4.0688,4.0762,4.0869,4.1039,4.1164,4.1381,4.1747,4.2105,4.2318,4.3089,4.2973,4.2492,4.2048,4.2531,4.2531,4.2454,4.3053,4.3904,4.4617,4.5378,4.5726,4.5745,4.5649,4.5621,4.5546,4.5588,4.5656,4.5616,4.5594,4.5594,4.5594,4.5594,4.5594,4.5594,4.5594,4.5594,4.5594,4.5594,4.5594,4.5594,4.5594,4.559,4.5605,4.5586,4.5577,4.5586,4.5594,4.5577,4.5522,4.5342,4.5118,4.5132,4.4891,4.4764,4.4764,4.4763,4.4837,4.4831,4.4676,4.4539,4.443,4.4272,4.4109,4.4028,4.4013,4.3997,4.3997,4.3997,4.3997,4.3997,4.3997,4.3997,4.3997,4.396,4.3893,4.3875,4.3856,4.354,4.2965,4.2853,4.2667,4.2277,4.2352,4.3039,4.3392,4.3708,4.4358,4.5165,4.5648,4.6019,4.7125,4.8277,4.8389,4.8463,4.863,4.9039,4.9633,5.0079,5.0339,3.7321,3.6053,3.6544,3.6436,3.5976,3.5998,3.6407,3.707,3.7694,3.815,3.8351,3.8657,3.8709,3.8839,3.9325,3.9559,3.9654,4.0386,4.0531,4.0569,4.057,4.0822,4.1148,4.1322,4.1448,4.1564,4.1625,4.168,4.1219,4.1719,4.1583,4.1451,4.2067,4.2879,4.3553,4.4078,4.4117,4.4253,4.4594,4.4968,4.4936,4.5368,4.5664,4.5599,4.5594,4.5594,4.5594,4.5594,4.5594,4.5594,4.5594,4.559,4.559,4.559,4.559,4.559,4.559,4.5504,4.5391,4.5342,4.5429,4.5508,4.5568,4.5495,4.5347,4.5028,4.489,4.477,4.4533,4.4484,4.4599,4.4637,4.4688,4.4688,4.4598,4.4471,4.4351,4.4151,4.4005,4.4005,4.4005,4.3997,4.3997,4.4191,4.4228,4.4034,4.3997,4.3997,4.3997,4.3997,4.396,4.396,4.3949,4.3838,4.3652,4.3429,4.3373,4.3169,4.3225,4.3615,4.3856,4.3893,4.4729,4.5695,4.5926,4.6223,4.7534,4.863,4.876,4.8872,4.889,4.9187,4.9819,5.0079,5.0153,3.6772,3.6011,3.5905,3.5941,3.5835,3.5406,3.5539,3.6163,3.6996,3.7457,3.7496,3.7625,3.7832,3.8071,3.8373,3.8665,3.8779,3.9602,4.0104,4.0214,4.05,4.069,4.0794,4.0755,4.0948,4.0774,4.0774,4.0832,4.0887,4.08,4.0833,4.0987,4.1309,4.1816,4.2431,4.285,4.3381,4.3649,4.4137,4.4603,4.4766,4.5128,4.5647,4.5616,4.5594,4.5594,4.5594,4.5594,4.5594,4.5594,4.559,4.5581,4.5581,4.5586,4.5581,4.5577,4.5573,4.5448,4.5278,4.5222,4.5287,4.5253,4.5376,4.5362,4.5134,4.4825,4.4612,4.4443,4.4199,4.4151,4.4234,4.4299,4.4346,4.4339,4.4336,4.4218,4.4218,4.4036,4.4008,4.4008,4.3997,4.3997,4.4053,4.4321,4.4488,4.4246,4.3997,4.3997,4.3997,4.3997,4.3997,4.3997,4.3997,4.3931,4.3912,4.3875,4.3875,4.3978,4.4023,4.4023,4.4209,4.4265,4.5249,4.616,4.655,4.7152,4.8166,4.889,4.889,4.889,4.889,4.9336,4.9977,4.9986,4.9837,3.5164,3.5615,3.4098,3.4431,3.5539,3.4757,3.4342,3.4381,3.5792,3.6412,3.6508,3.7124,3.7299,3.7568,3.7736,3.7811,3.8024,3.8792,3.9161,3.948,3.9816,4.0201,4.0388,4.0407,4.0216,4.0448,4.0487,4.0236,4.0655,4.0765,4.0726,4.0704,4.0858,4.1078,4.1519,4.2063,4.2655,4.2886,4.3657,4.4045,4.4253,4.5146,4.5565,4.5627,4.5594,4.5594,4.5594,4.5594,4.5594,4.5594,4.5594,4.5564,4.554,4.5573,4.5555,4.5531,4.5553,4.5371,4.5196,4.5118,4.4988,4.4925,4.5024,4.5107,4.4994,4.4631,4.4431,4.4151,4.3889,4.3755,4.3681,4.3747,4.3804,4.3854,4.3931,4.3937,4.4005,4.3974,4.3984,4.3992,4.3997,4.4016,4.4093,4.4316,4.4491,4.4215,4.3981,4.3997,4.3997,4.3997,4.3997,4.3997,4.3997,4.3997,4.3997,4.4023,4.3997,4.3997,4.4023,4.4061,4.4283,4.4748,4.5621,4.6475,4.7256,4.7999,4.8649,4.889,4.889,4.889,4.889,4.9336,4.9949,4.9447,4.9317,3.3923,3.409,3.3604,3.3687,3.4038,3.3709,3.3753,3.414,3.4083,3.4145,3.4691,3.4909,3.563,3.6154,3.6734,3.696,3.7352,3.7846,3.8281,3.8635,3.8897,3.892,3.899,3.9108,3.9023,3.9045,3.912,3.9484,3.9977,4.0324,4.0683,4.0654,4.0668,4.0648,4.0831,4.1128,4.1477,4.2009,4.3049,4.3555,4.4083,4.4999,4.5398,4.5627,4.5594,4.5594,4.5594,4.5594,4.5594,4.5594,4.5594,4.5581,4.5581,4.5586,4.5577,4.5559,4.5424,4.5201,4.4985,4.4927,4.48,4.4585,4.4599,4.4558,4.4533,4.4452,4.4213,4.3918,4.3697,4.359,4.3539,4.3565,4.3625,4.3667,4.3763,4.3892,4.3971,4.4008,4.4008,4.4019,4.4042,4.4103,4.4162,4.4244,4.4363,4.4098,4.395,4.3981,4.3997,4.3997,4.3997,4.3997,4.4042,4.4061,4.4042,4.4061,4.4023,4.3997,4.4042,4.4265,4.4766,4.5313,4.6056,4.6892,4.7813,4.8351,4.8779,4.889,4.889,4.889,4.8927,4.941,4.967,4.9224,4.9057,3.2782,3.3285,3.2663,3.2591,3.2867,3.2811,3.2988,3.3179,3.2933,3.3105,3.3478,3.3853,3.4309,3.5016,3.5781,3.6214,3.6304,3.7061,3.7527,3.7646,3.7874,3.8225,3.8214,3.8157,3.8318,3.8188,3.8304,3.8824,3.9449,4.0208,4.0661,4.0612,4.0581,4.0591,4.0758,4.1087,4.1276,4.1762,4.241,4.3135,4.4009,4.4886,4.5404,4.5618,4.5594,4.5594,4.5594,4.5594,4.5594,4.5594,4.5594,4.5581,4.5573,4.5544,4.5581,4.5564,4.5495,4.5196,4.4933,4.4818,4.4592,4.4381,4.4308,4.4286,4.4192,4.4084,4.3902,4.3697,4.359,4.3488,4.3488,4.3496,4.3539,4.359,4.3741,4.39,4.3964,4.4019,4.4045,4.4063,4.4111,4.421,4.4257,4.4302,4.4265,4.4029,4.3945,4.3958,4.3981,4.3997,4.3997,4.3997,4.4061,4.4116,4.4116,4.4209,4.4302,4.4283,4.4116,4.4451,4.5127,4.5908,4.6643,4.7534,4.8481,4.8816,4.8993,4.89,4.889,4.8946,4.8983,4.9187,4.9355,4.9141,4.9123,3.1739,3.3003,3.1568,3.1398,3.1968,3.2006,3.199,3.196,3.2329,3.2715,3.2921,3.3425,3.3868,3.4587,3.5151,3.5476,3.5766,3.6369,3.6654,3.6752,3.7215,3.7536,3.7631,3.7922,3.7528,3.7815,3.8019,3.8038,3.9244,3.996,4.0369,4.0549,4.0594,4.0586,4.0652,4.1096,4.1374,4.1817,4.2572,4.3394,4.4237,4.5017,4.5594,4.5594,4.5594,4.5594,4.5594,4.5594,4.5594,4.5594,4.5586,4.5573,4.5535,4.5522,4.5544,4.5577,4.5559,4.5267,4.4956,4.4794,4.4498,4.4308,4.4225,4.4143,4.4033,4.3999,4.3873,4.3682,4.3548,4.3496,4.3488,4.38,4.3954,4.4126,4.4316,4.4624,4.4885,4.4728,4.4411,4.4385,4.4281,4.4316,4.4085,4.4103,4.4116,4.3957,4.4135,4.4167,4.4061,4.4093,4.409,4.409,4.4061,4.4172,4.4395,4.4506,4.47,4.4644,4.4421,4.5034,4.5982,4.6661,4.7256,4.8036,4.8779,4.8983,4.9104,4.916,4.9253,4.9243,4.9224,4.9039,4.8974,4.8937,4.9011,3.0982,3.1406,3.0985,3.0979,3.1163,3.1183,3.113,3.1014,3.1138,3.1861,3.2659,3.2618,3.3278,3.4601,3.4577,3.486,3.5442,3.558,3.5765,3.5926,3.6315,3.6575,3.6346,3.6579,3.6444,3.6303,3.6505,3.728,3.8482,3.9308,3.9998,4.0458,4.0531,4.0534,4.0554,4.0997,4.1339,4.1859,4.279,4.3566,4.4297,4.5032,4.5594,4.5594,4.5594,4.5594,4.5594,4.5594,4.5594,4.5594,4.5594,4.5586,4.5601,4.5577,4.5577,4.559,4.5586,4.5312,4.5013,4.4782,4.4538,4.4196,4.4041,4.3981,4.3958,4.4025,4.3929,4.3716,4.3566,4.3513,4.3598,4.3983,4.4369,4.4624,4.488,4.53,4.5719,4.5352,4.4897,4.4662,4.452,4.4249,4.3991,4.3886,4.389,4.4171,4.4634,4.4757,4.4437,4.435,4.4326,4.4278,4.4079,4.4191,4.4506,4.4766,4.4952,4.4979,4.4793,4.5666,4.6735,4.7478,4.8073,4.8426,4.8909,4.9224,4.9531,4.981,4.9847,4.9689,4.955,4.9401,4.903,4.8919,4.89,3.0719,3.0757,3.0803,3.0819,3.0846,3.0851,3.0801,3.0742,3.072,3.1355,3.2417,3.245,3.2987,3.4125,3.4027,3.4366,3.4921,3.4911,3.5248,3.5432,3.5473,3.5669,3.5605,3.5637,3.5745,3.5701,3.6193,3.7027,3.7993,3.8926,3.9726,4.0346,4.0477,4.0512,4.0554,4.0819,4.1219,4.1835,4.2874,4.3701,4.4335,4.5051,4.5556,4.5594,4.5594,4.5594,4.5594,4.5594,4.5594,4.5594,4.5594,4.5594,4.559,4.559,4.559,4.5594,4.554,4.5415,4.5074,4.4794,4.4592,4.4272,4.3997,4.3974,4.3958,4.3994,4.3868,4.3657,4.359,4.3548,4.3523,4.38,4.4232,4.4561,4.4845,4.5183,4.5657,4.579,4.5295,4.4876,4.4543,4.3985,4.3798,4.3738,4.3723,4.3768,4.435,4.487,4.4663,4.4839,4.4742,4.4708,4.466,4.4591,4.4859,4.5064,4.5175,4.5183,4.5127,4.5703,4.6513,4.7906,4.889,4.8919,4.9169,4.9652,4.9968,5.0367,5.0237,4.9996,4.9903,4.9791,4.9364,4.8964,4.9123,3.0683,3.072,3.0772,3.0799,3.0802,3.0793,3.0799,3.0793,3.0765,3.1089,3.1822,3.2607,3.2533,3.2892,3.3326,3.3866,3.4148,3.4093,3.452,3.5053,3.522,3.5385,3.5528,3.5617,3.5623,3.5791,3.6168,3.6919,3.7787,3.8584,3.9345,4.0154,4.0439,4.0492,4.0743,4.1108,4.1504,4.1797,4.2604,4.3682,4.4412,4.5075,4.5441,4.5594,4.5594,4.5594,4.5594,4.5594,4.5594,4.5594,4.5594,4.5594,4.5594,4.559,4.5541,4.5537,4.5485,4.5327,4.5091,4.4812,4.4612,4.4388,4.4151,4.3994,4.3989,4.3926,4.3806,4.3724,4.3657,4.3607,4.3575,4.3806,4.4257,4.4607,4.4882,4.5194,4.5687,4.5996,4.5469,4.4959,4.4462,4.3848,4.3667,4.3607,4.3609,4.3609,4.3947,4.4366,4.4813,4.5341,4.5566,4.5634,4.5686,4.5617,4.5204,4.5305,4.5361,4.5361,4.5369,4.5695,4.6364,4.7906,4.8863,4.903,4.9336,4.9949,5.058,5.1082,5.0822,5.0525,5.0469,5.0312,4.9383,4.9132,4.9476,3.0647,3.0707,3.0704,3.0741,3.0796,3.0802,3.0785,3.0784,3.0795,3.0907,3.1248,3.1982,3.267,3.3655,3.3224,3.3373,3.366,3.3416,3.3775,3.4405,3.4638,3.5014,3.5388,3.5593,3.5607,3.5716,3.59,3.6293,3.7227,3.7966,3.873,3.9554,4.0285,4.0439,4.0531,4.0819,4.0954,4.13,4.1873,4.2812,4.3797,4.4532,4.5441,4.5594,4.5594,4.5594,4.5594,4.5594,4.5594,4.5594,4.5594,4.5594,4.5594,4.5586,4.5517,4.5419,4.5386,4.5243,4.5022,4.4707,4.4493,4.4478,4.4221,4.4005,4.3997,4.3989,4.3902,4.3857,4.38,4.3761,4.3812,4.4264,4.4698,4.4916,4.5156,4.5533,4.5973,4.5576,4.5013,4.4671,4.4321,4.3909,4.3625,4.3601,4.3632,4.387,4.4548,4.4923,4.5032,4.5653,4.6257,4.6429,4.6509,4.5545,4.4713,4.5342,4.5509,4.5509,4.5714,4.6215,4.6958,4.8064,4.8789,4.8956,4.9624,5.0339,5.0989,5.1676,5.1676,5.1435,5.1268,5.0878,4.9819,4.9373,4.98]}]]